<?xml version='1.0' encoding='UTF-8'?><gpx version="1.1" creator="JPX - https://github.com/jenetics/jpx" xmlns="http://www.topografix.com/GPX/1/1"><trk><trkseg><trkpt lat="38.1331183" lon="14.8574233"><ele>630.0</ele><time>2026-03-24T15:05:01.726Z</time></trkpt><trkpt lat="38.1331217" lon="14.8573"><ele>630.0</ele><time>2026-03-24T15:05:04.727Z</time></trkpt><trkpt lat="38.1331283" lon="14.8571783"><ele>630.0</ele><time>2026-03-24T15:05:06.727Z</time></trkpt><trkpt lat="38.13312" lon="14.8570617"><ele>630.0</ele><time>2026-03-24T15:05:08.727Z</time></trkpt><trkpt lat="38.1331017" lon="14.8569317"><ele>630.0</ele><time>2026-03-24T15:05:10.727Z</time></trkpt><trkpt lat="38.1331067" lon="14.8567833"><ele>630.0</ele><time>2026-03-24T15:05:12.726Z</time></trkpt><trkpt lat="38.1331267" lon="14.8566883"><ele>630.0</ele><time>2026-03-24T15:05:14.726Z</time></trkpt><trkpt lat="38.1331017" lon="14.856775"><ele>630.0</ele><time>2026-03-24T15:05:18.727Z</time></trkpt><trkpt lat="38.1330467" lon="14.8568583"><ele>630.0</ele><time>2026-03-24T15:05:20.726Z</time></trkpt><trkpt lat="38.1329767" lon="14.8569367"><ele>630.0</ele><time>2026-03-24T15:05:22.727Z</time></trkpt><trkpt lat="38.132925" lon="14.8570383"><ele>630.0</ele><time>2026-03-24T15:05:24.727Z</time></trkpt><trkpt lat="38.1328817" lon="14.857125"><ele>630.0</ele><time>2026-03-24T15:05:26.727Z</time></trkpt><trkpt lat="38.1329017" lon="14.857025"><ele>630.0</ele><time>2026-03-24T15:05:38.727Z</time></trkpt><trkpt lat="38.1329217" lon="14.8568733"><ele>630.0</ele><time>2026-03-24T15:05:40.728Z</time></trkpt><trkpt lat="38.1329583" lon="14.8567117"><ele>630.0</ele><time>2026-03-24T15:05:42.728Z</time></trkpt><trkpt lat="38.1330017" lon="14.8565767"><ele>630.0</ele><time>2026-03-24T15:05:44.728Z</time></trkpt><trkpt lat="38.1330667" lon="14.8564783"><ele>630.0</ele><time>2026-03-24T15:05:46.728Z</time></trkpt><trkpt lat="38.1331467" lon="14.8564283"><ele>630.0</ele><time>2026-03-24T15:05:48.728Z</time></trkpt><trkpt lat="38.1330767" lon="14.8565067"><ele>630.0</ele><time>2026-03-24T15:06:20.727Z</time></trkpt><trkpt lat="38.1330033" lon="14.8566367"><ele>630.0</ele><time>2026-03-24T15:06:22.728Z</time></trkpt><trkpt lat="38.1329517" lon="14.85679"><ele>630.0</ele><time>2026-03-24T15:06:24.728Z</time></trkpt><trkpt lat="38.132925" lon="14.85688"><ele>630.0</ele><time>2026-03-24T15:06:25.728Z</time></trkpt><trkpt lat="38.1329067" lon="14.8569733"><ele>630.0</ele><time>2026-03-24T15:06:26.727Z</time></trkpt><trkpt lat="38.1328717" lon="14.8571233"><ele>630.0</ele><time>2026-03-24T15:06:28.728Z</time></trkpt><trkpt lat="38.13283" lon="14.857265"><ele>630.0</ele><time>2026-03-24T15:06:30.728Z</time></trkpt><trkpt lat="38.1327683" lon="14.8573583"><ele>630.0</ele><time>2026-03-24T15:06:32.728Z</time></trkpt><trkpt lat="38.1327217" lon="14.8573"><ele>630.0</ele><time>2026-03-24T15:06:34.728Z</time></trkpt><trkpt lat="38.132705" lon="14.8571833"><ele>630.0</ele><time>2026-03-24T15:06:36.728Z</time></trkpt><trkpt lat="38.1326833" lon="14.8570217"><ele>630.0</ele><time>2026-03-24T15:06:38.728Z</time></trkpt><trkpt lat="38.1326833" lon="14.8569317"><ele>630.0</ele><time>2026-03-24T15:06:39.727Z</time></trkpt><trkpt lat="38.1326767" lon="14.8568517"><ele>630.0</ele><time>2026-03-24T15:06:40.728Z</time></trkpt><trkpt lat="38.1326783" lon="14.8566817"><ele>631.8333333333334</ele><time>2026-03-24T15:06:42.728Z</time></trkpt><trkpt lat="38.132705" lon="14.85659"><ele>633.6666666666666</ele><time>2026-03-24T15:06:43.728Z</time></trkpt><trkpt lat="38.1327433" lon="14.8564983"><ele>635.5</ele><time>2026-03-24T15:06:44.727Z</time></trkpt><trkpt lat="38.13278" lon="14.85641"><ele>637.3333333333333</ele><time>2026-03-24T15:06:45.728Z</time></trkpt><trkpt lat="38.13283" lon="14.85633"><ele>639.1666666666666</ele><time>2026-03-24T15:06:46.728Z</time></trkpt><trkpt lat="38.1328617" lon="14.85626"><ele>641.0</ele><time>2026-03-24T15:06:47.728Z</time></trkpt><trkpt lat="38.1328983" lon="14.85616"><ele>641.0</ele><time>2026-03-24T15:06:49.728Z</time></trkpt><trkpt lat="38.1329017" lon="14.856075"><ele>641.0</ele><time>2026-03-24T15:06:52.728Z</time></trkpt><trkpt lat="38.132935" lon="14.8560033"><ele>641.0</ele><time>2026-03-24T15:06:55.728Z</time></trkpt><trkpt lat="38.1329633" lon="14.8559283"><ele>641.0</ele><time>2026-03-24T15:06:58.728Z</time></trkpt><trkpt lat="38.13301" lon="14.8558"><ele>641.0</ele><time>2026-03-24T15:07:25.727Z</time></trkpt><trkpt lat="38.1330767" lon="14.8557233"><ele>641.0</ele><time>2026-03-24T15:07:27.727Z</time></trkpt><trkpt lat="38.13313" lon="14.855665"><ele>644.6666666666666</ele><time>2026-03-24T15:07:29.728Z</time></trkpt><trkpt lat="38.133165" lon="14.8555917"><ele>648.3333333333333</ele><time>2026-03-24T15:08:10.728Z</time></trkpt><trkpt lat="38.133185" lon="14.8554867"><ele>652.0</ele><time>2026-03-24T15:08:31.727Z</time></trkpt><trkpt lat="38.133215" lon="14.8553883"><ele>655.6666666666666</ele><time>2026-03-24T15:09:23.727Z</time></trkpt><trkpt lat="38.1331933" lon="14.8555133"><ele>659.3333333333334</ele><time>2026-03-24T15:12:06.728Z</time></trkpt><trkpt lat="38.1331483" lon="14.8556167"><ele>663.0</ele><time>2026-03-24T15:12:18.728Z</time></trkpt><trkpt lat="38.133085" lon="14.8556833"><ele>663.0</ele><time>2026-03-24T15:12:21.728Z</time></trkpt><trkpt lat="38.1330233" lon="14.8557467"><ele>663.0</ele><time>2026-03-24T15:12:23.729Z</time></trkpt><trkpt lat="38.1329817" lon="14.8558133"><ele>663.0</ele><time>2026-03-24T15:12:26.729Z</time></trkpt><trkpt lat="38.1329283" lon="14.8559583"><ele>663.0</ele><time>2026-03-24T15:12:37.728Z</time></trkpt><trkpt lat="38.1329017" lon="14.8560367"><ele>663.0</ele><time>2026-03-24T15:12:39.729Z</time></trkpt><trkpt lat="38.1328733" lon="14.8561333"><ele>663.0</ele><time>2026-03-24T15:12:43.729Z</time></trkpt><trkpt lat="38.1328333" lon="14.8562117"><ele>659.3333333333334</ele><time>2026-03-24T15:12:45.728Z</time></trkpt><trkpt lat="38.1327767" lon="14.8563033"><ele>655.6666666666666</ele><time>2026-03-24T15:12:47.729Z</time></trkpt><trkpt lat="38.1326933" lon="14.856395"><ele>652.0</ele><time>2026-03-24T15:12:49.729Z</time></trkpt><trkpt lat="38.132635" lon="14.8564683"><ele>648.3333333333333</ele><time>2026-03-24T15:12:51.728Z</time></trkpt><trkpt lat="38.132575" lon="14.8565383"><ele>644.6666666666666</ele><time>2026-03-24T15:12:54.729Z</time></trkpt><trkpt lat="38.1325167" lon="14.8566133"><ele>641.0</ele><time>2026-03-24T15:12:57.729Z</time></trkpt><trkpt lat="38.1324783" lon="14.85668"><ele>641.0</ele><time>2026-03-24T15:13:00.729Z</time></trkpt><trkpt lat="38.13243" lon="14.8567767"><ele>641.0</ele><time>2026-03-24T15:13:04.728Z</time></trkpt><trkpt lat="38.1323817" lon="14.856845"><ele>641.0</ele><time>2026-03-24T15:13:07.729Z</time></trkpt><trkpt lat="38.1323417" lon="14.8569467"><ele>641.0</ele><time>2026-03-24T15:13:10.729Z</time></trkpt><trkpt lat="38.1323304" lon="14.8570468"><ele>641.0</ele><time>2026-03-24T15:13:19.729Z</time></trkpt><trkpt lat="38.1322955" lon="14.8571244"><ele>641.0</ele><time>2026-03-24T15:13:20.728Z</time></trkpt><trkpt lat="38.1322512" lon="14.857209"><ele>644.5</ele><time>2026-03-24T15:13:21.728Z</time></trkpt><trkpt lat="38.1322157" lon="14.8572778"><ele>648.0</ele><time>2026-03-24T15:13:22.729Z</time></trkpt><trkpt lat="38.1321474" lon="14.8573896"><ele>651.5</ele><time>2026-03-24T15:13:24.728Z</time></trkpt><trkpt lat="38.1320959" lon="14.8575225"><ele>655.0</ele><time>2026-03-24T15:13:26.728Z</time></trkpt><trkpt lat="38.132085" lon="14.8576192"><ele>658.5</ele><time>2026-03-24T15:13:28.729Z</time></trkpt><trkpt lat="38.1321023" lon="14.8577094"><ele>662.0</ele><time>2026-03-24T15:13:30.729Z</time></trkpt><trkpt lat="38.1321148" lon="14.857802"><ele>662.0</ele><time>2026-03-24T15:13:32.728Z</time></trkpt><trkpt lat="38.1321323" lon="14.8579412"><ele>662.0</ele><time>2026-03-24T15:13:34.728Z</time></trkpt><trkpt lat="38.1321427" lon="14.8580691"><ele>662.0</ele><time>2026-03-24T15:13:36.728Z</time></trkpt><trkpt lat="38.1321337" lon="14.8581679"><ele>662.0</ele><time>2026-03-24T15:13:38.728Z</time></trkpt><trkpt lat="38.13211" lon="14.8582717"><ele>662.0</ele><time>2026-03-24T15:13:40.729Z</time></trkpt><trkpt lat="38.1320767" lon="14.8583433"><ele>662.0</ele><time>2026-03-24T15:13:41.729Z</time></trkpt><trkpt lat="38.1320433" lon="14.8584317"><ele>661.0</ele><time>2026-03-24T15:13:42.729Z</time></trkpt><trkpt lat="38.1320083" lon="14.8585267"><ele>660.0</ele><time>2026-03-24T15:13:43.729Z</time></trkpt><trkpt lat="38.1319883" lon="14.85863"><ele>659.0</ele><time>2026-03-24T15:13:44.728Z</time></trkpt><trkpt lat="38.1319833" lon="14.85873"><ele>658.0</ele><time>2026-03-24T15:13:45.729Z</time></trkpt><trkpt lat="38.131975" lon="14.858825"><ele>657.0</ele><time>2026-03-24T15:13:46.728Z</time></trkpt><trkpt lat="38.1319733" lon="14.8589133"><ele>656.0</ele><time>2026-03-24T15:13:47.729Z</time></trkpt><trkpt lat="38.13198" lon="14.8590017"><ele>656.0</ele><time>2026-03-24T15:13:48.729Z</time></trkpt><trkpt lat="38.13197" lon="14.8591417"><ele>656.0</ele><time>2026-03-24T15:13:50.729Z</time></trkpt><trkpt lat="38.1319483" lon="14.8592383"><ele>656.0</ele><time>2026-03-24T15:13:52.729Z</time></trkpt><trkpt lat="38.13192" lon="14.8593383"><ele>656.0</ele><time>2026-03-24T15:13:54.728Z</time></trkpt><trkpt lat="38.131875" lon="14.85943"><ele>656.0</ele><time>2026-03-24T15:13:57.728Z</time></trkpt><trkpt lat="38.1318583" lon="14.85951"><ele>656.0</ele><time>2026-03-24T15:14:00.729Z</time></trkpt><trkpt lat="38.131905" lon="14.8594467"><ele>655.9999999999999</ele><time>2026-03-24T15:14:21.729Z</time></trkpt><trkpt lat="38.1319383" lon="14.8593667"><ele>656.0</ele><time>2026-03-24T15:14:24.729Z</time></trkpt><trkpt lat="38.131965" lon="14.8592933"><ele>656.0</ele><time>2026-03-24T15:14:26.729Z</time></trkpt><trkpt lat="38.1319917" lon="14.8591767"><ele>656.0</ele><time>2026-03-24T15:14:28.728Z</time></trkpt><trkpt lat="38.132" lon="14.859095"><ele>656.0</ele><time>2026-03-24T15:14:29.728Z</time></trkpt><trkpt lat="38.1320033" lon="14.859015"><ele>655.9999999999999</ele><time>2026-03-24T15:14:30.728Z</time></trkpt><trkpt lat="38.1320033" lon="14.8589317"><ele>656.0</ele><time>2026-03-24T15:14:31.729Z</time></trkpt><trkpt lat="38.13201" lon="14.8588483"><ele>656.0</ele><time>2026-03-24T15:14:32.729Z</time></trkpt><trkpt lat="38.1320133" lon="14.858755"><ele>656.0</ele><time>2026-03-24T15:14:33.729Z</time></trkpt><trkpt lat="38.1320233" lon="14.8586583"><ele>656.0</ele><time>2026-03-24T15:14:34.729Z</time></trkpt><trkpt lat="38.1320383" lon="14.858575"><ele>656.0</ele><time>2026-03-24T15:14:35.729Z</time></trkpt><trkpt lat="38.1320733" lon="14.8584567"><ele>656.0</ele><time>2026-03-24T15:14:37.729Z</time></trkpt><trkpt lat="38.1320967" lon="14.85833"><ele>656.0</ele><time>2026-03-24T15:14:39.729Z</time></trkpt><trkpt lat="38.13211" lon="14.85821"><ele>657.1999999999999</ele><time>2026-03-24T15:14:41.729Z</time></trkpt><trkpt lat="38.132115" lon="14.85807"><ele>658.4</ele><time>2026-03-24T15:14:43.729Z</time></trkpt><trkpt lat="38.1321117" lon="14.8579583"><ele>659.6</ele><time>2026-03-24T15:14:45.729Z</time></trkpt><trkpt lat="38.1321117" lon="14.857825"><ele>660.8</ele><time>2026-03-24T15:14:47.728Z</time></trkpt><trkpt lat="38.132115" lon="14.857715"><ele>662.0</ele><time>2026-03-24T15:14:49.728Z</time></trkpt><trkpt lat="38.1320617" lon="14.8576533"><ele>662.0</ele><time>2026-03-24T15:14:52.729Z</time></trkpt><trkpt lat="38.131995" lon="14.8577467"><ele>662.0</ele><time>2026-03-24T15:14:54.728Z</time></trkpt><trkpt lat="38.1319533" lon="14.8578133"><ele>662.0</ele><time>2026-03-24T15:14:55.729Z</time></trkpt><trkpt lat="38.1319183" lon="14.8578883"><ele>662.0</ele><time>2026-03-24T15:14:56.729Z</time></trkpt><trkpt lat="38.131885" lon="14.8579567"><ele>662.0</ele><time>2026-03-24T15:14:57.728Z</time></trkpt><trkpt lat="38.1318133" lon="14.8580883"><ele>662.0</ele><time>2026-03-24T15:14:59.729Z</time></trkpt><trkpt lat="38.131785" lon="14.8581683"><ele>662.0</ele><time>2026-03-24T15:15:00.729Z</time></trkpt><trkpt lat="38.131735" lon="14.858315"><ele>662.0</ele><time>2026-03-24T15:15:02.729Z</time></trkpt><trkpt lat="38.1317033" lon="14.858395"><ele>662.0</ele><time>2026-03-24T15:15:03.729Z</time></trkpt><trkpt lat="38.1316633" lon="14.8584817"><ele>662.0</ele><time>2026-03-24T15:15:04.728Z</time></trkpt><trkpt lat="38.1316317" lon="14.8585983"><ele>662.0</ele><time>2026-03-24T15:15:05.729Z</time></trkpt><trkpt lat="38.1315933" lon="14.8587217"><ele>660.8</ele><time>2026-03-24T15:15:06.729Z</time></trkpt><trkpt lat="38.1315617" lon="14.8588667"><ele>659.6</ele><time>2026-03-24T15:15:07.729Z</time></trkpt><trkpt lat="38.1315317" lon="14.8589983"><ele>658.4</ele><time>2026-03-24T15:15:08.729Z</time></trkpt><trkpt lat="38.131505" lon="14.859105"><ele>657.1999999999999</ele><time>2026-03-24T15:15:09.729Z</time></trkpt><trkpt lat="38.1314867" lon="14.8592017"><ele>656.0</ele><time>2026-03-24T15:15:10.728Z</time></trkpt><trkpt lat="38.131475" lon="14.859315"><ele>654.1999999999999</ele><time>2026-03-24T15:15:12.728Z</time></trkpt><trkpt lat="38.1315133" lon="14.8594333"><ele>652.4</ele><time>2026-03-24T15:15:14.729Z</time></trkpt><trkpt lat="38.1315133" lon="14.8595567"><ele>650.6</ele><time>2026-03-24T15:15:16.729Z</time></trkpt><trkpt lat="38.1314633" lon="14.8596583"><ele>648.8</ele><time>2026-03-24T15:15:27.728Z</time></trkpt><trkpt lat="38.13142" lon="14.85978"><ele>647.0</ele><time>2026-03-24T15:15:29.729Z</time></trkpt><trkpt lat="38.1313617" lon="14.8599017"><ele>647.0</ele><time>2026-03-24T15:15:31.729Z</time></trkpt><trkpt lat="38.131305" lon="14.8600183"><ele>647.0</ele><time>2026-03-24T15:15:33.729Z</time></trkpt><trkpt lat="38.13123" lon="14.8601417"><ele>647.0</ele><time>2026-03-24T15:15:35.729Z</time></trkpt><trkpt lat="38.1311667" lon="14.8602567"><ele>647.0</ele><time>2026-03-24T15:15:37.728Z</time></trkpt><trkpt lat="38.1310817" lon="14.8603367"><ele>647.0</ele><time>2026-03-24T15:15:39.729Z</time></trkpt><trkpt lat="38.130975" lon="14.860375"><ele>641.0</ele><time>2026-03-24T15:15:41.729Z</time></trkpt><trkpt lat="38.1308617" lon="14.860345"><ele>635.0</ele><time>2026-03-24T15:15:43.729Z</time></trkpt><trkpt lat="38.1307617" lon="14.8602767"><ele>629.0</ele><time>2026-03-24T15:15:45.728Z</time></trkpt><trkpt lat="38.1306783" lon="14.8602033"><ele>623.0</ele><time>2026-03-24T15:15:47.729Z</time></trkpt><trkpt lat="38.130605" lon="14.860145"><ele>617.0</ele><time>2026-03-24T15:15:49.729Z</time></trkpt><trkpt lat="38.1305733" lon="14.8602467"><ele>617.0</ele><time>2026-03-24T15:15:52.729Z</time></trkpt><trkpt lat="38.1306217" lon="14.86035"><ele>617.0</ele><time>2026-03-24T15:15:54.728Z</time></trkpt><trkpt lat="38.13068" lon="14.8604417"><ele>617.0</ele><time>2026-03-24T15:15:56.729Z</time></trkpt><trkpt lat="38.1307683" lon="14.8605467"><ele>617.0</ele><time>2026-03-24T15:15:58.728Z</time></trkpt><trkpt lat="38.130835" lon="14.86059"><ele>617.0</ele><time>2026-03-24T15:15:59.729Z</time></trkpt><trkpt lat="38.1309033" lon="14.8606333"><ele>617.0</ele><time>2026-03-24T15:16:00.729Z</time></trkpt><trkpt lat="38.1309867" lon="14.86067"><ele>617.0</ele><time>2026-03-24T15:16:01.729Z</time></trkpt><trkpt lat="38.13106" lon="14.8607"><ele>617.0</ele><time>2026-03-24T15:16:02.728Z</time></trkpt><trkpt lat="38.1311267" lon="14.8607117"><ele>617.0</ele><time>2026-03-24T15:16:03.729Z</time></trkpt><trkpt lat="38.1312333" lon="14.86072"><ele>617.0</ele><time>2026-03-24T15:16:05.729Z</time></trkpt><trkpt lat="38.1313117" lon="14.8606533"><ele>617.0</ele><time>2026-03-24T15:16:07.729Z</time></trkpt><trkpt lat="38.1313533" lon="14.8605533"><ele>617.0</ele><time>2026-03-24T15:16:09.729Z</time></trkpt><trkpt lat="38.13135" lon="14.86069"><ele>617.0</ele><time>2026-03-24T15:16:13.728Z</time></trkpt><trkpt lat="38.1312783" lon="14.8607983"><ele>617.0</ele><time>2026-03-24T15:16:15.728Z</time></trkpt><trkpt lat="38.1311833" lon="14.8608617"><ele>617.0</ele><time>2026-03-24T15:16:17.729Z</time></trkpt><trkpt lat="38.13107" lon="14.860925"><ele>610.5</ele><time>2026-03-24T15:16:19.729Z</time></trkpt><trkpt lat="38.1310167" lon="14.8609683"><ele>604.0</ele><time>2026-03-24T15:16:20.728Z</time></trkpt><trkpt lat="38.13092" lon="14.8610417"><ele>597.5</ele><time>2026-03-24T15:16:22.729Z</time></trkpt><trkpt lat="38.130845" lon="14.8610983"><ele>591.0</ele><time>2026-03-24T15:16:24.729Z</time></trkpt><trkpt lat="38.1307783" lon="14.861165"><ele>584.5</ele><time>2026-03-24T15:16:26.728Z</time></trkpt><trkpt lat="38.13069" lon="14.8611967"><ele>578.0</ele><time>2026-03-24T15:16:28.729Z</time></trkpt><trkpt lat="38.1305983" lon="14.8612133"><ele>578.0</ele><time>2026-03-24T15:16:30.728Z</time></trkpt><trkpt lat="38.130495" lon="14.8612283"><ele>578.0</ele><time>2026-03-24T15:16:32.729Z</time></trkpt><trkpt lat="38.1304183" lon="14.8612283"><ele>578.0</ele><time>2026-03-24T15:16:34.728Z</time></trkpt><trkpt lat="38.13033" lon="14.861225"><ele>578.0</ele><time>2026-03-24T15:16:37.728Z</time></trkpt><trkpt lat="38.130425" lon="14.8612067"><ele>578.0</ele><time>2026-03-24T15:17:26.729Z</time></trkpt><trkpt lat="38.1305383" lon="14.8611933"><ele>578.0</ele><time>2026-03-24T15:17:28.728Z</time></trkpt><trkpt lat="38.1306033" lon="14.8611817"><ele>578.0</ele><time>2026-03-24T15:17:29.729Z</time></trkpt><trkpt lat="38.130685" lon="14.8611733"><ele>578.0</ele><time>2026-03-24T15:17:30.729Z</time></trkpt><trkpt lat="38.1307617" lon="14.861155"><ele>578.0</ele><time>2026-03-24T15:17:31.73Z</time></trkpt><trkpt lat="38.1308667" lon="14.8610817"><ele>578.0</ele><time>2026-03-24T15:17:33.73Z</time></trkpt><trkpt lat="38.130965" lon="14.8610083"><ele>578.0</ele><time>2026-03-24T15:17:35.73Z</time></trkpt><trkpt lat="38.1310233" lon="14.8609633"><ele>578.0</ele><time>2026-03-24T15:17:36.73Z</time></trkpt><trkpt lat="38.1310967" lon="14.8609117"><ele>578.0</ele><time>2026-03-24T15:17:37.729Z</time></trkpt><trkpt lat="38.131175" lon="14.86087"><ele>578.0</ele><time>2026-03-24T15:17:38.73Z</time></trkpt><trkpt lat="38.1312333" lon="14.8608383"><ele>578.0</ele><time>2026-03-24T15:17:39.73Z</time></trkpt><trkpt lat="38.131315" lon="14.8607383"><ele>578.0</ele><time>2026-03-24T15:17:41.73Z</time></trkpt><trkpt lat="38.1313433" lon="14.86065"><ele>585.8</ele><time>2026-03-24T15:17:42.729Z</time></trkpt><trkpt lat="38.1313583" lon="14.8605683"><ele>593.5999999999999</ele><time>2026-03-24T15:17:43.729Z</time></trkpt><trkpt lat="38.1312633" lon="14.86064"><ele>601.4000000000001</ele><time>2026-03-24T15:17:49.73Z</time></trkpt><trkpt lat="38.1311867" lon="14.860685"><ele>609.2</ele><time>2026-03-24T15:17:50.73Z</time></trkpt><trkpt lat="38.1310917" lon="14.8607017"><ele>617.0</ele><time>2026-03-24T15:17:51.73Z</time></trkpt><trkpt lat="38.1309983" lon="14.8606867"><ele>617.0</ele><time>2026-03-24T15:17:52.73Z</time></trkpt><trkpt lat="38.130925" lon="14.8606567"><ele>617.0</ele><time>2026-03-24T15:17:53.729Z</time></trkpt><trkpt lat="38.1308433" lon="14.8606133"><ele>617.0</ele><time>2026-03-24T15:17:54.729Z</time></trkpt><trkpt lat="38.1307633" lon="14.8605467"><ele>617.0</ele><time>2026-03-24T15:17:55.73Z</time></trkpt><trkpt lat="38.1307017" lon="14.86048"><ele>617.0</ele><time>2026-03-24T15:17:56.729Z</time></trkpt><trkpt lat="38.1306517" lon="14.8604017"><ele>617.0</ele><time>2026-03-24T15:17:57.729Z</time></trkpt><trkpt lat="38.1306017" lon="14.8603233"><ele>617.0</ele><time>2026-03-24T15:17:58.73Z</time></trkpt><trkpt lat="38.130555" lon="14.8602067"><ele>617.0</ele><time>2026-03-24T15:18:00.73Z</time></trkpt><trkpt lat="38.1306167" lon="14.8601483"><ele>617.0</ele><time>2026-03-24T15:18:03.73Z</time></trkpt><trkpt lat="38.1307217" lon="14.8602467"><ele>617.0</ele><time>2026-03-24T15:18:05.729Z</time></trkpt><trkpt lat="38.1307833" lon="14.8602983"><ele>617.0</ele><time>2026-03-24T15:18:06.729Z</time></trkpt><trkpt lat="38.1308467" lon="14.86035"><ele>617.0</ele><time>2026-03-24T15:18:07.73Z</time></trkpt><trkpt lat="38.130915" lon="14.8603933"><ele>617.0</ele><time>2026-03-24T15:18:08.73Z</time></trkpt><trkpt lat="38.1309767" lon="14.860415"><ele>617.0</ele><time>2026-03-24T15:18:09.73Z</time></trkpt><trkpt lat="38.131045" lon="14.8604167"><ele>617.0</ele><time>2026-03-24T15:18:10.729Z</time></trkpt><trkpt lat="38.1311167" lon="14.8604"><ele>617.0</ele><time>2026-03-24T15:18:11.73Z</time></trkpt><trkpt lat="38.1311767" lon="14.8603583"><ele>617.0</ele><time>2026-03-24T15:18:12.73Z</time></trkpt><trkpt lat="38.131225" lon="14.8602933"><ele>617.0</ele><time>2026-03-24T15:18:13.729Z</time></trkpt><trkpt lat="38.131265" lon="14.8601967"><ele>623.0</ele><time>2026-03-24T15:18:14.73Z</time></trkpt><trkpt lat="38.1313" lon="14.8600967"><ele>629.0</ele><time>2026-03-24T15:18:15.729Z</time></trkpt><trkpt lat="38.131335" lon="14.8599917"><ele>635.0</ele><time>2026-03-24T15:18:16.73Z</time></trkpt><trkpt lat="38.1313617" lon="14.8599017"><ele>641.0</ele><time>2026-03-24T15:18:17.73Z</time></trkpt><trkpt lat="38.131405" lon="14.85976"><ele>647.0</ele><time>2026-03-24T15:18:19.73Z</time></trkpt><trkpt lat="38.131455" lon="14.8596783"><ele>647.0</ele><time>2026-03-24T15:18:21.73Z</time></trkpt><trkpt lat="38.1315085" lon="14.8596227"><ele>647.0</ele><time>2026-03-24T15:23:03.73Z</time></trkpt><trkpt lat="38.1314999" lon="14.8595013"><ele>647.0</ele><time>2026-03-24T15:25:02.73Z</time></trkpt><trkpt lat="38.1314951" lon="14.8593843"><ele>647.0</ele><time>2026-03-24T15:25:04.73Z</time></trkpt><trkpt lat="38.1314103" lon="14.8594295"><ele>647.0</ele><time>2026-03-24T15:25:08.731Z</time></trkpt><trkpt lat="38.131333" lon="14.8595316"><ele>647.0</ele><time>2026-03-24T15:25:10.73Z</time></trkpt><trkpt lat="38.1312343" lon="14.8595625"><ele>647.0</ele><time>2026-03-24T15:25:12.731Z</time></trkpt><trkpt lat="38.1311264" lon="14.8595274"><ele>647.0</ele><time>2026-03-24T15:25:14.731Z</time></trkpt><trkpt lat="38.1310344" lon="14.8594456"><ele>647.0</ele><time>2026-03-24T15:25:16.731Z</time></trkpt><trkpt lat="38.1309417" lon="14.8593717"><ele>647.0</ele><time>2026-03-24T15:25:18.731Z</time></trkpt><trkpt lat="38.1308633" lon="14.8593267"><ele>651.1666666666666</ele><time>2026-03-24T15:25:20.731Z</time></trkpt><trkpt lat="38.1308983" lon="14.8592567"><ele>655.3333333333333</ele><time>2026-03-24T15:25:25.73Z</time></trkpt><trkpt lat="38.1310067" lon="14.859275"><ele>659.5</ele><time>2026-03-24T15:25:27.73Z</time></trkpt><trkpt lat="38.13108" lon="14.8592783"><ele>663.6666666666666</ele><time>2026-03-24T15:25:28.73Z</time></trkpt><trkpt lat="38.13115" lon="14.8592733"><ele>667.8333333333334</ele><time>2026-03-24T15:25:29.73Z</time></trkpt><trkpt lat="38.1312517" lon="14.8592583"><ele>672.0</ele><time>2026-03-24T15:25:31.731Z</time></trkpt><trkpt lat="38.131295" lon="14.859165"><ele>672.0</ele><time>2026-03-24T15:25:33.731Z</time></trkpt><trkpt lat="38.1312983" lon="14.8590467"><ele>672.0</ele><time>2026-03-24T15:25:35.731Z</time></trkpt><trkpt lat="38.1312717" lon="14.8589017"><ele>672.0</ele><time>2026-03-24T15:25:37.73Z</time></trkpt><trkpt lat="38.1312333" lon="14.8587967"><ele>672.0</ele><time>2026-03-24T15:25:38.731Z</time></trkpt><trkpt lat="38.1311983" lon="14.8586917"><ele>672.0</ele><time>2026-03-24T15:25:39.731Z</time></trkpt><trkpt lat="38.13116" lon="14.8586017"><ele>672.0</ele><time>2026-03-24T15:25:40.731Z</time></trkpt><trkpt lat="38.131125" lon="14.8585217"><ele>672.0</ele><time>2026-03-24T15:25:41.731Z</time></trkpt><trkpt lat="38.13109" lon="14.8584417"><ele>672.0</ele><time>2026-03-24T15:25:42.73Z</time></trkpt><trkpt lat="38.1310583" lon="14.8583617"><ele>672.0</ele><time>2026-03-24T15:25:43.731Z</time></trkpt><trkpt lat="38.1310417" lon="14.8582833"><ele>672.0</ele><time>2026-03-24T15:25:44.73Z</time></trkpt><trkpt lat="38.131065" lon="14.8581283"><ele>672.0</ele><time>2026-03-24T15:25:46.731Z</time></trkpt><trkpt lat="38.1310683" lon="14.8580467"><ele>672.0</ele><time>2026-03-24T15:25:47.731Z</time></trkpt><trkpt lat="38.1310583" lon="14.857945"><ele>672.0</ele><time>2026-03-24T15:25:49.731Z</time></trkpt><trkpt lat="38.1310617" lon="14.8580433"><ele>672.0</ele><time>2026-03-24T15:26:02.73Z</time></trkpt><trkpt lat="38.1310583" lon="14.8581233"><ele>672.0</ele><time>2026-03-24T15:26:04.73Z</time></trkpt><trkpt lat="38.1310467" lon="14.8582083"><ele>672.0</ele><time>2026-03-24T15:26:06.731Z</time></trkpt><trkpt lat="38.1310383" lon="14.858295"><ele>672.0</ele><time>2026-03-24T15:26:08.731Z</time></trkpt><trkpt lat="38.1310817" lon="14.8584583"><ele>672.0</ele><time>2026-03-24T15:26:10.73Z</time></trkpt><trkpt lat="38.1311217" lon="14.8585667"><ele>672.0</ele><time>2026-03-24T15:26:11.731Z</time></trkpt><trkpt lat="38.1311533" lon="14.858665"><ele>672.0</ele><time>2026-03-24T15:26:12.731Z</time></trkpt><trkpt lat="38.1311817" lon="14.858755"><ele>672.0</ele><time>2026-03-24T15:26:13.731Z</time></trkpt><trkpt lat="38.1312033" lon="14.8588367"><ele>672.0</ele><time>2026-03-24T15:26:14.731Z</time></trkpt><trkpt lat="38.131245" lon="14.8589817"><ele>672.0</ele><time>2026-03-24T15:26:16.73Z</time></trkpt><trkpt lat="38.13127" lon="14.8591"><ele>672.0</ele><time>2026-03-24T15:26:18.731Z</time></trkpt><trkpt lat="38.1312583" lon="14.8592083"><ele>672.0</ele><time>2026-03-24T15:26:20.731Z</time></trkpt><trkpt lat="38.1311917" lon="14.859265"><ele>672.0</ele><time>2026-03-24T15:26:22.73Z</time></trkpt><trkpt lat="38.131095" lon="14.859275"><ele>672.0</ele><time>2026-03-24T15:26:24.73Z</time></trkpt><trkpt lat="38.13103" lon="14.8592717"><ele>672.0</ele><time>2026-03-24T15:26:25.73Z</time></trkpt><trkpt lat="38.1309167" lon="14.8592483"><ele>672.0</ele><time>2026-03-24T15:26:27.73Z</time></trkpt><trkpt lat="38.1308183" lon="14.8592467"><ele>671.0</ele><time>2026-03-24T15:26:29.731Z</time></trkpt><trkpt lat="38.1307" lon="14.8592383"><ele>670.0</ele><time>2026-03-24T15:26:31.731Z</time></trkpt><trkpt lat="38.1306267" lon="14.8592283"><ele>669.0</ele><time>2026-03-24T15:26:32.731Z</time></trkpt><trkpt lat="38.1305483" lon="14.85922"><ele>668.0</ele><time>2026-03-24T15:26:33.73Z</time></trkpt><trkpt lat="38.1304767" lon="14.8592183"><ele>667.0</ele><time>2026-03-24T15:26:34.731Z</time></trkpt><trkpt lat="38.1303633" lon="14.8592067"><ele>667.0</ele><time>2026-03-24T15:26:36.731Z</time></trkpt><trkpt lat="38.130255" lon="14.8591733"><ele>667.0</ele><time>2026-03-24T15:26:38.73Z</time></trkpt><trkpt lat="38.130195" lon="14.859145"><ele>667.0</ele><time>2026-03-24T15:26:39.731Z</time></trkpt><trkpt lat="38.130085" lon="14.8590683"><ele>667.0</ele><time>2026-03-24T15:26:41.73Z</time></trkpt><trkpt lat="38.1300283" lon="14.8590217"><ele>667.0</ele><time>2026-03-24T15:26:42.731Z</time></trkpt><trkpt lat="38.129975" lon="14.8589733"><ele>667.0</ele><time>2026-03-24T15:26:43.73Z</time></trkpt><trkpt lat="38.12992" lon="14.8589233"><ele>666.6666666666667</ele><time>2026-03-24T15:26:44.731Z</time></trkpt><trkpt lat="38.1298283" lon="14.8588383"><ele>666.3333333333334</ele><time>2026-03-24T15:26:46.73Z</time></trkpt><trkpt lat="38.12977" lon="14.8587883"><ele>666.0</ele><time>2026-03-24T15:26:48.731Z</time></trkpt><trkpt lat="38.129665" lon="14.8587617"><ele>665.6666666666666</ele><time>2026-03-24T15:26:50.731Z</time></trkpt><trkpt lat="38.129585" lon="14.8587533"><ele>665.3333333333333</ele><time>2026-03-24T15:26:51.731Z</time></trkpt><trkpt lat="38.1295083" lon="14.8587483"><ele>665.0</ele><time>2026-03-24T15:26:52.731Z</time></trkpt><trkpt lat="38.12939" lon="14.858735"><ele>665.0</ele><time>2026-03-24T15:26:54.73Z</time></trkpt><trkpt lat="38.129355" lon="14.8588183"><ele>665.0</ele><time>2026-03-24T15:26:56.73Z</time></trkpt><trkpt lat="38.1293633" lon="14.8589267"><ele>665.0</ele><time>2026-03-24T15:26:58.73Z</time></trkpt><trkpt lat="38.1293467" lon="14.8590083"><ele>665.0</ele><time>2026-03-24T15:27:00.73Z</time></trkpt><trkpt lat="38.129285" lon="14.85909"><ele>665.0</ele><time>2026-03-24T15:27:03.731Z</time></trkpt><trkpt lat="38.1292417" lon="14.8591567"><ele>665.0</ele><time>2026-03-24T15:27:05.731Z</time></trkpt><trkpt lat="38.1291967" lon="14.859235"><ele>665.0</ele><time>2026-03-24T15:27:07.731Z</time></trkpt><trkpt lat="38.1291517" lon="14.8593083"><ele>665.0</ele><time>2026-03-24T15:27:10.73Z</time></trkpt><trkpt lat="38.1290817" lon="14.8592867"><ele>665.0</ele><time>2026-03-24T15:27:16.73Z</time></trkpt><trkpt lat="38.1291484" lon="14.8593065"><ele>665.0</ele><time>2026-03-24T15:27:28.731Z</time></trkpt><trkpt lat="38.1291918" lon="14.8592378"><ele>665.0</ele><time>2026-03-24T15:27:30.73Z</time></trkpt><trkpt lat="38.1292397" lon="14.8591705"><ele>665.0</ele><time>2026-03-24T15:27:32.73Z</time></trkpt><trkpt lat="38.1292806" lon="14.8590821"><ele>665.0</ele><time>2026-03-24T15:27:34.73Z</time></trkpt><trkpt lat="38.1293426" lon="14.8589844"><ele>665.0</ele><time>2026-03-24T15:27:36.73Z</time></trkpt><trkpt lat="38.1293826" lon="14.858848"><ele>665.0</ele><time>2026-03-24T15:27:38.73Z</time></trkpt><trkpt lat="38.1293724" lon="14.8587442"><ele>665.0</ele><time>2026-03-24T15:27:40.73Z</time></trkpt><trkpt lat="38.1292912" lon="14.8586908"><ele>665.0</ele><time>2026-03-24T15:27:42.731Z</time></trkpt><trkpt lat="38.1292084" lon="14.8586899"><ele>665.0</ele><time>2026-03-24T15:27:43.73Z</time></trkpt><trkpt lat="38.1290926" lon="14.8586984"><ele>665.25</ele><time>2026-03-24T15:27:44.731Z</time></trkpt><trkpt lat="38.128935" lon="14.8587183"><ele>665.5</ele><time>2026-03-24T15:27:45.73Z</time></trkpt><trkpt lat="38.1288133" lon="14.85873"><ele>665.75</ele><time>2026-03-24T15:27:46.731Z</time></trkpt><trkpt lat="38.12872" lon="14.858715"><ele>666.0</ele><time>2026-03-24T15:27:47.73Z</time></trkpt><trkpt lat="38.1286417" lon="14.858685"><ele>666.0</ele><time>2026-03-24T15:27:48.73Z</time></trkpt><trkpt lat="38.1285733" lon="14.858645"><ele>666.0</ele><time>2026-03-24T15:27:49.73Z</time></trkpt><trkpt lat="38.1284983" lon="14.8586017"><ele>666.0</ele><time>2026-03-24T15:27:50.731Z</time></trkpt><trkpt lat="38.1284267" lon="14.85855"><ele>666.0</ele><time>2026-03-24T15:27:51.731Z</time></trkpt><trkpt lat="38.1283517" lon="14.8585017"><ele>666.0</ele><time>2026-03-24T15:27:52.73Z</time></trkpt><trkpt lat="38.1282533" lon="14.8584367"><ele>666.0</ele><time>2026-03-24T15:27:54.73Z</time></trkpt><trkpt lat="38.128195" lon="14.858385"><ele>669.0</ele><time>2026-03-24T15:27:56.731Z</time></trkpt><trkpt lat="38.12808" lon="14.85835"><ele>672.0</ele><time>2026-03-24T15:27:58.731Z</time></trkpt><trkpt lat="38.1279717" lon="14.8582933"><ele>675.0</ele><time>2026-03-24T15:28:00.73Z</time></trkpt><trkpt lat="38.1278567" lon="14.8582583"><ele>678.0</ele><time>2026-03-24T15:28:02.731Z</time></trkpt><trkpt lat="38.1277917" lon="14.8582317"><ele>681.0</ele><time>2026-03-24T15:28:03.731Z</time></trkpt><trkpt lat="38.127725" lon="14.8582067"><ele>681.0</ele><time>2026-03-24T15:28:04.731Z</time></trkpt><trkpt lat="38.1276517" lon="14.858195"><ele>681.0</ele><time>2026-03-24T15:28:05.731Z</time></trkpt><trkpt lat="38.127575" lon="14.8581717"><ele>681.0</ele><time>2026-03-24T15:28:06.731Z</time></trkpt><trkpt lat="38.1274967" lon="14.85816"><ele>681.0</ele><time>2026-03-24T15:28:07.731Z</time></trkpt><trkpt lat="38.12742" lon="14.8581517"><ele>681.0</ele><time>2026-03-24T15:28:08.731Z</time></trkpt><trkpt lat="38.12734" lon="14.8581433"><ele>681.0</ele><time>2026-03-24T15:28:09.73Z</time></trkpt><trkpt lat="38.1272583" lon="14.85813"><ele>680.7142857142858</ele><time>2026-03-24T15:28:10.73Z</time></trkpt><trkpt lat="38.1271733" lon="14.8581133"><ele>680.4285714285714</ele><time>2026-03-24T15:28:11.731Z</time></trkpt><trkpt lat="38.1270917" lon="14.8581"><ele>680.1428571428571</ele><time>2026-03-24T15:28:12.73Z</time></trkpt><trkpt lat="38.12702" lon="14.8580933"><ele>679.8571428571429</ele><time>2026-03-24T15:28:13.731Z</time></trkpt><trkpt lat="38.12695" lon="14.858085"><ele>679.5714285714286</ele><time>2026-03-24T15:28:14.731Z</time></trkpt><trkpt lat="38.1268817" lon="14.85809"><ele>679.2857142857143</ele><time>2026-03-24T15:28:15.731Z</time></trkpt><trkpt lat="38.1268167" lon="14.8580983"><ele>679.0</ele><time>2026-03-24T15:28:16.731Z</time></trkpt><trkpt lat="38.1267533" lon="14.8580983"><ele>679.0</ele><time>2026-03-24T15:28:17.73Z</time></trkpt><trkpt lat="38.1266517" lon="14.85811"><ele>679.0</ele><time>2026-03-24T15:28:19.731Z</time></trkpt><trkpt lat="38.1265683" lon="14.8581383"><ele>679.0</ele><time>2026-03-24T15:28:21.731Z</time></trkpt><trkpt lat="38.1264433" lon="14.858205"><ele>679.0</ele><time>2026-03-24T15:28:23.73Z</time></trkpt><trkpt lat="38.1263667" lon="14.8582617"><ele>679.0</ele><time>2026-03-24T15:28:24.731Z</time></trkpt><trkpt lat="38.1262717" lon="14.8583017"><ele>679.8000000000001</ele><time>2026-03-24T15:28:25.731Z</time></trkpt><trkpt lat="38.1261733" lon="14.858345"><ele>680.6</ele><time>2026-03-24T15:28:26.73Z</time></trkpt><trkpt lat="38.1260783" lon="14.85839"><ele>681.4</ele><time>2026-03-24T15:28:27.731Z</time></trkpt><trkpt lat="38.1259767" lon="14.8584467"><ele>682.2</ele><time>2026-03-24T15:28:28.731Z</time></trkpt><trkpt lat="38.1258883" lon="14.8584917"><ele>683.0</ele><time>2026-03-24T15:28:29.731Z</time></trkpt><trkpt lat="38.1258267" lon="14.85855"><ele>683.5</ele><time>2026-03-24T15:28:30.73Z</time></trkpt><trkpt lat="38.1257683" lon="14.858605"><ele>684.0</ele><time>2026-03-24T15:28:31.731Z</time></trkpt><trkpt lat="38.1257167" lon="14.85866"><ele>684.5</ele><time>2026-03-24T15:28:32.731Z</time></trkpt><trkpt lat="38.1256567" lon="14.8586967"><ele>685.0</ele><time>2026-03-24T15:28:33.731Z</time></trkpt><trkpt lat="38.1255833" lon="14.8587317"><ele>685.5</ele><time>2026-03-24T15:28:34.73Z</time></trkpt><trkpt lat="38.1255117" lon="14.8587767"><ele>686.0</ele><time>2026-03-24T15:28:35.731Z</time></trkpt><trkpt lat="38.125435" lon="14.8588317"><ele>686.0</ele><time>2026-03-24T15:28:36.73Z</time></trkpt><trkpt lat="38.1253533" lon="14.8589"><ele>686.0</ele><time>2026-03-24T15:28:37.731Z</time></trkpt><trkpt lat="38.1252683" lon="14.858975"><ele>686.0</ele><time>2026-03-24T15:28:38.731Z</time></trkpt><trkpt lat="38.1251683" lon="14.859055"><ele>686.0</ele><time>2026-03-24T15:28:39.73Z</time></trkpt><trkpt lat="38.12505" lon="14.85914"><ele>686.0</ele><time>2026-03-24T15:28:40.731Z</time></trkpt><trkpt lat="38.1249383" lon="14.8592167"><ele>686.0</ele><time>2026-03-24T15:28:41.731Z</time></trkpt><trkpt lat="38.124825" lon="14.8592417"><ele>686.0</ele><time>2026-03-24T15:28:42.731Z</time></trkpt><trkpt lat="38.1247217" lon="14.859245"><ele>686.0</ele><time>2026-03-24T15:28:43.731Z</time></trkpt><trkpt lat="38.124625" lon="14.8592367"><ele>686.0</ele><time>2026-03-24T15:28:44.731Z</time></trkpt><trkpt lat="38.1245433" lon="14.8592283"><ele>686.5</ele><time>2026-03-24T15:28:45.732Z</time></trkpt><trkpt lat="38.1244617" lon="14.859225"><ele>687.0</ele><time>2026-03-24T15:28:46.732Z</time></trkpt><trkpt lat="38.124395" lon="14.8592383"><ele>687.5</ele><time>2026-03-24T15:28:47.732Z</time></trkpt><trkpt lat="38.1243017" lon="14.8593117"><ele>688.0</ele><time>2026-03-24T15:28:49.732Z</time></trkpt><trkpt lat="38.124235" lon="14.85944"><ele>688.5</ele><time>2026-03-24T15:28:51.732Z</time></trkpt><trkpt lat="38.1242017" lon="14.8595083"><ele>689.0</ele><time>2026-03-24T15:28:52.731Z</time></trkpt><trkpt lat="38.12413" lon="14.8596333"><ele>687.8333333333333</ele><time>2026-03-24T15:28:54.732Z</time></trkpt><trkpt lat="38.12409" lon="14.8597033"><ele>686.6666666666666</ele><time>2026-03-24T15:28:55.731Z</time></trkpt><trkpt lat="38.1240467" lon="14.8597683"><ele>685.5</ele><time>2026-03-24T15:28:56.732Z</time></trkpt><trkpt lat="38.124005" lon="14.859835"><ele>684.3333333333334</ele><time>2026-03-24T15:28:57.731Z</time></trkpt><trkpt lat="38.1239017" lon="14.8599333"><ele>683.1666666666667</ele><time>2026-03-24T15:28:59.732Z</time></trkpt><trkpt lat="38.1238317" lon="14.85997"><ele>682.0</ele><time>2026-03-24T15:29:00.731Z</time></trkpt><trkpt lat="38.1237333" lon="14.8599583"><ele>682.0</ele><time>2026-03-24T15:29:01.731Z</time></trkpt><trkpt lat="38.12363" lon="14.8599233"><ele>682.0</ele><time>2026-03-24T15:29:02.731Z</time></trkpt><trkpt lat="38.1235067" lon="14.8598617"><ele>682.0</ele><time>2026-03-24T15:29:03.731Z</time></trkpt><trkpt lat="38.1234" lon="14.859805"><ele>682.0</ele><time>2026-03-24T15:29:04.732Z</time></trkpt><trkpt lat="38.1232917" lon="14.8597583"><ele>683.0</ele><time>2026-03-24T15:29:05.731Z</time></trkpt><trkpt lat="38.1231967" lon="14.8597067"><ele>684.0</ele><time>2026-03-24T15:29:06.731Z</time></trkpt><trkpt lat="38.1231033" lon="14.8596567"><ele>685.0</ele><time>2026-03-24T15:29:07.731Z</time></trkpt><trkpt lat="38.123" lon="14.8596167"><ele>686.0</ele><time>2026-03-24T15:29:08.732Z</time></trkpt><trkpt lat="38.1228967" lon="14.8595617"><ele>687.0</ele><time>2026-03-24T15:29:09.731Z</time></trkpt><trkpt lat="38.122795" lon="14.8595017"><ele>687.0</ele><time>2026-03-24T15:29:10.731Z</time></trkpt><trkpt lat="38.1227" lon="14.859435"><ele>687.0</ele><time>2026-03-24T15:29:11.731Z</time></trkpt><trkpt lat="38.1225983" lon="14.8593733"><ele>687.0</ele><time>2026-03-24T15:29:12.731Z</time></trkpt><trkpt lat="38.1224983" lon="14.8593333"><ele>687.0</ele><time>2026-03-24T15:29:13.732Z</time></trkpt><trkpt lat="38.1224017" lon="14.8593"><ele>687.0</ele><time>2026-03-24T15:29:14.732Z</time></trkpt><trkpt lat="38.12231" lon="14.8592717"><ele>692.0</ele><time>2026-03-24T15:29:15.731Z</time></trkpt><trkpt lat="38.1222233" lon="14.85923"><ele>697.0</ele><time>2026-03-24T15:29:16.731Z</time></trkpt><trkpt lat="38.1221467" lon="14.8591583"><ele>702.0</ele><time>2026-03-24T15:29:17.731Z</time></trkpt><trkpt lat="38.1220767" lon="14.859075"><ele>707.0</ele><time>2026-03-24T15:29:18.732Z</time></trkpt><trkpt lat="38.1219867" lon="14.8589083"><ele>712.0</ele><time>2026-03-24T15:29:20.732Z</time></trkpt><trkpt lat="38.121945" lon="14.8588433"><ele>712.0</ele><time>2026-03-24T15:29:21.731Z</time></trkpt><trkpt lat="38.1218283" lon="14.8587567"><ele>712.0</ele><time>2026-03-24T15:29:23.732Z</time></trkpt><trkpt lat="38.1217467" lon="14.8587433"><ele>712.0</ele><time>2026-03-24T15:29:24.731Z</time></trkpt><trkpt lat="38.1216717" lon="14.858745"><ele>712.0</ele><time>2026-03-24T15:29:25.731Z</time></trkpt><trkpt lat="38.121565" lon="14.85876"><ele>712.0</ele><time>2026-03-24T15:29:27.732Z</time></trkpt><trkpt lat="38.12148" lon="14.85878"><ele>712.0</ele><time>2026-03-24T15:29:29.732Z</time></trkpt><trkpt lat="38.12138" lon="14.8588183"><ele>712.0</ele><time>2026-03-24T15:29:31.732Z</time></trkpt><trkpt lat="38.1212267" lon="14.8589"><ele>712.0</ele><time>2026-03-24T15:29:33.732Z</time></trkpt><trkpt lat="38.1211117" lon="14.8589333"><ele>712.0</ele><time>2026-03-24T15:29:34.731Z</time></trkpt><trkpt lat="38.1210117" lon="14.8589517"><ele>712.0</ele><time>2026-03-24T15:29:35.732Z</time></trkpt><trkpt lat="38.1209183" lon="14.8589717"><ele>712.0</ele><time>2026-03-24T15:29:36.731Z</time></trkpt><trkpt lat="38.120855" lon="14.8590183"><ele>712.0</ele><time>2026-03-24T15:29:37.731Z</time></trkpt><trkpt lat="38.1208117" lon="14.85909"><ele>712.0</ele><time>2026-03-24T15:29:38.732Z</time></trkpt><trkpt lat="38.1207867" lon="14.8591767"><ele>712.0</ele><time>2026-03-24T15:29:39.732Z</time></trkpt><trkpt lat="38.1207667" lon="14.8592683"><ele>712.0</ele><time>2026-03-24T15:29:40.732Z</time></trkpt><trkpt lat="38.1207333" lon="14.859365"><ele>712.0</ele><time>2026-03-24T15:29:41.731Z</time></trkpt><trkpt lat="38.1206817" lon="14.859455"><ele>712.0</ele><time>2026-03-24T15:29:42.732Z</time></trkpt><trkpt lat="38.1206" lon="14.8595"><ele>712.0</ele><time>2026-03-24T15:29:43.732Z</time></trkpt><trkpt lat="38.1204867" lon="14.8595183"><ele>712.0</ele><time>2026-03-24T15:29:44.731Z</time></trkpt><trkpt lat="38.120365" lon="14.85951"><ele>712.0</ele><time>2026-03-24T15:29:45.732Z</time></trkpt><trkpt lat="38.1202517" lon="14.8595133"><ele>712.0</ele><time>2026-03-24T15:29:46.732Z</time></trkpt><trkpt lat="38.1201517" lon="14.859515"><ele>712.0</ele><time>2026-03-24T15:29:47.732Z</time></trkpt><trkpt lat="38.12006" lon="14.8594983"><ele>712.0</ele><time>2026-03-24T15:29:48.732Z</time></trkpt><trkpt lat="38.1199767" lon="14.85946"><ele>712.0</ele><time>2026-03-24T15:29:49.731Z</time></trkpt><trkpt lat="38.1199017" lon="14.8593917"><ele>712.0</ele><time>2026-03-24T15:29:50.732Z</time></trkpt><trkpt lat="38.1198467" lon="14.85931"><ele>710.5</ele><time>2026-03-24T15:29:51.732Z</time></trkpt><trkpt lat="38.119795" lon="14.8592367"><ele>709.0</ele><time>2026-03-24T15:29:52.732Z</time></trkpt><trkpt lat="38.1197433" lon="14.8591867"><ele>707.5</ele><time>2026-03-24T15:29:53.732Z</time></trkpt><trkpt lat="38.1196217" lon="14.85915"><ele>706.0</ele><time>2026-03-24T15:29:55.732Z</time></trkpt><trkpt lat="38.1195583" lon="14.8591583"><ele>704.5</ele><time>2026-03-24T15:29:56.732Z</time></trkpt><trkpt lat="38.1194433" lon="14.85919"><ele>703.0</ele><time>2026-03-24T15:29:58.732Z</time></trkpt><trkpt lat="38.1193267" lon="14.8592683"><ele>704.6666666666667</ele><time>2026-03-24T15:30:00.731Z</time></trkpt><trkpt lat="38.1192667" lon="14.8593233"><ele>706.3333333333334</ele><time>2026-03-24T15:30:01.732Z</time></trkpt><trkpt lat="38.1192083" lon="14.8593933"><ele>708.0</ele><time>2026-03-24T15:30:02.732Z</time></trkpt><trkpt lat="38.1191617" lon="14.85946"><ele>709.6666666666666</ele><time>2026-03-24T15:30:03.732Z</time></trkpt><trkpt lat="38.1190983" lon="14.859575"><ele>711.3333333333333</ele><time>2026-03-24T15:30:05.732Z</time></trkpt><trkpt lat="38.1190633" lon="14.8594483"><ele>713.0</ele><time>2026-03-24T15:30:11.732Z</time></trkpt><trkpt lat="38.1190867" lon="14.8593633"><ele>711.0</ele><time>2026-03-24T15:30:12.732Z</time></trkpt><trkpt lat="38.1191133" lon="14.85928"><ele>709.0</ele><time>2026-03-24T15:30:13.732Z</time></trkpt><trkpt lat="38.119165" lon="14.8591467"><ele>707.0</ele><time>2026-03-24T15:30:15.732Z</time></trkpt><trkpt lat="38.1192133" lon="14.8590583"><ele>705.0</ele><time>2026-03-24T15:30:17.732Z</time></trkpt><trkpt lat="38.11928" lon="14.85897"><ele>703.0</ele><time>2026-03-24T15:30:19.732Z</time></trkpt><trkpt lat="38.1193533" lon="14.8588733"><ele>703.0</ele><time>2026-03-24T15:30:21.732Z</time></trkpt><trkpt lat="38.1194517" lon="14.8587867"><ele>703.0</ele><time>2026-03-24T15:30:23.732Z</time></trkpt><trkpt lat="38.11956" lon="14.8587167"><ele>703.0</ele><time>2026-03-24T15:30:25.731Z</time></trkpt><trkpt lat="38.1196133" lon="14.8586717"><ele>703.0</ele><time>2026-03-24T15:30:26.731Z</time></trkpt><trkpt lat="38.1196583" lon="14.8585633"><ele>703.0</ele><time>2026-03-24T15:30:28.731Z</time></trkpt><trkpt lat="38.119685" lon="14.8584583"><ele>699.0</ele><time>2026-03-24T15:30:30.732Z</time></trkpt><trkpt lat="38.1196967" lon="14.8583583"><ele>695.0</ele><time>2026-03-24T15:30:32.732Z</time></trkpt><trkpt lat="38.119715" lon="14.858255"><ele>691.0</ele><time>2026-03-24T15:30:34.732Z</time></trkpt><trkpt lat="38.1197483" lon="14.8581517"><ele>687.0</ele><time>2026-03-24T15:30:36.732Z</time></trkpt><trkpt lat="38.1197683" lon="14.8580417"><ele>683.0</ele><time>2026-03-24T15:30:38.732Z</time></trkpt><trkpt lat="38.119765" lon="14.8579317"><ele>679.0</ele><time>2026-03-24T15:30:40.732Z</time></trkpt><trkpt lat="38.1197517" lon="14.8578167"><ele>679.0</ele><time>2026-03-24T15:30:42.731Z</time></trkpt><trkpt lat="38.1197467" lon="14.8576967"><ele>679.0</ele><time>2026-03-24T15:30:44.731Z</time></trkpt><trkpt lat="38.1197467" lon="14.8575783"><ele>679.0</ele><time>2026-03-24T15:30:46.732Z</time></trkpt><trkpt lat="38.1197483" lon="14.8574783"><ele>679.0</ele><time>2026-03-24T15:30:48.732Z</time></trkpt><trkpt lat="38.11977" lon="14.8573967"><ele>679.0</ele><time>2026-03-24T15:30:50.732Z</time></trkpt><trkpt lat="38.1196933" lon="14.8574183"><ele>679.0</ele><time>2026-03-24T15:30:56.731Z</time></trkpt><trkpt lat="38.1196833" lon="14.8575067"><ele>679.0</ele><time>2026-03-24T15:30:57.732Z</time></trkpt><trkpt lat="38.11968" lon="14.8576333"><ele>679.0</ele><time>2026-03-24T15:30:58.731Z</time></trkpt><trkpt lat="38.119685" lon="14.8577667"><ele>679.0</ele><time>2026-03-24T15:30:59.732Z</time></trkpt><trkpt lat="38.119685" lon="14.8578867"><ele>679.0</ele><time>2026-03-24T15:31:00.732Z</time></trkpt><trkpt lat="38.1197" lon="14.8579983"><ele>679.0</ele><time>2026-03-24T15:31:01.732Z</time></trkpt><trkpt lat="38.11971" lon="14.85809"><ele>679.0</ele><time>2026-03-24T15:31:02.732Z</time></trkpt><trkpt lat="38.119715" lon="14.8581833"><ele>679.0</ele><time>2026-03-24T15:31:03.731Z</time></trkpt><trkpt lat="38.1196983" lon="14.85827"><ele>679.0</ele><time>2026-03-24T15:31:04.731Z</time></trkpt><trkpt lat="38.11968" lon="14.85835"><ele>679.0</ele><time>2026-03-24T15:31:05.732Z</time></trkpt><trkpt lat="38.11966" lon="14.85846"><ele>679.0</ele><time>2026-03-24T15:31:07.732Z</time></trkpt><trkpt lat="38.11976" lon="14.8583833"><ele>679.0</ele><time>2026-03-24T15:31:15.731Z</time></trkpt><trkpt lat="38.119815" lon="14.858335"><ele>679.0</ele><time>2026-03-24T15:31:16.732Z</time></trkpt><trkpt lat="38.119885" lon="14.8582983"><ele>679.0</ele><time>2026-03-24T15:31:17.732Z</time></trkpt><trkpt lat="38.1199533" lon="14.85827"><ele>679.0</ele><time>2026-03-24T15:31:18.732Z</time></trkpt><trkpt lat="38.1200267" lon="14.8582533"><ele>679.0</ele><time>2026-03-24T15:31:19.732Z</time></trkpt><trkpt lat="38.1200917" lon="14.8582433"><ele>679.0</ele><time>2026-03-24T15:31:20.732Z</time></trkpt><trkpt lat="38.1201683" lon="14.8582267"><ele>679.0</ele><time>2026-03-24T15:31:21.731Z</time></trkpt><trkpt lat="38.1202317" lon="14.858195"><ele>679.0</ele><time>2026-03-24T15:31:22.731Z</time></trkpt><trkpt lat="38.1202983" lon="14.8581467"><ele>680.1666666666667</ele><time>2026-03-24T15:31:23.732Z</time></trkpt><trkpt lat="38.1203617" lon="14.8580817"><ele>681.3333333333334</ele><time>2026-03-24T15:31:24.731Z</time></trkpt><trkpt lat="38.12042" lon="14.858005"><ele>682.5</ele><time>2026-03-24T15:31:25.731Z</time></trkpt><trkpt lat="38.1204683" lon="14.8579483"><ele>683.6666666666666</ele><time>2026-03-24T15:31:26.731Z</time></trkpt><trkpt lat="38.1205567" lon="14.8578683"><ele>684.8333333333333</ele><time>2026-03-24T15:31:28.732Z</time></trkpt><trkpt lat="38.1206333" lon="14.8577833"><ele>686.0</ele><time>2026-03-24T15:31:30.732Z</time></trkpt><trkpt lat="38.1207383" lon="14.85772"><ele>688.0</ele><time>2026-03-24T15:31:32.732Z</time></trkpt><trkpt lat="38.12084" lon="14.8576933"><ele>690.0</ele><time>2026-03-24T15:31:34.732Z</time></trkpt><trkpt lat="38.1209167" lon="14.8577117"><ele>692.0</ele><time>2026-03-24T15:31:36.732Z</time></trkpt><trkpt lat="38.12101" lon="14.85778"><ele>694.0</ele><time>2026-03-24T15:31:38.732Z</time></trkpt><trkpt lat="38.121125" lon="14.8577767"><ele>696.0</ele><time>2026-03-24T15:31:40.731Z</time></trkpt><trkpt lat="38.12121" lon="14.85778"><ele>696.0</ele><time>2026-03-24T15:31:42.732Z</time></trkpt><trkpt lat="38.1212033" lon="14.85788"><ele>696.0</ele><time>2026-03-24T15:31:45.732Z</time></trkpt><trkpt lat="38.1211517" lon="14.857935"><ele>696.0</ele><time>2026-03-24T15:31:46.731Z</time></trkpt><trkpt lat="38.1210967" lon="14.8579867"><ele>696.0</ele><time>2026-03-24T15:31:47.731Z</time></trkpt><trkpt lat="38.12101" lon="14.8580683"><ele>696.0</ele><time>2026-03-24T15:31:49.731Z</time></trkpt><trkpt lat="38.120915" lon="14.8581083"><ele>696.0</ele><time>2026-03-24T15:31:51.732Z</time></trkpt><trkpt lat="38.1207967" lon="14.858175"><ele>696.0</ele><time>2026-03-24T15:31:53.732Z</time></trkpt><trkpt lat="38.1207383" lon="14.8582133"><ele>696.0</ele><time>2026-03-24T15:31:54.731Z</time></trkpt><trkpt lat="38.1206583" lon="14.8582667"><ele>696.0</ele><time>2026-03-24T15:31:56.732Z</time></trkpt><trkpt lat="38.1205833" lon="14.8583017"><ele>696.0</ele><time>2026-03-24T15:31:58.732Z</time></trkpt><trkpt lat="38.1205283" lon="14.858345"><ele>696.0</ele><time>2026-03-24T15:32:00.732Z</time></trkpt><trkpt lat="38.1204783" lon="14.85844"><ele>696.0</ele><time>2026-03-24T15:32:03.732Z</time></trkpt><trkpt lat="38.120455" lon="14.85853"><ele>696.0</ele><time>2026-03-24T15:32:05.732Z</time></trkpt><trkpt lat="38.120515" lon="14.85845"><ele>696.0</ele><time>2026-03-24T15:32:12.732Z</time></trkpt><trkpt lat="38.1205617" lon="14.8583383"><ele>696.0</ele><time>2026-03-24T15:32:14.731Z</time></trkpt><trkpt lat="38.12061" lon="14.8582833"><ele>696.0</ele><time>2026-03-24T15:32:16.732Z</time></trkpt><trkpt lat="38.1207083" lon="14.85826"><ele>696.0</ele><time>2026-03-24T15:32:19.731Z</time></trkpt><trkpt lat="38.1208067" lon="14.8582367"><ele>696.0</ele><time>2026-03-24T15:32:21.731Z</time></trkpt><trkpt lat="38.12093" lon="14.8582767"><ele>696.0</ele><time>2026-03-24T15:32:23.731Z</time></trkpt><trkpt lat="38.1209967" lon="14.8583183"><ele>696.0</ele><time>2026-03-24T15:32:24.731Z</time></trkpt><trkpt lat="38.121065" lon="14.8583683"><ele>696.0</ele><time>2026-03-24T15:32:25.732Z</time></trkpt><trkpt lat="38.1211317" lon="14.8584167"><ele>696.0</ele><time>2026-03-24T15:32:26.732Z</time></trkpt><trkpt lat="38.12121" lon="14.8584783"><ele>696.0</ele><time>2026-03-24T15:32:27.731Z</time></trkpt><trkpt lat="38.1212817" lon="14.85853"><ele>698.2857142857142</ele><time>2026-03-24T15:32:28.731Z</time></trkpt><trkpt lat="38.121335" lon="14.858575"><ele>700.5714285714286</ele><time>2026-03-24T15:32:29.732Z</time></trkpt><trkpt lat="38.1213733" lon="14.8586683"><ele>702.8571428571429</ele><time>2026-03-24T15:32:31.732Z</time></trkpt><trkpt lat="38.1214533" lon="14.8586917"><ele>705.1428571428571</ele><time>2026-03-24T15:32:34.731Z</time></trkpt><trkpt lat="38.1215233" lon="14.85869"><ele>707.4285714285714</ele><time>2026-03-24T15:32:36.732Z</time></trkpt><trkpt lat="38.1215983" lon="14.8587083"><ele>709.7142857142857</ele><time>2026-03-24T15:32:38.732Z</time></trkpt><trkpt lat="38.12167" lon="14.858705"><ele>712.0</ele><time>2026-03-24T15:32:41.731Z</time></trkpt><trkpt lat="38.1217367" lon="14.8587"><ele>712.0</ele><time>2026-03-24T15:32:44.732Z</time></trkpt><trkpt lat="38.121815" lon="14.8587333"><ele>712.0</ele><time>2026-03-24T15:32:47.732Z</time></trkpt><trkpt lat="38.1219017" lon="14.8587767"><ele>712.0</ele><time>2026-03-24T15:32:50.731Z</time></trkpt><trkpt lat="38.1219733" lon="14.8588717"><ele>712.0</ele><time>2026-03-24T15:32:53.731Z</time></trkpt><trkpt lat="38.1220217" lon="14.8589733"><ele>712.0</ele><time>2026-03-24T15:32:55.732Z</time></trkpt><trkpt lat="38.122075" lon="14.8590767"><ele>712.0</ele><time>2026-03-24T15:32:57.732Z</time></trkpt><trkpt lat="38.1221433" lon="14.8591883"><ele>712.0</ele><time>2026-03-24T15:32:59.732Z</time></trkpt><trkpt lat="38.1222433" lon="14.8592533"><ele>712.0</ele><time>2026-03-24T15:33:01.732Z</time></trkpt><trkpt lat="38.12236" lon="14.8592783"><ele>712.0</ele><time>2026-03-24T15:33:03.732Z</time></trkpt><trkpt lat="38.122425" lon="14.8593017"><ele>712.0</ele><time>2026-03-24T15:33:04.731Z</time></trkpt><trkpt lat="38.122485" lon="14.8593267"><ele>707.0</ele><time>2026-03-24T15:33:05.731Z</time></trkpt><trkpt lat="38.122595" lon="14.8593767"><ele>702.0</ele><time>2026-03-24T15:33:07.732Z</time></trkpt><trkpt lat="38.1226967" lon="14.85944"><ele>697.0</ele><time>2026-03-24T15:33:09.731Z</time></trkpt><trkpt lat="38.1227633" lon="14.8594867"><ele>692.0</ele><time>2026-03-24T15:33:10.731Z</time></trkpt><trkpt lat="38.1228467" lon="14.8595533"><ele>687.0</ele><time>2026-03-24T15:33:11.732Z</time></trkpt><trkpt lat="38.1229567" lon="14.8596133"><ele>687.0</ele><time>2026-03-24T15:33:12.732Z</time></trkpt><trkpt lat="38.1230667" lon="14.8596617"><ele>687.0</ele><time>2026-03-24T15:33:13.732Z</time></trkpt><trkpt lat="38.1231667" lon="14.8597067"><ele>687.0</ele><time>2026-03-24T15:33:14.732Z</time></trkpt><trkpt lat="38.12326" lon="14.859755"><ele>687.0</ele><time>2026-03-24T15:33:15.732Z</time></trkpt><trkpt lat="38.123355" lon="14.8598033"><ele>687.0</ele><time>2026-03-24T15:33:16.732Z</time></trkpt><trkpt lat="38.1234583" lon="14.85985"><ele>686.0</ele><time>2026-03-24T15:33:17.732Z</time></trkpt><trkpt lat="38.1235583" lon="14.8598917"><ele>685.0</ele><time>2026-03-24T15:33:18.731Z</time></trkpt><trkpt lat="38.12366" lon="14.85993"><ele>684.0</ele><time>2026-03-24T15:33:19.731Z</time></trkpt><trkpt lat="38.1237467" lon="14.8599467"><ele>683.0</ele><time>2026-03-24T15:33:20.731Z</time></trkpt><trkpt lat="38.1238317" lon="14.859935"><ele>682.0</ele><time>2026-03-24T15:33:21.732Z</time></trkpt><trkpt lat="38.12391" lon="14.8598917"><ele>682.0</ele><time>2026-03-24T15:33:22.731Z</time></trkpt><trkpt lat="38.1239817" lon="14.8598283"><ele>682.0</ele><time>2026-03-24T15:33:23.732Z</time></trkpt><trkpt lat="38.1240433" lon="14.8597483"><ele>682.0</ele><time>2026-03-24T15:33:24.731Z</time></trkpt><trkpt lat="38.1241033" lon="14.8596583"><ele>682.0</ele><time>2026-03-24T15:33:25.731Z</time></trkpt><trkpt lat="38.1241583" lon="14.8595717"><ele>682.0</ele><time>2026-03-24T15:33:26.731Z</time></trkpt><trkpt lat="38.1242" lon="14.8594833"><ele>682.0</ele><time>2026-03-24T15:33:27.731Z</time></trkpt><trkpt lat="38.124245" lon="14.8594017"><ele>682.0</ele><time>2026-03-24T15:33:28.731Z</time></trkpt><trkpt lat="38.124295" lon="14.85934"><ele>682.0</ele><time>2026-03-24T15:33:29.732Z</time></trkpt><trkpt lat="38.1243517" lon="14.8592883"><ele>682.0</ele><time>2026-03-24T15:33:30.732Z</time></trkpt><trkpt lat="38.1244167" lon="14.8592567"><ele>682.0</ele><time>2026-03-24T15:33:31.732Z</time></trkpt><trkpt lat="38.1245017" lon="14.859235"><ele>682.0</ele><time>2026-03-24T15:33:32.731Z</time></trkpt><trkpt lat="38.1246033" lon="14.859235"><ele>682.0</ele><time>2026-03-24T15:33:33.731Z</time></trkpt><trkpt lat="38.1247067" lon="14.859235"><ele>682.6666666666667</ele><time>2026-03-24T15:33:34.731Z</time></trkpt><trkpt lat="38.1248017" lon="14.8592367"><ele>683.3333333333334</ele><time>2026-03-24T15:33:35.732Z</time></trkpt><trkpt lat="38.1248783" lon="14.8592217"><ele>684.0</ele><time>2026-03-24T15:33:36.732Z</time></trkpt><trkpt lat="38.1249533" lon="14.8591917"><ele>684.6666666666666</ele><time>2026-03-24T15:33:37.732Z</time></trkpt><trkpt lat="38.1250283" lon="14.859145"><ele>685.3333333333333</ele><time>2026-03-24T15:33:38.731Z</time></trkpt><trkpt lat="38.1250917" lon="14.8590867"><ele>686.0</ele><time>2026-03-24T15:33:39.732Z</time></trkpt><trkpt lat="38.12516" lon="14.859025"><ele>686.0</ele><time>2026-03-24T15:33:40.731Z</time></trkpt><trkpt lat="38.1252317" lon="14.858965"><ele>686.0</ele><time>2026-03-24T15:33:41.732Z</time></trkpt><trkpt lat="38.1253017" lon="14.8589117"><ele>686.0</ele><time>2026-03-24T15:33:42.732Z</time></trkpt><trkpt lat="38.1253683" lon="14.858855"><ele>686.0</ele><time>2026-03-24T15:33:43.733Z</time></trkpt><trkpt lat="38.1254333" lon="14.85879"><ele>686.0</ele><time>2026-03-24T15:33:44.732Z</time></trkpt><trkpt lat="38.125515" lon="14.8587317"><ele>686.0</ele><time>2026-03-24T15:33:45.732Z</time></trkpt><trkpt lat="38.1256" lon="14.858665"><ele>686.0</ele><time>2026-03-24T15:33:46.732Z</time></trkpt><trkpt lat="38.1256967" lon="14.8586117"><ele>686.0</ele><time>2026-03-24T15:33:47.732Z</time></trkpt><trkpt lat="38.12579" lon="14.8585633"><ele>686.0</ele><time>2026-03-24T15:33:48.733Z</time></trkpt><trkpt lat="38.1258717" lon="14.858505"><ele>686.0</ele><time>2026-03-24T15:33:49.732Z</time></trkpt><trkpt lat="38.1259433" lon="14.8584617"><ele>686.0</ele><time>2026-03-24T15:33:50.732Z</time></trkpt><trkpt lat="38.1260167" lon="14.8584167"><ele>685.5</ele><time>2026-03-24T15:33:51.733Z</time></trkpt><trkpt lat="38.1260883" lon="14.8583733"><ele>685.0</ele><time>2026-03-24T15:33:52.733Z</time></trkpt><trkpt lat="38.1261617" lon="14.85834"><ele>684.5</ele><time>2026-03-24T15:33:53.733Z</time></trkpt><trkpt lat="38.126225" lon="14.8583133"><ele>684.0</ele><time>2026-03-24T15:33:54.733Z</time></trkpt><trkpt lat="38.1262883" lon="14.8582783"><ele>683.5</ele><time>2026-03-24T15:33:55.733Z</time></trkpt><trkpt lat="38.126395" lon="14.858215"><ele>683.0</ele><time>2026-03-24T15:33:57.733Z</time></trkpt><trkpt lat="38.1264567" lon="14.85813"><ele>683.0</ele><time>2026-03-24T15:33:59.733Z</time></trkpt><trkpt lat="38.1264767" lon="14.8579917"><ele>683.0</ele><time>2026-03-24T15:34:01.733Z</time></trkpt><trkpt lat="38.12646" lon="14.8579067"><ele>683.0</ele><time>2026-03-24T15:34:02.733Z</time></trkpt><trkpt lat="38.1264517" lon="14.8578183"><ele>683.0</ele><time>2026-03-24T15:34:03.733Z</time></trkpt><trkpt lat="38.126445" lon="14.8577117"><ele>683.0</ele><time>2026-03-24T15:34:04.732Z</time></trkpt><trkpt lat="38.1264367" lon="14.8575917"><ele>683.0</ele><time>2026-03-24T15:34:05.732Z</time></trkpt><trkpt lat="38.1264333" lon="14.8574583"><ele>681.6666666666666</ele><time>2026-03-24T15:34:06.732Z</time></trkpt><trkpt lat="38.12643" lon="14.857335"><ele>680.3333333333333</ele><time>2026-03-24T15:34:07.733Z</time></trkpt><trkpt lat="38.12643" lon="14.85722"><ele>679.0</ele><time>2026-03-24T15:34:08.733Z</time></trkpt><trkpt lat="38.12642" lon="14.85712"><ele>677.6666666666666</ele><time>2026-03-24T15:34:09.733Z</time></trkpt><trkpt lat="38.1264033" lon="14.8570133"><ele>676.3333333333334</ele><time>2026-03-24T15:34:10.732Z</time></trkpt><trkpt lat="38.1263933" lon="14.85691"><ele>675.0</ele><time>2026-03-24T15:34:11.733Z</time></trkpt><trkpt lat="38.1263867" lon="14.8568083"><ele>674.2857142857142</ele><time>2026-03-24T15:34:12.732Z</time></trkpt><trkpt lat="38.1263767" lon="14.8567167"><ele>673.5714285714286</ele><time>2026-03-24T15:34:13.733Z</time></trkpt><trkpt lat="38.12636" lon="14.856635"><ele>672.8571428571429</ele><time>2026-03-24T15:34:14.733Z</time></trkpt><trkpt lat="38.1263417" lon="14.8565483"><ele>672.1428571428571</ele><time>2026-03-24T15:34:15.733Z</time></trkpt><trkpt lat="38.12633" lon="14.856465"><ele>671.4285714285714</ele><time>2026-03-24T15:34:16.732Z</time></trkpt><trkpt lat="38.1263267" lon="14.856375"><ele>670.7142857142857</ele><time>2026-03-24T15:34:17.733Z</time></trkpt><trkpt lat="38.1263217" lon="14.8562817"><ele>670.0</ele><time>2026-03-24T15:34:18.732Z</time></trkpt><trkpt lat="38.126325" lon="14.8561867"><ele>670.0</ele><time>2026-03-24T15:34:19.733Z</time></trkpt><trkpt lat="38.1263267" lon="14.8560883"><ele>670.0</ele><time>2026-03-24T15:34:20.733Z</time></trkpt><trkpt lat="38.126315" lon="14.8559933"><ele>670.0</ele><time>2026-03-24T15:34:21.733Z</time></trkpt><trkpt lat="38.1262917" lon="14.8559"><ele>670.0</ele><time>2026-03-24T15:34:22.733Z</time></trkpt><trkpt lat="38.1262683" lon="14.8557983"><ele>670.0</ele><time>2026-03-24T15:34:23.733Z</time></trkpt><trkpt lat="38.1262533" lon="14.8556967"><ele>670.0</ele><time>2026-03-24T15:34:24.732Z</time></trkpt><trkpt lat="38.12624" lon="14.8555883"><ele>668.8333333333334</ele><time>2026-03-24T15:34:25.733Z</time></trkpt><trkpt lat="38.12623" lon="14.8554883"><ele>667.6666666666667</ele><time>2026-03-24T15:34:26.733Z</time></trkpt><trkpt lat="38.126225" lon="14.8553883"><ele>666.5</ele><time>2026-03-24T15:34:27.732Z</time></trkpt><trkpt lat="38.1262367" lon="14.85528"><ele>665.3333333333334</ele><time>2026-03-24T15:34:28.733Z</time></trkpt><trkpt lat="38.1262583" lon="14.8551767"><ele>664.1666666666666</ele><time>2026-03-24T15:34:29.732Z</time></trkpt><trkpt lat="38.1262783" lon="14.8550667"><ele>663.0</ele><time>2026-03-24T15:34:30.733Z</time></trkpt><trkpt lat="38.1263033" lon="14.8549717"><ele>662.4285714285713</ele><time>2026-03-24T15:34:31.732Z</time></trkpt><trkpt lat="38.12634" lon="14.854895"><ele>661.8571428571429</ele><time>2026-03-24T15:34:32.733Z</time></trkpt><trkpt lat="38.12638" lon="14.8547933"><ele>661.2857142857142</ele><time>2026-03-24T15:34:34.733Z</time></trkpt><trkpt lat="38.1263317" lon="14.85474"><ele>660.7142857142857</ele><time>2026-03-24T15:34:36.733Z</time></trkpt><trkpt lat="38.1262683" lon="14.8547083"><ele>660.1428571428571</ele><time>2026-03-24T15:34:37.732Z</time></trkpt><trkpt lat="38.126205" lon="14.8546717"><ele>659.5714285714286</ele><time>2026-03-24T15:34:38.732Z</time></trkpt><trkpt lat="38.1261383" lon="14.854615"><ele>659.0</ele><time>2026-03-24T15:34:39.732Z</time></trkpt><trkpt lat="38.126075" lon="14.8545667"><ele>659.0</ele><time>2026-03-24T15:34:40.733Z</time></trkpt><trkpt lat="38.126005" lon="14.8545317"><ele>659.0</ele><time>2026-03-24T15:34:41.733Z</time></trkpt><trkpt lat="38.1258983" lon="14.85453"><ele>659.0</ele><time>2026-03-24T15:34:43.732Z</time></trkpt><trkpt lat="38.1258333" lon="14.8546483"><ele>659.0</ele><time>2026-03-24T15:34:45.733Z</time></trkpt><trkpt lat="38.12575" lon="14.854745"><ele>659.0</ele><time>2026-03-24T15:34:47.733Z</time></trkpt><trkpt lat="38.12571" lon="14.8548333"><ele>659.0</ele><time>2026-03-24T15:34:49.733Z</time></trkpt><trkpt lat="38.1257367" lon="14.85491"><ele>659.0</ele><time>2026-03-24T15:34:51.732Z</time></trkpt><trkpt lat="38.1257283" lon="14.8549917"><ele>659.0</ele><time>2026-03-24T15:34:54.733Z</time></trkpt><trkpt lat="38.1257633" lon="14.85488"><ele>659.0</ele><time>2026-03-24T15:34:56.732Z</time></trkpt><trkpt lat="38.12581" lon="14.8547967"><ele>659.0</ele><time>2026-03-24T15:34:57.733Z</time></trkpt><trkpt lat="38.1258533" lon="14.8547083"><ele>659.0</ele><time>2026-03-24T15:34:58.733Z</time></trkpt><trkpt lat="38.125895" lon="14.8546267"><ele>659.0</ele><time>2026-03-24T15:34:59.733Z</time></trkpt><trkpt lat="38.1259367" lon="14.8545567"><ele>659.0</ele><time>2026-03-24T15:35:00.732Z</time></trkpt><trkpt lat="38.1259683" lon="14.8544867"><ele>659.0</ele><time>2026-03-24T15:35:01.733Z</time></trkpt><trkpt lat="38.126" lon="14.8544117"><ele>659.0</ele><time>2026-03-24T15:35:02.733Z</time></trkpt><trkpt lat="38.12604" lon="14.8542683"><ele>659.0</ele><time>2026-03-24T15:35:04.732Z</time></trkpt><trkpt lat="38.1260517" lon="14.8541283"><ele>659.0</ele><time>2026-03-24T15:35:06.732Z</time></trkpt><trkpt lat="38.1260833" lon="14.8540167"><ele>657.8000000000001</ele><time>2026-03-24T15:35:08.732Z</time></trkpt><trkpt lat="38.1261417" lon="14.8539483"><ele>656.6</ele><time>2026-03-24T15:35:10.732Z</time></trkpt><trkpt lat="38.1262433" lon="14.85396"><ele>655.4</ele><time>2026-03-24T15:35:12.733Z</time></trkpt><trkpt lat="38.126345" lon="14.853965"><ele>654.2</ele><time>2026-03-24T15:35:14.732Z</time></trkpt><trkpt lat="38.1264133" lon="14.8539817"><ele>653.0</ele><time>2026-03-24T15:35:15.733Z</time></trkpt><trkpt lat="38.1265067" lon="14.8540333"><ele>653.0</ele><time>2026-03-24T15:35:17.732Z</time></trkpt><trkpt lat="38.1265817" lon="14.8540217"><ele>653.0</ele><time>2026-03-24T15:35:19.732Z</time></trkpt><trkpt lat="38.1266633" lon="14.8538683"><ele>653.0</ele><time>2026-03-24T15:35:21.733Z</time></trkpt><trkpt lat="38.1266883" lon="14.8537367"><ele>653.0</ele><time>2026-03-24T15:35:22.733Z</time></trkpt><trkpt lat="38.12671" lon="14.85357"><ele>653.25</ele><time>2026-03-24T15:35:23.732Z</time></trkpt><trkpt lat="38.126755" lon="14.8533933"><ele>653.5</ele><time>2026-03-24T15:35:24.733Z</time></trkpt><trkpt lat="38.1268017" lon="14.8532183"><ele>653.75</ele><time>2026-03-24T15:35:25.732Z</time></trkpt><trkpt lat="38.126855" lon="14.85307"><ele>654.0</ele><time>2026-03-24T15:35:26.733Z</time></trkpt><trkpt lat="38.1268867" lon="14.8529483"><ele>654.0</ele><time>2026-03-24T15:35:27.733Z</time></trkpt><trkpt lat="38.1269133" lon="14.8528383"><ele>654.0</ele><time>2026-03-24T15:35:28.732Z</time></trkpt><trkpt lat="38.1269517" lon="14.8527233"><ele>654.0</ele><time>2026-03-24T15:35:29.733Z</time></trkpt><trkpt lat="38.1269867" lon="14.8525983"><ele>654.0</ele><time>2026-03-24T15:35:30.733Z</time></trkpt><trkpt lat="38.1270117" lon="14.852465"><ele>654.0</ele><time>2026-03-24T15:35:31.733Z</time></trkpt><trkpt lat="38.1270483" lon="14.8523433"><ele>654.5</ele><time>2026-03-24T15:35:32.732Z</time></trkpt><trkpt lat="38.1271017" lon="14.8522283"><ele>655.0</ele><time>2026-03-24T15:35:33.733Z</time></trkpt><trkpt lat="38.12718" lon="14.8521267"><ele>655.5</ele><time>2026-03-24T15:35:34.733Z</time></trkpt><trkpt lat="38.1272683" lon="14.8520167"><ele>656.0</ele><time>2026-03-24T15:35:35.732Z</time></trkpt><trkpt lat="38.127355" lon="14.851925"><ele>654.5999999999999</ele><time>2026-03-24T15:35:36.733Z</time></trkpt><trkpt lat="38.12742" lon="14.85184"><ele>653.2</ele><time>2026-03-24T15:35:37.733Z</time></trkpt><trkpt lat="38.1274533" lon="14.85175"><ele>651.8</ele><time>2026-03-24T15:35:38.733Z</time></trkpt><trkpt lat="38.1274667" lon="14.8516433"><ele>650.4000000000001</ele><time>2026-03-24T15:35:39.732Z</time></trkpt><trkpt lat="38.1274617" lon="14.8515267"><ele>649.0</ele><time>2026-03-24T15:35:40.733Z</time></trkpt><trkpt lat="38.1274433" lon="14.851395"><ele>649.0</ele><time>2026-03-24T15:35:41.733Z</time></trkpt><trkpt lat="38.12743" lon="14.8512533"><ele>649.0</ele><time>2026-03-24T15:35:42.733Z</time></trkpt><trkpt lat="38.12742" lon="14.8510983"><ele>649.0</ele><time>2026-03-24T15:35:43.733Z</time></trkpt><trkpt lat="38.127405" lon="14.850955"><ele>649.0</ele><time>2026-03-24T15:35:44.732Z</time></trkpt><trkpt lat="38.1274" lon="14.85083"><ele>649.0</ele><time>2026-03-24T15:35:45.732Z</time></trkpt><trkpt lat="38.1273983" lon="14.850715"><ele>648.8333333333334</ele><time>2026-03-24T15:35:46.733Z</time></trkpt><trkpt lat="38.1274" lon="14.8506117"><ele>648.6666666666667</ele><time>2026-03-24T15:35:47.733Z</time></trkpt><trkpt lat="38.1274067" lon="14.8505167"><ele>648.5</ele><time>2026-03-24T15:35:48.733Z</time></trkpt><trkpt lat="38.12743" lon="14.8504283"><ele>648.3333333333334</ele><time>2026-03-24T15:35:49.733Z</time></trkpt><trkpt lat="38.1274733" lon="14.8503467"><ele>648.1666666666666</ele><time>2026-03-24T15:35:50.732Z</time></trkpt><trkpt lat="38.1275267" lon="14.850255"><ele>648.0</ele><time>2026-03-24T15:35:51.733Z</time></trkpt><trkpt lat="38.1275767" lon="14.8501733"><ele>647.4</ele><time>2026-03-24T15:35:52.733Z</time></trkpt><trkpt lat="38.1276117" lon="14.8501067"><ele>646.8</ele><time>2026-03-24T15:35:53.732Z</time></trkpt><trkpt lat="38.1276833" lon="14.85001"><ele>646.2</ele><time>2026-03-24T15:35:55.732Z</time></trkpt><trkpt lat="38.127765" lon="14.8499533"><ele>645.6</ele><time>2026-03-24T15:35:57.732Z</time></trkpt><trkpt lat="38.12787" lon="14.84993"><ele>645.0</ele><time>2026-03-24T15:35:59.733Z</time></trkpt><trkpt lat="38.1279983" lon="14.8499217"><ele>645.0</ele><time>2026-03-24T15:36:01.733Z</time></trkpt><trkpt lat="38.128065" lon="14.8499217"><ele>645.0</ele><time>2026-03-24T15:36:02.733Z</time></trkpt><trkpt lat="38.1281317" lon="14.849915"><ele>645.0</ele><time>2026-03-24T15:36:03.733Z</time></trkpt><trkpt lat="38.1281933" lon="14.8498933"><ele>645.0</ele><time>2026-03-24T15:36:04.733Z</time></trkpt><trkpt lat="38.1282983" lon="14.8498267"><ele>645.0</ele><time>2026-03-24T15:36:06.733Z</time></trkpt><trkpt lat="38.128385" lon="14.84976"><ele>645.0</ele><time>2026-03-24T15:36:08.733Z</time></trkpt><trkpt lat="38.1284533" lon="14.849705"><ele>643.1666666666666</ele><time>2026-03-24T15:36:10.733Z</time></trkpt><trkpt lat="38.12851" lon="14.8496467"><ele>641.3333333333334</ele><time>2026-03-24T15:36:12.733Z</time></trkpt><trkpt lat="38.1285683" lon="14.8495717"><ele>639.5</ele><time>2026-03-24T15:36:15.733Z</time></trkpt><trkpt lat="38.1286017" lon="14.8494833"><ele>637.6666666666667</ele><time>2026-03-24T15:36:17.732Z</time></trkpt><trkpt lat="38.1286417" lon="14.849395"><ele>635.8333333333334</ele><time>2026-03-24T15:36:19.733Z</time></trkpt><trkpt lat="38.12869" lon="14.8493117"><ele>634.0</ele><time>2026-03-24T15:36:21.733Z</time></trkpt><trkpt lat="38.1287283" lon="14.84922"><ele>631.8</ele><time>2026-03-24T15:36:23.733Z</time></trkpt><trkpt lat="38.12879" lon="14.84913"><ele>629.5999999999999</ele><time>2026-03-24T15:36:25.733Z</time></trkpt><trkpt lat="38.128865" lon="14.8490467"><ele>627.4</ele><time>2026-03-24T15:36:27.733Z</time></trkpt><trkpt lat="38.12895" lon="14.848955"><ele>625.1999999999999</ele><time>2026-03-24T15:36:29.733Z</time></trkpt><trkpt lat="38.1290083" lon="14.8488933"><ele>623.0</ele><time>2026-03-24T15:36:30.733Z</time></trkpt><trkpt lat="38.12907" lon="14.8488483"><ele>621.3333333333333</ele><time>2026-03-24T15:36:31.733Z</time></trkpt><trkpt lat="38.1291167" lon="14.84879"><ele>619.6666666666666</ele><time>2026-03-24T15:36:32.732Z</time></trkpt><trkpt lat="38.1291683" lon="14.848735"><ele>618.0</ele><time>2026-03-24T15:36:33.732Z</time></trkpt><trkpt lat="38.1292133" lon="14.8486233"><ele>616.3333333333334</ele><time>2026-03-24T15:36:35.733Z</time></trkpt><trkpt lat="38.1292133" lon="14.8485067"><ele>614.6666666666667</ele><time>2026-03-24T15:36:37.733Z</time></trkpt><trkpt lat="38.1292433" lon="14.8483867"><ele>613.0</ele><time>2026-03-24T15:36:39.733Z</time></trkpt><trkpt lat="38.1292567" lon="14.8483017"><ele>613.0</ele><time>2026-03-24T15:36:40.733Z</time></trkpt><trkpt lat="38.1292733" lon="14.8481983"><ele>613.0</ele><time>2026-03-24T15:36:41.733Z</time></trkpt><trkpt lat="38.1292767" lon="14.84808"><ele>613.0</ele><time>2026-03-24T15:36:42.732Z</time></trkpt><trkpt lat="38.1292817" lon="14.8479617"><ele>613.0</ele><time>2026-03-24T15:36:43.733Z</time></trkpt><trkpt lat="38.1292717" lon="14.8478567"><ele>613.0</ele><time>2026-03-24T15:36:44.733Z</time></trkpt><trkpt lat="38.1292733" lon="14.8477733"><ele>613.0</ele><time>2026-03-24T15:36:45.733Z</time></trkpt><trkpt lat="38.1292667" lon="14.84768"><ele>612.0</ele><time>2026-03-24T15:36:47.733Z</time></trkpt><trkpt lat="38.129285" lon="14.8475833"><ele>611.0</ele><time>2026-03-24T15:36:49.733Z</time></trkpt><trkpt lat="38.1293117" lon="14.8474167"><ele>610.0</ele><time>2026-03-24T15:36:51.732Z</time></trkpt><trkpt lat="38.1293283" lon="14.8473333"><ele>609.0</ele><time>2026-03-24T15:36:52.732Z</time></trkpt><trkpt lat="38.1294017" lon="14.84721"><ele>608.0</ele><time>2026-03-24T15:36:54.733Z</time></trkpt><trkpt lat="38.1294733" lon="14.84715"><ele>608.0</ele><time>2026-03-24T15:36:55.733Z</time></trkpt><trkpt lat="38.1295467" lon="14.8470817"><ele>608.0</ele><time>2026-03-24T15:36:56.732Z</time></trkpt><trkpt lat="38.1295967" lon="14.8470183"><ele>608.0</ele><time>2026-03-24T15:36:57.733Z</time></trkpt><trkpt lat="38.129645" lon="14.8469433"><ele>608.0</ele><time>2026-03-24T15:36:58.733Z</time></trkpt><trkpt lat="38.12968" lon="14.8468717"><ele>608.0</ele><time>2026-03-24T15:36:59.733Z</time></trkpt><trkpt lat="38.12975" lon="14.8467383"><ele>608.0</ele><time>2026-03-24T15:37:01.732Z</time></trkpt><trkpt lat="38.1297833" lon="14.84665"><ele>607.0</ele><time>2026-03-24T15:37:02.733Z</time></trkpt><trkpt lat="38.129805" lon="14.8465467"><ele>606.0</ele><time>2026-03-24T15:37:03.733Z</time></trkpt><trkpt lat="38.12983" lon="14.8464417"><ele>605.0</ele><time>2026-03-24T15:37:04.733Z</time></trkpt><trkpt lat="38.1298517" lon="14.84635"><ele>604.0</ele><time>2026-03-24T15:37:05.733Z</time></trkpt><trkpt lat="38.1298867" lon="14.8462583"><ele>603.0</ele><time>2026-03-24T15:37:06.733Z</time></trkpt><trkpt lat="38.129925" lon="14.8461733"><ele>602.0</ele><time>2026-03-24T15:37:07.732Z</time></trkpt><trkpt lat="38.1299783" lon="14.84611"><ele>602.0</ele><time>2026-03-24T15:37:08.733Z</time></trkpt><trkpt lat="38.13004" lon="14.84601"><ele>602.0</ele><time>2026-03-24T15:37:10.733Z</time></trkpt><trkpt lat="38.1300533" lon="14.8459"><ele>602.0</ele><time>2026-03-24T15:37:12.732Z</time></trkpt><trkpt lat="38.130075" lon="14.8458167"><ele>602.0</ele><time>2026-03-24T15:37:13.733Z</time></trkpt><trkpt lat="38.13009" lon="14.845725"><ele>602.0</ele><time>2026-03-24T15:37:14.733Z</time></trkpt><trkpt lat="38.1300967" lon="14.8456233"><ele>602.0</ele><time>2026-03-24T15:37:15.732Z</time></trkpt><trkpt lat="38.1300933" lon="14.8455233"><ele>600.2</ele><time>2026-03-24T15:37:16.733Z</time></trkpt><trkpt lat="38.13007" lon="14.8454283"><ele>598.4000000000001</ele><time>2026-03-24T15:37:17.732Z</time></trkpt><trkpt lat="38.1300533" lon="14.8453383"><ele>596.5999999999999</ele><time>2026-03-24T15:37:18.733Z</time></trkpt><trkpt lat="38.1300167" lon="14.84519"><ele>594.8</ele><time>2026-03-24T15:37:20.733Z</time></trkpt><trkpt lat="38.1299767" lon="14.8450533"><ele>593.0</ele><time>2026-03-24T15:37:22.732Z</time></trkpt><trkpt lat="38.1299183" lon="14.84497"><ele>593.0</ele><time>2026-03-24T15:37:24.733Z</time></trkpt><trkpt lat="38.1299717" lon="14.8450583"><ele>593.0</ele><time>2026-03-24T15:37:42.732Z</time></trkpt><trkpt lat="38.130025" lon="14.8451883"><ele>593.0</ele><time>2026-03-24T15:37:44.733Z</time></trkpt><trkpt lat="38.1300467" lon="14.84527"><ele>593.0</ele><time>2026-03-24T15:37:45.733Z</time></trkpt><trkpt lat="38.1300617" lon="14.8453633"><ele>593.0</ele><time>2026-03-24T15:37:46.732Z</time></trkpt><trkpt lat="38.1300783" lon="14.8454533"><ele>593.0</ele><time>2026-03-24T15:37:47.733Z</time></trkpt><trkpt lat="38.130095" lon="14.845535"><ele>593.0</ele><time>2026-03-24T15:37:48.733Z</time></trkpt><trkpt lat="38.1301067" lon="14.8456167"><ele>593.0</ele><time>2026-03-24T15:37:49.733Z</time></trkpt><trkpt lat="38.1300983" lon="14.8457117"><ele>593.0</ele><time>2026-03-24T15:37:50.732Z</time></trkpt><trkpt lat="38.1300783" lon="14.8458033"><ele>593.0</ele><time>2026-03-24T15:37:51.733Z</time></trkpt><trkpt lat="38.1300617" lon="14.8458983"><ele>593.0</ele><time>2026-03-24T15:37:52.732Z</time></trkpt><trkpt lat="38.13006" lon="14.846035"><ele>593.0</ele><time>2026-03-24T15:37:54.732Z</time></trkpt><trkpt lat="38.1301517" lon="14.8460783"><ele>593.0</ele><time>2026-03-24T15:37:56.733Z</time></trkpt><trkpt lat="38.13023" lon="14.846075"><ele>593.0</ele><time>2026-03-24T15:37:57.732Z</time></trkpt><trkpt lat="38.13032" lon="14.8460667"><ele>593.0</ele><time>2026-03-24T15:37:58.732Z</time></trkpt><trkpt lat="38.1303967" lon="14.8460533"><ele>593.0</ele><time>2026-03-24T15:37:59.732Z</time></trkpt><trkpt lat="38.130465" lon="14.84601"><ele>593.0</ele><time>2026-03-24T15:38:00.732Z</time></trkpt><trkpt lat="38.1305167" lon="14.8459517"><ele>593.0</ele><time>2026-03-24T15:38:01.732Z</time></trkpt><trkpt lat="38.1306117" lon="14.8459183"><ele>594.5</ele><time>2026-03-24T15:38:03.732Z</time></trkpt><trkpt lat="38.1306667" lon="14.846"><ele>596.0</ele><time>2026-03-24T15:38:05.733Z</time></trkpt><trkpt lat="38.1306567" lon="14.846085"><ele>597.5</ele><time>2026-03-24T15:38:07.733Z</time></trkpt><trkpt lat="38.1306217" lon="14.8461667"><ele>599.0</ele><time>2026-03-24T15:38:09.733Z</time></trkpt><trkpt lat="38.1305733" lon="14.8462783"><ele>600.5</ele><time>2026-03-24T15:38:11.732Z</time></trkpt><trkpt lat="38.1305267" lon="14.8463983"><ele>602.0</ele><time>2026-03-24T15:38:13.732Z</time></trkpt><trkpt lat="38.130485" lon="14.8465"><ele>602.0</ele><time>2026-03-24T15:38:15.733Z</time></trkpt><trkpt lat="38.1304583" lon="14.8466383"><ele>602.0</ele><time>2026-03-24T15:38:17.733Z</time></trkpt><trkpt lat="38.13044" lon="14.8467467"><ele>602.0</ele><time>2026-03-24T15:38:19.732Z</time></trkpt><trkpt lat="38.1304217" lon="14.846835"><ele>602.0</ele><time>2026-03-24T15:38:21.732Z</time></trkpt><trkpt lat="38.13043" lon="14.8467417"><ele>602.0</ele><time>2026-03-24T15:38:33.733Z</time></trkpt><trkpt lat="38.1304583" lon="14.846595"><ele>602.0</ele><time>2026-03-24T15:38:35.734Z</time></trkpt><trkpt lat="38.1304817" lon="14.8465167"><ele>602.0</ele><time>2026-03-24T15:38:36.733Z</time></trkpt><trkpt lat="38.13052" lon="14.84637"><ele>602.0</ele><time>2026-03-24T15:38:38.734Z</time></trkpt><trkpt lat="38.1305533" lon="14.8462783"><ele>602.0</ele><time>2026-03-24T15:38:39.734Z</time></trkpt><trkpt lat="38.130585" lon="14.8461783"><ele>602.0</ele><time>2026-03-24T15:38:40.734Z</time></trkpt><trkpt lat="38.1306067" lon="14.8460783"><ele>602.0</ele><time>2026-03-24T15:38:41.734Z</time></trkpt><trkpt lat="38.1306283" lon="14.8459817"><ele>600.5</ele><time>2026-03-24T15:38:42.734Z</time></trkpt><trkpt lat="38.1305817" lon="14.845875"><ele>599.0</ele><time>2026-03-24T15:38:44.733Z</time></trkpt><trkpt lat="38.13057" lon="14.8457733"><ele>597.5</ele><time>2026-03-24T15:38:46.734Z</time></trkpt><trkpt lat="38.1305817" lon="14.84568"><ele>596.0</ele><time>2026-03-24T15:38:47.734Z</time></trkpt><trkpt lat="38.13062" lon="14.845565"><ele>594.5</ele><time>2026-03-24T15:38:48.734Z</time></trkpt><trkpt lat="38.1306733" lon="14.8454617"><ele>593.0</ele><time>2026-03-24T15:38:49.734Z</time></trkpt><trkpt lat="38.1307317" lon="14.845355"><ele>593.1666666666666</ele><time>2026-03-24T15:38:50.733Z</time></trkpt><trkpt lat="38.130795" lon="14.8452467"><ele>593.3333333333333</ele><time>2026-03-24T15:38:51.733Z</time></trkpt><trkpt lat="38.1308517" lon="14.8451683"><ele>593.5</ele><time>2026-03-24T15:38:52.733Z</time></trkpt><trkpt lat="38.1309083" lon="14.8450917"><ele>593.6666666666666</ele><time>2026-03-24T15:38:53.733Z</time></trkpt><trkpt lat="38.1309583" lon="14.84503"><ele>593.8333333333334</ele><time>2026-03-24T15:38:54.734Z</time></trkpt><trkpt lat="38.1308933" lon="14.845135"><ele>594.0</ele><time>2026-03-24T15:39:00.734Z</time></trkpt><trkpt lat="38.1308383" lon="14.8452317"><ele>593.8</ele><time>2026-03-24T15:39:01.734Z</time></trkpt><trkpt lat="38.1307867" lon="14.8453383"><ele>593.5999999999999</ele><time>2026-03-24T15:39:02.733Z</time></trkpt><trkpt lat="38.1307383" lon="14.84543"><ele>593.4</ele><time>2026-03-24T15:39:03.734Z</time></trkpt><trkpt lat="38.13069" lon="14.8455083"><ele>593.1999999999999</ele><time>2026-03-24T15:39:04.734Z</time></trkpt><trkpt lat="38.130645" lon="14.84561"><ele>593.0</ele><time>2026-03-24T15:39:06.733Z</time></trkpt><trkpt lat="38.1307567" lon="14.8455667"><ele>591.6666666666666</ele><time>2026-03-24T15:39:09.734Z</time></trkpt><trkpt lat="38.13082" lon="14.845515"><ele>590.3333333333333</ele><time>2026-03-24T15:39:10.734Z</time></trkpt><trkpt lat="38.130875" lon="14.8454667"><ele>589.0</ele><time>2026-03-24T15:39:11.734Z</time></trkpt><trkpt lat="38.1309333" lon="14.8454033"><ele>587.6666666666666</ele><time>2026-03-24T15:39:12.733Z</time></trkpt><trkpt lat="38.1310067" lon="14.8453283"><ele>586.3333333333334</ele><time>2026-03-24T15:39:13.734Z</time></trkpt><trkpt lat="38.13108" lon="14.84526"><ele>585.0</ele><time>2026-03-24T15:39:14.734Z</time></trkpt><trkpt lat="38.13115" lon="14.8451967"><ele>585.0</ele><time>2026-03-24T15:39:15.733Z</time></trkpt><trkpt lat="38.1312133" lon="14.8451433"><ele>585.0</ele><time>2026-03-24T15:39:16.733Z</time></trkpt><trkpt lat="38.1312717" lon="14.8450967"><ele>585.0</ele><time>2026-03-24T15:39:17.734Z</time></trkpt><trkpt lat="38.1313333" lon="14.8450567"><ele>585.0</ele><time>2026-03-24T15:39:18.734Z</time></trkpt><trkpt lat="38.1314017" lon="14.84501"><ele>585.0</ele><time>2026-03-24T15:39:19.734Z</time></trkpt><trkpt lat="38.1314667" lon="14.8449617"><ele>585.0</ele><time>2026-03-24T15:39:20.734Z</time></trkpt><trkpt lat="38.1315533" lon="14.844905"><ele>583.6666666666666</ele><time>2026-03-24T15:39:21.734Z</time></trkpt><trkpt lat="38.1316383" lon="14.844855"><ele>582.3333333333334</ele><time>2026-03-24T15:39:22.734Z</time></trkpt><trkpt lat="38.1317167" lon="14.8448017"><ele>581.0</ele><time>2026-03-24T15:39:23.733Z</time></trkpt><trkpt lat="38.1317867" lon="14.8447483"><ele>579.6666666666667</ele><time>2026-03-24T15:39:24.733Z</time></trkpt><trkpt lat="38.1318333" lon="14.844685"><ele>578.3333333333334</ele><time>2026-03-24T15:39:25.733Z</time></trkpt><trkpt lat="38.1318833" lon="14.8446283"><ele>577.0</ele><time>2026-03-24T15:39:26.734Z</time></trkpt><trkpt lat="38.1319483" lon="14.84451"><ele>577.0</ele><time>2026-03-24T15:39:28.734Z</time></trkpt><trkpt lat="38.132005" lon="14.8444667"><ele>577.0</ele><time>2026-03-24T15:39:30.733Z</time></trkpt><trkpt lat="38.1319967" lon="14.8446067"><ele>577.0</ele><time>2026-03-24T15:39:33.734Z</time></trkpt><trkpt lat="38.1319483" lon="14.8447133"><ele>577.0</ele><time>2026-03-24T15:39:34.734Z</time></trkpt><trkpt lat="38.1318917" lon="14.8448433"><ele>577.0</ele><time>2026-03-24T15:39:35.734Z</time></trkpt><trkpt lat="38.1318483" lon="14.844965"><ele>577.0</ele><time>2026-03-24T15:39:36.733Z</time></trkpt><trkpt lat="38.1318217" lon="14.8450567"><ele>577.0</ele><time>2026-03-24T15:39:37.734Z</time></trkpt><trkpt lat="38.13179" lon="14.84514"><ele>577.0</ele><time>2026-03-24T15:39:38.734Z</time></trkpt><trkpt lat="38.1317617" lon="14.8452117"><ele>577.0</ele><time>2026-03-24T15:39:39.734Z</time></trkpt><trkpt lat="38.1317083" lon="14.8452733"><ele>577.0</ele><time>2026-03-24T15:39:40.734Z</time></trkpt><trkpt lat="38.1316433" lon="14.84533"><ele>577.0</ele><time>2026-03-24T15:39:41.733Z</time></trkpt><trkpt lat="38.1315817" lon="14.8453917"><ele>577.0</ele><time>2026-03-24T15:39:42.734Z</time></trkpt><trkpt lat="38.1315267" lon="14.845455"><ele>576.1666666666667</ele><time>2026-03-24T15:39:43.734Z</time></trkpt><trkpt lat="38.1314783" lon="14.8455283"><ele>575.3333333333334</ele><time>2026-03-24T15:39:44.733Z</time></trkpt><trkpt lat="38.131405" lon="14.845655"><ele>574.5</ele><time>2026-03-24T15:39:46.734Z</time></trkpt><trkpt lat="38.1313733" lon="14.8457367"><ele>573.6666666666666</ele><time>2026-03-24T15:39:47.734Z</time></trkpt><trkpt lat="38.1313617" lon="14.8458217"><ele>572.8333333333333</ele><time>2026-03-24T15:39:48.734Z</time></trkpt><trkpt lat="38.1313483" lon="14.8459017"><ele>572.0</ele><time>2026-03-24T15:39:49.734Z</time></trkpt><trkpt lat="38.1313183" lon="14.8460417"><ele>572.0</ele><time>2026-03-24T15:39:51.733Z</time></trkpt><trkpt lat="38.1312867" lon="14.8461283"><ele>572.0</ele><time>2026-03-24T15:39:53.733Z</time></trkpt><trkpt lat="38.1313567" lon="14.846135"><ele>572.0</ele><time>2026-03-24T15:39:58.734Z</time></trkpt><trkpt lat="38.1314783" lon="14.8460367"><ele>572.0</ele><time>2026-03-24T15:40:00.734Z</time></trkpt><trkpt lat="38.1315567" lon="14.84598"><ele>572.0</ele><time>2026-03-24T15:40:01.733Z</time></trkpt><trkpt lat="38.13162" lon="14.845935"><ele>568.25</ele><time>2026-03-24T15:40:02.734Z</time></trkpt><trkpt lat="38.1317167" lon="14.845855"><ele>564.5</ele><time>2026-03-24T15:40:04.734Z</time></trkpt><trkpt lat="38.131785" lon="14.8457633"><ele>560.75</ele><time>2026-03-24T15:40:06.733Z</time></trkpt><trkpt lat="38.131845" lon="14.8456267"><ele>557.0</ele><time>2026-03-24T15:40:08.734Z</time></trkpt><trkpt lat="38.1319083" lon="14.8454967"><ele>557.0</ele><time>2026-03-24T15:40:10.734Z</time></trkpt><trkpt lat="38.1319533" lon="14.8454383"><ele>557.0</ele><time>2026-03-24T15:40:11.734Z</time></trkpt><trkpt lat="38.13201" lon="14.8453717"><ele>557.0</ele><time>2026-03-24T15:40:12.734Z</time></trkpt><trkpt lat="38.13205" lon="14.8453"><ele>557.0</ele><time>2026-03-24T15:40:13.733Z</time></trkpt><trkpt lat="38.1320783" lon="14.8452233"><ele>557.0</ele><time>2026-03-24T15:40:14.734Z</time></trkpt><trkpt lat="38.1320967" lon="14.8451333"><ele>557.0</ele><time>2026-03-24T15:40:15.734Z</time></trkpt><trkpt lat="38.1321267" lon="14.8450467"><ele>557.0</ele><time>2026-03-24T15:40:16.733Z</time></trkpt><trkpt lat="38.1321667" lon="14.84496"><ele>560.3333333333333</ele><time>2026-03-24T15:40:17.733Z</time></trkpt><trkpt lat="38.1322083" lon="14.8448933"><ele>563.6666666666666</ele><time>2026-03-24T15:40:18.734Z</time></trkpt><trkpt lat="38.13227" lon="14.8448317"><ele>567.0</ele><time>2026-03-24T15:40:19.734Z</time></trkpt><trkpt lat="38.1323367" lon="14.844765"><ele>570.3333333333334</ele><time>2026-03-24T15:40:20.734Z</time></trkpt><trkpt lat="38.1324067" lon="14.8446833"><ele>573.6666666666667</ele><time>2026-03-24T15:40:21.734Z</time></trkpt><trkpt lat="38.1324817" lon="14.8446017"><ele>577.0</ele><time>2026-03-24T15:40:22.734Z</time></trkpt><trkpt lat="38.132545" lon="14.844535"><ele>568.8000000000001</ele><time>2026-03-24T15:40:23.733Z</time></trkpt><trkpt lat="38.1326033" lon="14.8444767"><ele>560.6</ele><time>2026-03-24T15:40:24.734Z</time></trkpt><trkpt lat="38.1326583" lon="14.844425"><ele>552.4000000000001</ele><time>2026-03-24T15:40:25.733Z</time></trkpt><trkpt lat="38.13277" lon="14.8443817"><ele>544.2</ele><time>2026-03-24T15:40:27.733Z</time></trkpt><trkpt lat="38.132875" lon="14.8444317"><ele>536.0</ele><time>2026-03-24T15:40:29.734Z</time></trkpt><trkpt lat="38.1329633" lon="14.8443867"><ele>536.0</ele><time>2026-03-24T15:40:31.734Z</time></trkpt><trkpt lat="38.1330083" lon="14.8443133"><ele>536.0</ele><time>2026-03-24T15:40:32.734Z</time></trkpt><trkpt lat="38.133065" lon="14.8442033"><ele>536.0</ele><time>2026-03-24T15:40:33.734Z</time></trkpt><trkpt lat="38.1331167" lon="14.8440733"><ele>536.0</ele><time>2026-03-24T15:40:34.734Z</time></trkpt><trkpt lat="38.1331633" lon="14.8439567"><ele>536.0</ele><time>2026-03-24T15:40:35.734Z</time></trkpt><trkpt lat="38.1332067" lon="14.8438517"><ele>536.4</ele><time>2026-03-24T15:40:36.734Z</time></trkpt><trkpt lat="38.1332467" lon="14.84375"><ele>536.8</ele><time>2026-03-24T15:40:37.733Z</time></trkpt><trkpt lat="38.133285" lon="14.8436483"><ele>537.1999999999999</ele><time>2026-03-24T15:40:38.734Z</time></trkpt><trkpt lat="38.1333233" lon="14.8435383"><ele>537.6</ele><time>2026-03-24T15:40:39.734Z</time></trkpt><trkpt lat="38.1333617" lon="14.8434367"><ele>538.0</ele><time>2026-03-24T15:40:40.733Z</time></trkpt><trkpt lat="38.133405" lon="14.8433383"><ele>538.0</ele><time>2026-03-24T15:40:41.734Z</time></trkpt><trkpt lat="38.1334467" lon="14.843245"><ele>538.0</ele><time>2026-03-24T15:40:42.733Z</time></trkpt><trkpt lat="38.1334767" lon="14.8431533"><ele>538.0</ele><time>2026-03-24T15:40:43.733Z</time></trkpt><trkpt lat="38.1334917" lon="14.8430383"><ele>538.0</ele><time>2026-03-24T15:40:44.734Z</time></trkpt><trkpt lat="38.1335" lon="14.8429183"><ele>538.0</ele><time>2026-03-24T15:40:45.734Z</time></trkpt><trkpt lat="38.1335117" lon="14.8428067"><ele>538.0</ele><time>2026-03-24T15:40:46.734Z</time></trkpt><trkpt lat="38.13352" lon="14.8427067"><ele>538.0</ele><time>2026-03-24T15:40:47.734Z</time></trkpt><trkpt lat="38.1335367" lon="14.842625"><ele>538.0</ele><time>2026-03-24T15:40:48.734Z</time></trkpt><trkpt lat="38.1335867" lon="14.8425467"><ele>538.0</ele><time>2026-03-24T15:40:50.734Z</time></trkpt><trkpt lat="38.1336333" lon="14.8426033"><ele>538.0</ele><time>2026-03-24T15:40:52.733Z</time></trkpt><trkpt lat="38.13362" lon="14.8427433"><ele>538.0</ele><time>2026-03-24T15:40:54.733Z</time></trkpt><trkpt lat="38.133615" lon="14.8428533"><ele>538.0</ele><time>2026-03-24T15:40:55.734Z</time></trkpt><trkpt lat="38.13361" lon="14.8429883"><ele>538.0</ele><time>2026-03-24T15:40:56.733Z</time></trkpt><trkpt lat="38.1336067" lon="14.8431133"><ele>538.0</ele><time>2026-03-24T15:40:57.733Z</time></trkpt><trkpt lat="38.1336033" lon="14.8432067"><ele>538.0</ele><time>2026-03-24T15:40:58.734Z</time></trkpt><trkpt lat="38.1336" lon="14.8432983"><ele>538.0</ele><time>2026-03-24T15:40:59.734Z</time></trkpt><trkpt lat="38.1335917" lon="14.843385"><ele>538.0</ele><time>2026-03-24T15:41:00.733Z</time></trkpt><trkpt lat="38.13358" lon="14.8434667"><ele>538.0</ele><time>2026-03-24T15:41:01.734Z</time></trkpt><trkpt lat="38.1335733" lon="14.8435583"><ele>535.5</ele><time>2026-03-24T15:41:02.733Z</time></trkpt><trkpt lat="38.1335717" lon="14.84364"><ele>533.0</ele><time>2026-03-24T15:41:03.733Z</time></trkpt><trkpt lat="38.133575" lon="14.8437533"><ele>530.5</ele><time>2026-03-24T15:41:04.734Z</time></trkpt><trkpt lat="38.1336033" lon="14.8438417"><ele>528.0</ele><time>2026-03-24T15:41:05.734Z</time></trkpt><trkpt lat="38.1336417" lon="14.84394"><ele>525.5</ele><time>2026-03-24T15:41:06.733Z</time></trkpt><trkpt lat="38.1336767" lon="14.8440283"><ele>523.0</ele><time>2026-03-24T15:41:07.733Z</time></trkpt><trkpt lat="38.1337067" lon="14.84412"><ele>523.0</ele><time>2026-03-24T15:41:08.734Z</time></trkpt><trkpt lat="38.1337117" lon="14.8442033"><ele>523.0</ele><time>2026-03-24T15:41:09.734Z</time></trkpt><trkpt lat="38.1336967" lon="14.8442933"><ele>523.0</ele><time>2026-03-24T15:41:10.733Z</time></trkpt><trkpt lat="38.1336667" lon="14.84437"><ele>523.0</ele><time>2026-03-24T15:41:11.734Z</time></trkpt><trkpt lat="38.1336167" lon="14.84448"><ele>523.0</ele><time>2026-03-24T15:41:13.734Z</time></trkpt><trkpt lat="38.1336933" lon="14.844495"><ele>523.0</ele><time>2026-03-24T15:41:16.733Z</time></trkpt><trkpt lat="38.1337483" lon="14.8444167"><ele>523.0</ele><time>2026-03-24T15:41:17.733Z</time></trkpt><trkpt lat="38.1338033" lon="14.8443083"><ele>523.0</ele><time>2026-03-24T15:41:18.734Z</time></trkpt><trkpt lat="38.1338483" lon="14.844225"><ele>523.0</ele><time>2026-03-24T15:41:19.733Z</time></trkpt><trkpt lat="38.1338933" lon="14.8441433"><ele>523.0</ele><time>2026-03-24T15:41:20.733Z</time></trkpt><trkpt lat="38.1339133" lon="14.8440667"><ele>523.0</ele><time>2026-03-24T15:41:21.733Z</time></trkpt><trkpt lat="38.1339233" lon="14.8439783"><ele>523.0</ele><time>2026-03-24T15:41:22.733Z</time></trkpt><trkpt lat="38.1339217" lon="14.8438733"><ele>522.9999999999999</ele><time>2026-03-24T15:41:23.734Z</time></trkpt><trkpt lat="38.1339167" lon="14.84377"><ele>523.0</ele><time>2026-03-24T15:41:24.734Z</time></trkpt><trkpt lat="38.1339067" lon="14.8436633"><ele>523.0</ele><time>2026-03-24T15:41:25.734Z</time></trkpt><trkpt lat="38.1339167" lon="14.843565"><ele>523.0</ele><time>2026-03-24T15:41:26.734Z</time></trkpt><trkpt lat="38.13394" lon="14.8434817"><ele>523.0</ele><time>2026-03-24T15:41:27.734Z</time></trkpt><trkpt lat="38.13396" lon="14.8434017"><ele>522.9999999999999</ele><time>2026-03-24T15:41:28.734Z</time></trkpt><trkpt lat="38.1339867" lon="14.8433217"><ele>523.0</ele><time>2026-03-24T15:41:29.734Z</time></trkpt><trkpt lat="38.1340167" lon="14.843235"><ele>518.1666666666667</ele><time>2026-03-24T15:41:30.733Z</time></trkpt><trkpt lat="38.1340567" lon="14.8431433"><ele>513.3333333333334</ele><time>2026-03-24T15:41:31.734Z</time></trkpt><trkpt lat="38.1341067" lon="14.8430433"><ele>508.5</ele><time>2026-03-24T15:41:32.734Z</time></trkpt><trkpt lat="38.1341467" lon="14.8429567"><ele>503.66666666666663</ele><time>2026-03-24T15:41:33.734Z</time></trkpt><trkpt lat="38.1341783" lon="14.842865"><ele>498.8333333333333</ele><time>2026-03-24T15:41:34.734Z</time></trkpt><trkpt lat="38.1342" lon="14.8427833"><ele>494.0</ele><time>2026-03-24T15:41:35.733Z</time></trkpt><trkpt lat="38.13422" lon="14.8427"><ele>495.2</ele><time>2026-03-24T15:41:36.733Z</time></trkpt><trkpt lat="38.1342783" lon="14.8425617"><ele>496.4</ele><time>2026-03-24T15:41:38.734Z</time></trkpt><trkpt lat="38.1343267" lon="14.842485"><ele>497.6</ele><time>2026-03-24T15:41:39.734Z</time></trkpt><trkpt lat="38.1343767" lon="14.842405"><ele>498.8</ele><time>2026-03-24T15:41:40.733Z</time></trkpt><trkpt lat="38.1344517" lon="14.8423183"><ele>500.0</ele><time>2026-03-24T15:41:42.734Z</time></trkpt><trkpt lat="38.1344683" lon="14.84246"><ele>500.0</ele><time>2026-03-24T15:41:45.733Z</time></trkpt><trkpt lat="38.1344517" lon="14.842565"><ele>500.0</ele><time>2026-03-24T15:41:46.734Z</time></trkpt><trkpt lat="38.1344267" lon="14.84267"><ele>500.0</ele><time>2026-03-24T15:41:47.733Z</time></trkpt><trkpt lat="38.1344167" lon="14.8427533"><ele>500.0</ele><time>2026-03-24T15:41:48.734Z</time></trkpt><trkpt lat="38.1343917" lon="14.8428667"><ele>500.0</ele><time>2026-03-24T15:41:50.733Z</time></trkpt><trkpt lat="38.1343733" lon="14.843035"><ele>498.99999999999994</ele><time>2026-03-24T15:41:52.733Z</time></trkpt><trkpt lat="38.1343783" lon="14.843145"><ele>498.0</ele><time>2026-03-24T15:41:53.734Z</time></trkpt><trkpt lat="38.1343783" lon="14.8432567"><ele>497.0</ele><time>2026-03-24T15:41:54.734Z</time></trkpt><trkpt lat="38.13438" lon="14.843355"><ele>496.0</ele><time>2026-03-24T15:41:55.733Z</time></trkpt><trkpt lat="38.1343883" lon="14.8434383"><ele>494.99999999999994</ele><time>2026-03-24T15:41:56.733Z</time></trkpt><trkpt lat="38.1344" lon="14.84352"><ele>494.0</ele><time>2026-03-24T15:41:57.734Z</time></trkpt><trkpt lat="38.134435" lon="14.843595"><ele>493.4</ele><time>2026-03-24T15:41:58.734Z</time></trkpt><trkpt lat="38.1344767" lon="14.843655"><ele>492.79999999999995</ele><time>2026-03-24T15:41:59.734Z</time></trkpt><trkpt lat="38.1345433" lon="14.8437583"><ele>492.20000000000005</ele><time>2026-03-24T15:42:01.733Z</time></trkpt><trkpt lat="38.1345533" lon="14.84389"><ele>491.6</ele><time>2026-03-24T15:42:04.733Z</time></trkpt><trkpt lat="38.1345633" lon="14.8440483"><ele>491.0</ele><time>2026-03-24T15:42:06.733Z</time></trkpt><trkpt lat="38.1345433" lon="14.84415"><ele>491.0</ele><time>2026-03-24T15:42:08.733Z</time></trkpt><trkpt lat="38.1345017" lon="14.8442667"><ele>491.0</ele><time>2026-03-24T15:42:10.734Z</time></trkpt><trkpt lat="38.1344517" lon="14.8443967"><ele>491.0</ele><time>2026-03-24T15:42:12.734Z</time></trkpt><trkpt lat="38.134395" lon="14.84451"><ele>491.0</ele><time>2026-03-24T15:42:14.733Z</time></trkpt><trkpt lat="38.1343283" lon="14.84462"><ele>491.0</ele><time>2026-03-24T15:42:16.734Z</time></trkpt><trkpt lat="38.1342883" lon="14.844685"><ele>492.66666666666663</ele><time>2026-03-24T15:42:17.734Z</time></trkpt><trkpt lat="38.1341933" lon="14.8447717"><ele>494.3333333333333</ele><time>2026-03-24T15:42:19.734Z</time></trkpt><trkpt lat="38.1341317" lon="14.8448033"><ele>496.0</ele><time>2026-03-24T15:42:20.733Z</time></trkpt><trkpt lat="38.1340683" lon="14.8448383"><ele>497.66666666666663</ele><time>2026-03-24T15:42:21.733Z</time></trkpt><trkpt lat="38.1339967" lon="14.844885"><ele>499.3333333333333</ele><time>2026-03-24T15:42:22.733Z</time></trkpt><trkpt lat="38.1339283" lon="14.8449267"><ele>501.0</ele><time>2026-03-24T15:42:23.733Z</time></trkpt><trkpt lat="38.1338333" lon="14.844965"><ele>501.0</ele><time>2026-03-24T15:42:25.734Z</time></trkpt><trkpt lat="38.13371" lon="14.8449733"><ele>501.0</ele><time>2026-03-24T15:42:27.734Z</time></trkpt><trkpt lat="38.13364" lon="14.8450017"><ele>501.0</ele><time>2026-03-24T15:42:28.734Z</time></trkpt><trkpt lat="38.1335767" lon="14.84503"><ele>501.0</ele><time>2026-03-24T15:42:29.733Z</time></trkpt><trkpt lat="38.1334733" lon="14.8450683"><ele>501.0</ele><time>2026-03-24T15:42:31.734Z</time></trkpt><trkpt lat="38.13341" lon="14.8451133"><ele>501.0</ele><time>2026-03-24T15:42:33.734Z</time></trkpt><trkpt lat="38.1334883" lon="14.8451167"><ele>501.0</ele><time>2026-03-24T15:43:54.735Z</time></trkpt><trkpt lat="38.1335533" lon="14.8450883"><ele>501.0</ele><time>2026-03-24T15:43:56.735Z</time></trkpt><trkpt lat="38.13362" lon="14.84508"><ele>501.0</ele><time>2026-03-24T15:43:58.735Z</time></trkpt><trkpt lat="38.1336867" lon="14.8450483"><ele>501.0</ele><time>2026-03-24T15:44:01.734Z</time></trkpt><trkpt lat="38.13377" lon="14.8450333"><ele>501.0</ele><time>2026-03-24T15:44:04.734Z</time></trkpt><trkpt lat="38.1338383" lon="14.8450567"><ele>501.0</ele><time>2026-03-24T15:44:06.734Z</time></trkpt><trkpt lat="38.1339167" lon="14.8450317"><ele>501.0</ele><time>2026-03-24T15:44:09.735Z</time></trkpt><trkpt lat="38.1339867" lon="14.844985"><ele>501.0</ele><time>2026-03-24T15:44:12.734Z</time></trkpt><trkpt lat="38.1340483" lon="14.8449483"><ele>501.0</ele><time>2026-03-24T15:44:15.735Z</time></trkpt><trkpt lat="38.1341367" lon="14.8449133"><ele>501.0</ele><time>2026-03-24T15:44:18.734Z</time></trkpt><trkpt lat="38.1342017" lon="14.8448633"><ele>501.0</ele><time>2026-03-24T15:44:21.735Z</time></trkpt><trkpt lat="38.1342633" lon="14.8448367"><ele>501.0</ele><time>2026-03-24T15:44:24.734Z</time></trkpt><trkpt lat="38.1343167" lon="14.8447217"><ele>501.0</ele><time>2026-03-24T15:45:44.735Z</time></trkpt><trkpt lat="38.134375" lon="14.8446067"><ele>499.3333333333333</ele><time>2026-03-24T15:45:46.735Z</time></trkpt><trkpt lat="38.1344383" lon="14.844475"><ele>497.66666666666663</ele><time>2026-03-24T15:45:48.735Z</time></trkpt><trkpt lat="38.13448" lon="14.8443583"><ele>496.0</ele><time>2026-03-24T15:45:50.734Z</time></trkpt><trkpt lat="38.1345017" lon="14.84427"><ele>494.3333333333333</ele><time>2026-03-24T15:45:52.735Z</time></trkpt><trkpt lat="38.134515" lon="14.8441867"><ele>492.66666666666663</ele><time>2026-03-24T15:45:54.735Z</time></trkpt><trkpt lat="38.1345333" lon="14.8441"><ele>491.0</ele><time>2026-03-24T15:45:57.735Z</time></trkpt><trkpt lat="38.1345517" lon="14.843985"><ele>490.99999999999994</ele><time>2026-03-24T15:45:59.735Z</time></trkpt><trkpt lat="38.1345467" lon="14.8438617"><ele>491.0</ele><time>2026-03-24T15:46:01.735Z</time></trkpt><trkpt lat="38.1345283" lon="14.8437733"><ele>491.0</ele><time>2026-03-24T15:46:03.734Z</time></trkpt><trkpt lat="38.134575" lon="14.8438317"><ele>491.0</ele><time>2026-03-24T15:46:11.735Z</time></trkpt><trkpt lat="38.13461" lon="14.8439133"><ele>490.99999999999994</ele><time>2026-03-24T15:46:15.735Z</time></trkpt><trkpt lat="38.1346517" lon="14.8439933"><ele>491.0</ele><time>2026-03-24T15:46:24.735Z</time></trkpt><trkpt lat="38.1346967" lon="14.8440683"><ele>490.99999999999994</ele><time>2026-03-24T15:46:26.734Z</time></trkpt><trkpt lat="38.1347433" lon="14.8441533"><ele>491.0</ele><time>2026-03-24T15:46:28.734Z</time></trkpt><trkpt lat="38.1347733" lon="14.84425"><ele>491.0</ele><time>2026-03-24T15:46:31.735Z</time></trkpt><trkpt lat="38.134795" lon="14.8443283"><ele>491.0</ele><time>2026-03-24T15:46:34.734Z</time></trkpt><trkpt lat="38.13481" lon="14.8442217"><ele>490.99999999999994</ele><time>2026-03-24T15:46:51.734Z</time></trkpt><trkpt lat="38.1348017" lon="14.8441117"><ele>491.0</ele><time>2026-03-24T15:46:54.735Z</time></trkpt><trkpt lat="38.1347783" lon="14.8440333"><ele>490.99999999999994</ele><time>2026-03-24T15:46:58.734Z</time></trkpt><trkpt lat="38.13477" lon="14.8439267"><ele>491.0</ele><time>2026-03-24T15:47:03.735Z</time></trkpt><trkpt lat="38.13475" lon="14.84385"><ele>491.0</ele><time>2026-03-24T15:47:06.735Z</time></trkpt><trkpt lat="38.1347233" lon="14.843745"><ele>491.0</ele><time>2026-03-24T15:47:10.735Z</time></trkpt><trkpt lat="38.13472" lon="14.8436617"><ele>490.99999999999994</ele><time>2026-03-24T15:47:13.734Z</time></trkpt><trkpt lat="38.1347205" lon="14.8437641"><ele>491.0</ele><time>2026-03-24T15:48:49.736Z</time></trkpt><trkpt lat="38.1347416" lon="14.8438659"><ele>490.99999999999994</ele><time>2026-03-24T15:48:52.736Z</time></trkpt><trkpt lat="38.1347564" lon="14.8439682"><ele>491.0</ele><time>2026-03-24T15:48:55.736Z</time></trkpt><trkpt lat="38.1347789" lon="14.8440459"><ele>491.0</ele><time>2026-03-24T15:48:58.736Z</time></trkpt><trkpt lat="38.1348039" lon="14.8441577"><ele>491.0</ele><time>2026-03-24T15:49:01.736Z</time></trkpt><trkpt lat="38.1347517" lon="14.8441117"><ele>490.99999999999994</ele><time>2026-03-24T15:49:27.735Z</time></trkpt><trkpt lat="38.1346933" lon="14.844015"><ele>491.0</ele><time>2026-03-24T15:49:30.736Z</time></trkpt><trkpt lat="38.1346383" lon="14.8439433"><ele>490.99999999999994</ele><time>2026-03-24T15:49:32.736Z</time></trkpt><trkpt lat="38.1345933" lon="14.8438733"><ele>491.0</ele><time>2026-03-24T15:49:34.736Z</time></trkpt><trkpt lat="38.1345533" lon="14.8438"><ele>491.0</ele><time>2026-03-24T15:49:36.736Z</time></trkpt><trkpt lat="38.1345067" lon="14.8437283"><ele>491.0</ele><time>2026-03-24T15:49:39.735Z</time></trkpt><trkpt lat="38.13444" lon="14.8436267"><ele>490.99999999999994</ele><time>2026-03-24T15:49:41.736Z</time></trkpt><trkpt lat="38.1344067" lon="14.8435517"><ele>491.0</ele><time>2026-03-24T15:49:42.736Z</time></trkpt><trkpt lat="38.1343767" lon="14.8434633"><ele>491.49999999999994</ele><time>2026-03-24T15:49:43.735Z</time></trkpt><trkpt lat="38.1343633" lon="14.8433717"><ele>492.0</ele><time>2026-03-24T15:49:44.736Z</time></trkpt><trkpt lat="38.13436" lon="14.843265"><ele>492.5</ele><time>2026-03-24T15:49:45.736Z</time></trkpt><trkpt lat="38.134365" lon="14.84314"><ele>493.0</ele><time>2026-03-24T15:49:46.736Z</time></trkpt><trkpt lat="38.1343683" lon="14.8430267"><ele>493.49999999999994</ele><time>2026-03-24T15:49:47.736Z</time></trkpt><trkpt lat="38.134375" lon="14.84291"><ele>494.0</ele><time>2026-03-24T15:49:48.736Z</time></trkpt><trkpt lat="38.134385" lon="14.842825"><ele>493.99999999999994</ele><time>2026-03-24T15:49:49.736Z</time></trkpt><trkpt lat="38.134395" lon="14.8427283"><ele>494.0</ele><time>2026-03-24T15:49:50.735Z</time></trkpt><trkpt lat="38.1344183" lon="14.8426167"><ele>494.0</ele><time>2026-03-24T15:49:51.735Z</time></trkpt><trkpt lat="38.13444" lon="14.8425283"><ele>494.0</ele><time>2026-03-24T15:49:52.736Z</time></trkpt><trkpt lat="38.1344533" lon="14.8423867"><ele>493.99999999999994</ele><time>2026-03-24T15:49:54.736Z</time></trkpt><trkpt lat="38.1344433" lon="14.8422867"><ele>494.0</ele><time>2026-03-24T15:49:56.736Z</time></trkpt><trkpt lat="38.1345167" lon="14.8423083"><ele>494.99999999999994</ele><time>2026-03-24T15:50:32.736Z</time></trkpt><trkpt lat="38.1345917" lon="14.8423467"><ele>496.0</ele><time>2026-03-24T15:50:34.736Z</time></trkpt><trkpt lat="38.13469" lon="14.84241"><ele>497.0</ele><time>2026-03-24T15:50:36.736Z</time></trkpt><trkpt lat="38.134765" lon="14.842455"><ele>498.0</ele><time>2026-03-24T15:50:38.736Z</time></trkpt><trkpt lat="38.1348417" lon="14.8424767"><ele>498.99999999999994</ele><time>2026-03-24T15:50:41.736Z</time></trkpt><trkpt lat="38.1348833" lon="14.8425467"><ele>500.0</ele><time>2026-03-24T15:50:44.736Z</time></trkpt><trkpt lat="38.13495" lon="14.8425767"><ele>500.0</ele><time>2026-03-24T15:50:49.736Z</time></trkpt><trkpt lat="38.13502" lon="14.842575"><ele>500.0</ele><time>2026-03-24T15:50:53.735Z</time></trkpt><trkpt lat="38.1349367" lon="14.8425517"><ele>500.0</ele><time>2026-03-24T15:51:13.736Z</time></trkpt><trkpt lat="38.1348633" lon="14.8425317"><ele>500.0</ele><time>2026-03-24T15:51:16.736Z</time></trkpt><trkpt lat="38.134805" lon="14.842495"><ele>500.0</ele><time>2026-03-24T15:51:18.736Z</time></trkpt><trkpt lat="38.1347433" lon="14.8424283"><ele>500.0</ele><time>2026-03-24T15:51:21.736Z</time></trkpt><trkpt lat="38.13468" lon="14.8424"><ele>500.0</ele><time>2026-03-24T15:51:23.735Z</time></trkpt><trkpt lat="38.1345883" lon="14.8423417"><ele>500.0</ele><time>2026-03-24T15:51:25.735Z</time></trkpt><trkpt lat="38.1345283" lon="14.842315"><ele>500.0</ele><time>2026-03-24T15:51:26.736Z</time></trkpt><trkpt lat="38.1344217" lon="14.8423317"><ele>500.0</ele><time>2026-03-24T15:51:28.736Z</time></trkpt><trkpt lat="38.1343717" lon="14.8423817"><ele>500.0</ele><time>2026-03-24T15:51:29.736Z</time></trkpt><trkpt lat="38.134325" lon="14.8424483"><ele>500.0</ele><time>2026-03-24T15:51:30.736Z</time></trkpt><trkpt lat="38.13428" lon="14.8425217"><ele>500.0</ele><time>2026-03-24T15:51:31.736Z</time></trkpt><trkpt lat="38.13424" lon="14.842595"><ele>500.0</ele><time>2026-03-24T15:51:32.736Z</time></trkpt><trkpt lat="38.13421" lon="14.8426667"><ele>498.99999999999994</ele><time>2026-03-24T15:51:33.736Z</time></trkpt><trkpt lat="38.1341817" lon="14.8427417"><ele>498.0</ele><time>2026-03-24T15:51:34.735Z</time></trkpt><trkpt lat="38.134165" lon="14.842825"><ele>497.0</ele><time>2026-03-24T15:51:35.736Z</time></trkpt><trkpt lat="38.134115" lon="14.8429567"><ele>496.0</ele><time>2026-03-24T15:51:37.736Z</time></trkpt><trkpt lat="38.1340833" lon="14.84303"><ele>494.99999999999994</ele><time>2026-03-24T15:51:38.736Z</time></trkpt><trkpt lat="38.134045" lon="14.8431233"><ele>494.0</ele><time>2026-03-24T15:51:39.735Z</time></trkpt><trkpt lat="38.134005" lon="14.8432183"><ele>498.8333333333333</ele><time>2026-03-24T15:51:40.735Z</time></trkpt><trkpt lat="38.1339733" lon="14.843305"><ele>503.66666666666663</ele><time>2026-03-24T15:51:41.736Z</time></trkpt><trkpt lat="38.13394" lon="14.8433883"><ele>508.5</ele><time>2026-03-24T15:51:42.736Z</time></trkpt><trkpt lat="38.1339117" lon="14.8434783"><ele>513.3333333333334</ele><time>2026-03-24T15:51:43.736Z</time></trkpt><trkpt lat="38.1338883" lon="14.8435933"><ele>518.1666666666667</ele><time>2026-03-24T15:51:44.735Z</time></trkpt><trkpt lat="38.1338717" lon="14.8437267"><ele>523.0</ele><time>2026-03-24T15:51:45.736Z</time></trkpt><trkpt lat="38.1338667" lon="14.84386"><ele>523.0</ele><time>2026-03-24T15:51:46.736Z</time></trkpt><trkpt lat="38.133875" lon="14.843995"><ele>523.0</ele><time>2026-03-24T15:51:47.736Z</time></trkpt><trkpt lat="38.1338917" lon="14.8440833"><ele>523.0</ele><time>2026-03-24T15:51:48.736Z</time></trkpt><trkpt lat="38.13387" lon="14.8442133"><ele>523.0</ele><time>2026-03-24T15:51:50.736Z</time></trkpt><trkpt lat="38.13383" lon="14.8442783"><ele>523.0</ele><time>2026-03-24T15:51:51.735Z</time></trkpt><trkpt lat="38.1337817" lon="14.844365"><ele>523.0</ele><time>2026-03-24T15:51:52.736Z</time></trkpt><trkpt lat="38.13374" lon="14.8444433"><ele>523.0</ele><time>2026-03-24T15:51:53.735Z</time></trkpt><trkpt lat="38.13367" lon="14.844505"><ele>523.0</ele><time>2026-03-24T15:51:55.735Z</time></trkpt><trkpt lat="38.1336567" lon="14.8443867"><ele>523.0</ele><time>2026-03-24T15:51:58.736Z</time></trkpt><trkpt lat="38.13369" lon="14.8442983"><ele>523.0</ele><time>2026-03-24T15:51:59.735Z</time></trkpt><trkpt lat="38.1337183" lon="14.8442067"><ele>523.0</ele><time>2026-03-24T15:52:00.736Z</time></trkpt><trkpt lat="38.1337283" lon="14.8441067"><ele>523.0</ele><time>2026-03-24T15:52:01.735Z</time></trkpt><trkpt lat="38.1337017" lon="14.844025"><ele>523.0</ele><time>2026-03-24T15:52:02.735Z</time></trkpt><trkpt lat="38.1336717" lon="14.8439467"><ele>523.0</ele><time>2026-03-24T15:52:03.735Z</time></trkpt><trkpt lat="38.1336383" lon="14.8438617"><ele>523.0</ele><time>2026-03-24T15:52:04.735Z</time></trkpt><trkpt lat="38.1336033" lon="14.8437683"><ele>523.0</ele><time>2026-03-24T15:52:05.736Z</time></trkpt><trkpt lat="38.1335867" lon="14.843665"><ele>523.0</ele><time>2026-03-24T15:52:06.735Z</time></trkpt><trkpt lat="38.13358" lon="14.8435633"><ele>523.0</ele><time>2026-03-24T15:52:07.735Z</time></trkpt><trkpt lat="38.13358" lon="14.8434633"><ele>525.5</ele><time>2026-03-24T15:52:08.736Z</time></trkpt><trkpt lat="38.1335783" lon="14.8433567"><ele>528.0</ele><time>2026-03-24T15:52:09.736Z</time></trkpt><trkpt lat="38.1335933" lon="14.8432467"><ele>530.5</ele><time>2026-03-24T15:52:10.736Z</time></trkpt><trkpt lat="38.1335983" lon="14.843145"><ele>533.0</ele><time>2026-03-24T15:52:11.735Z</time></trkpt><trkpt lat="38.1335983" lon="14.8430567"><ele>535.5</ele><time>2026-03-24T15:52:12.736Z</time></trkpt><trkpt lat="38.1336017" lon="14.842955"><ele>538.0</ele><time>2026-03-24T15:52:13.736Z</time></trkpt><trkpt lat="38.1336033" lon="14.84284"><ele>538.0</ele><time>2026-03-24T15:52:14.736Z</time></trkpt><trkpt lat="38.1336217" lon="14.8427267"><ele>538.0</ele><time>2026-03-24T15:52:15.736Z</time></trkpt><trkpt lat="38.1336283" lon="14.8426333"><ele>538.0</ele><time>2026-03-24T15:52:16.735Z</time></trkpt><trkpt lat="38.1336283" lon="14.84255"><ele>538.0</ele><time>2026-03-24T15:52:17.736Z</time></trkpt><trkpt lat="38.1336683" lon="14.842405"><ele>538.0</ele><time>2026-03-24T15:52:19.737Z</time></trkpt><trkpt lat="38.13371" lon="14.8423217"><ele>538.0</ele><time>2026-03-24T15:52:20.737Z</time></trkpt><trkpt lat="38.1337617" lon="14.8422217"><ele>538.6666666666667</ele><time>2026-03-24T15:52:21.736Z</time></trkpt><trkpt lat="38.1337883" lon="14.8421217"><ele>539.3333333333334</ele><time>2026-03-24T15:52:22.737Z</time></trkpt><trkpt lat="38.1338033" lon="14.8420233"><ele>540.0</ele><time>2026-03-24T15:52:23.737Z</time></trkpt><trkpt lat="38.133825" lon="14.841905"><ele>540.6666666666666</ele><time>2026-03-24T15:52:24.737Z</time></trkpt><trkpt lat="38.1338383" lon="14.84179"><ele>541.3333333333333</ele><time>2026-03-24T15:52:25.737Z</time></trkpt><trkpt lat="38.13384" lon="14.841685"><ele>542.0</ele><time>2026-03-24T15:52:26.737Z</time></trkpt><trkpt lat="38.13385" lon="14.8415667"><ele>538.6666666666666</ele><time>2026-03-24T15:52:28.737Z</time></trkpt><trkpt lat="38.13387" lon="14.841475"><ele>535.3333333333333</ele><time>2026-03-24T15:52:30.736Z</time></trkpt><trkpt lat="38.1339033" lon="14.84138"><ele>532.0</ele><time>2026-03-24T15:52:32.737Z</time></trkpt><trkpt lat="38.1339317" lon="14.8412833"><ele>528.6666666666666</ele><time>2026-03-24T15:52:34.737Z</time></trkpt><trkpt lat="38.1339583" lon="14.8412033"><ele>525.3333333333334</ele><time>2026-03-24T15:52:35.737Z</time></trkpt><trkpt lat="38.1339883" lon="14.841115"><ele>522.0</ele><time>2026-03-24T15:52:36.737Z</time></trkpt><trkpt lat="38.13402" lon="14.8410283"><ele>521.5</ele><time>2026-03-24T15:52:37.737Z</time></trkpt><trkpt lat="38.13407" lon="14.840945"><ele>521.0</ele><time>2026-03-24T15:52:38.737Z</time></trkpt><trkpt lat="38.1341083" lon="14.84088"><ele>520.5</ele><time>2026-03-24T15:52:39.736Z</time></trkpt><trkpt lat="38.1341183" lon="14.8407917"><ele>520.0</ele><time>2026-03-24T15:52:41.736Z</time></trkpt><trkpt lat="38.1340967" lon="14.8406683"><ele>519.5</ele><time>2026-03-24T15:52:43.737Z</time></trkpt><trkpt lat="38.13411" lon="14.8405583"><ele>519.0</ele><time>2026-03-24T15:52:45.737Z</time></trkpt><trkpt lat="38.1341283" lon="14.8404733"><ele>519.0</ele><time>2026-03-24T15:52:46.737Z</time></trkpt><trkpt lat="38.1341567" lon="14.8403767"><ele>519.0</ele><time>2026-03-24T15:52:47.737Z</time></trkpt><trkpt lat="38.1341783" lon="14.840275"><ele>519.0</ele><time>2026-03-24T15:52:48.737Z</time></trkpt><trkpt lat="38.1341917" lon="14.840145"><ele>519.0</ele><time>2026-03-24T15:52:49.737Z</time></trkpt><trkpt lat="38.1342033" lon="14.8400033"><ele>519.0</ele><time>2026-03-24T15:52:50.736Z</time></trkpt><trkpt lat="38.134195" lon="14.8398617"><ele>517.6666666666666</ele><time>2026-03-24T15:52:51.737Z</time></trkpt><trkpt lat="38.1341983" lon="14.839755"><ele>516.3333333333334</ele><time>2026-03-24T15:52:52.737Z</time></trkpt><trkpt lat="38.1342117" lon="14.839665"><ele>515.0</ele><time>2026-03-24T15:52:53.737Z</time></trkpt><trkpt lat="38.1342367" lon="14.839585"><ele>513.6666666666667</ele><time>2026-03-24T15:52:54.737Z</time></trkpt><trkpt lat="38.1342733" lon="14.8394817"><ele>512.3333333333334</ele><time>2026-03-24T15:52:55.737Z</time></trkpt><trkpt lat="38.13433" lon="14.839395"><ele>511.0</ele><time>2026-03-24T15:52:56.737Z</time></trkpt><trkpt lat="38.1343733" lon="14.8392933"><ele>509.50000000000006</ele><time>2026-03-24T15:52:57.737Z</time></trkpt><trkpt lat="38.134415" lon="14.8392217"><ele>508.0</ele><time>2026-03-24T15:52:58.736Z</time></trkpt><trkpt lat="38.1344133" lon="14.839095"><ele>506.5</ele><time>2026-03-24T15:53:00.736Z</time></trkpt><trkpt lat="38.1343283" lon="14.83901"><ele>505.0</ele><time>2026-03-24T15:53:02.736Z</time></trkpt><trkpt lat="38.1342367" lon="14.8389367"><ele>503.50000000000006</ele><time>2026-03-24T15:53:04.737Z</time></trkpt><trkpt lat="38.1341833" lon="14.8388933"><ele>502.0</ele><time>2026-03-24T15:53:05.737Z</time></trkpt><trkpt lat="38.134125" lon="14.8388317"><ele>502.00000000000006</ele><time>2026-03-24T15:53:06.737Z</time></trkpt><trkpt lat="38.1340667" lon="14.838755"><ele>502.0</ele><time>2026-03-24T15:53:07.737Z</time></trkpt><trkpt lat="38.1340133" lon="14.838685"><ele>502.0</ele><time>2026-03-24T15:53:08.736Z</time></trkpt><trkpt lat="38.133965" lon="14.8386267"><ele>502.0</ele><time>2026-03-24T15:53:09.736Z</time></trkpt><trkpt lat="38.1339117" lon="14.8385783"><ele>502.00000000000006</ele><time>2026-03-24T15:53:10.736Z</time></trkpt><trkpt lat="38.1338283" lon="14.8384983"><ele>502.0</ele><time>2026-03-24T15:53:12.736Z</time></trkpt><trkpt lat="38.1338267" lon="14.83841"><ele>502.8</ele><time>2026-03-24T15:53:14.736Z</time></trkpt><trkpt lat="38.133885" lon="14.83827"><ele>503.6</ele><time>2026-03-24T15:53:16.737Z</time></trkpt><trkpt lat="38.13395" lon="14.8381767"><ele>504.40000000000003</ele><time>2026-03-24T15:53:17.737Z</time></trkpt><trkpt lat="38.1340083" lon="14.8380933"><ele>505.20000000000005</ele><time>2026-03-24T15:53:18.737Z</time></trkpt><trkpt lat="38.134065" lon="14.83804"><ele>506.0</ele><time>2026-03-24T15:53:19.737Z</time></trkpt><trkpt lat="38.1341383" lon="14.83797"><ele>506.0</ele><time>2026-03-24T15:53:21.737Z</time></trkpt><trkpt lat="38.13419" lon="14.83788"><ele>506.0</ele><time>2026-03-24T15:53:24.736Z</time></trkpt><trkpt lat="38.1342367" lon="14.8377233"><ele>506.0</ele><time>2026-03-24T15:53:26.737Z</time></trkpt><trkpt lat="38.13425" lon="14.8376267"><ele>506.0</ele><time>2026-03-24T15:53:27.736Z</time></trkpt><trkpt lat="38.1342483" lon="14.83753"><ele>506.0</ele><time>2026-03-24T15:53:28.737Z</time></trkpt><trkpt lat="38.1342317" lon="14.8374133"><ele>504.6</ele><time>2026-03-24T15:53:29.736Z</time></trkpt><trkpt lat="38.1342067" lon="14.83727"><ele>503.20000000000005</ele><time>2026-03-24T15:53:30.737Z</time></trkpt><trkpt lat="38.134185" lon="14.837145"><ele>501.79999999999995</ele><time>2026-03-24T15:53:31.737Z</time></trkpt><trkpt lat="38.1341767" lon="14.8370317"><ele>500.4</ele><time>2026-03-24T15:53:32.737Z</time></trkpt><trkpt lat="38.1341783" lon="14.8369117"><ele>499.0</ele><time>2026-03-24T15:53:33.737Z</time></trkpt><trkpt lat="38.1341817" lon="14.8367733"><ele>498.33333333333337</ele><time>2026-03-24T15:53:34.736Z</time></trkpt><trkpt lat="38.1341733" lon="14.8366383"><ele>497.6666666666667</ele><time>2026-03-24T15:53:35.737Z</time></trkpt><trkpt lat="38.13415" lon="14.8365417"><ele>497.0</ele><time>2026-03-24T15:53:36.737Z</time></trkpt><trkpt lat="38.134105" lon="14.8364617"><ele>496.33333333333337</ele><time>2026-03-24T15:53:37.737Z</time></trkpt><trkpt lat="38.134045" lon="14.8363983"><ele>495.6666666666667</ele><time>2026-03-24T15:53:38.736Z</time></trkpt><trkpt lat="38.1339617" lon="14.8363267"><ele>495.0</ele><time>2026-03-24T15:53:39.736Z</time></trkpt><trkpt lat="38.1338883" lon="14.8362583"><ele>488.6666666666667</ele><time>2026-03-24T15:53:40.737Z</time></trkpt><trkpt lat="38.1338233" lon="14.836205"><ele>482.33333333333337</ele><time>2026-03-24T15:53:41.737Z</time></trkpt><trkpt lat="38.1337733" lon="14.8360967"><ele>476.0</ele><time>2026-03-24T15:53:43.736Z</time></trkpt><trkpt lat="38.1338283" lon="14.8359817"><ele>469.6666666666667</ele><time>2026-03-24T15:53:45.737Z</time></trkpt><trkpt lat="38.1338833" lon="14.8359233"><ele>463.33333333333337</ele><time>2026-03-24T15:53:46.737Z</time></trkpt><trkpt lat="38.1339367" lon="14.83588"><ele>457.0</ele><time>2026-03-24T15:53:47.737Z</time></trkpt><trkpt lat="38.134045" lon="14.8358333"><ele>461.6666666666667</ele><time>2026-03-24T15:53:49.737Z</time></trkpt><trkpt lat="38.13414" lon="14.83581"><ele>466.33333333333337</ele><time>2026-03-24T15:53:51.737Z</time></trkpt><trkpt lat="38.13423" lon="14.8358283"><ele>471.0</ele><time>2026-03-24T15:53:53.737Z</time></trkpt><trkpt lat="38.134295" lon="14.8357733"><ele>475.66666666666663</ele><time>2026-03-24T15:53:55.736Z</time></trkpt><trkpt lat="38.1342517" lon="14.835705"><ele>480.3333333333333</ele><time>2026-03-24T15:53:57.737Z</time></trkpt><trkpt lat="38.1341783" lon="14.8356783"><ele>485.0</ele><time>2026-03-24T15:53:58.736Z</time></trkpt><trkpt lat="38.134065" lon="14.83568"><ele>479.4</ele><time>2026-03-24T15:53:59.736Z</time></trkpt><trkpt lat="38.1339617" lon="14.8356717"><ele>473.8</ele><time>2026-03-24T15:54:00.736Z</time></trkpt><trkpt lat="38.13388" lon="14.835645"><ele>468.20000000000005</ele><time>2026-03-24T15:54:01.737Z</time></trkpt><trkpt lat="38.133785" lon="14.835575"><ele>462.6</ele><time>2026-03-24T15:54:03.737Z</time></trkpt><trkpt lat="38.133875" lon="14.8354633"><ele>457.0</ele><time>2026-03-24T15:54:06.736Z</time></trkpt><trkpt lat="38.1339633" lon="14.835415"><ele>457.00000000000006</ele><time>2026-03-24T15:54:07.737Z</time></trkpt><trkpt lat="38.13404" lon="14.8353567"><ele>457.0</ele><time>2026-03-24T15:54:08.737Z</time></trkpt><trkpt lat="38.1340983" lon="14.8352867"><ele>457.0</ele><time>2026-03-24T15:54:09.737Z</time></trkpt><trkpt lat="38.1341417" lon="14.83522"><ele>457.0</ele><time>2026-03-24T15:54:10.737Z</time></trkpt><trkpt lat="38.134195" lon="14.8351633"><ele>457.00000000000006</ele><time>2026-03-24T15:54:11.737Z</time></trkpt><trkpt lat="38.13426" lon="14.8351233"><ele>457.0</ele><time>2026-03-24T15:54:12.736Z</time></trkpt><trkpt lat="38.1343433" lon="14.8351083"><ele>458.1666666666667</ele><time>2026-03-24T15:54:13.737Z</time></trkpt><trkpt lat="38.1344217" lon="14.835105"><ele>459.33333333333337</ele><time>2026-03-24T15:54:14.737Z</time></trkpt><trkpt lat="38.1344967" lon="14.8350917"><ele>460.5</ele><time>2026-03-24T15:54:15.737Z</time></trkpt><trkpt lat="38.134565" lon="14.8350817"><ele>461.66666666666663</ele><time>2026-03-24T15:54:16.737Z</time></trkpt><trkpt lat="38.1346783" lon="14.8350733"><ele>462.8333333333333</ele><time>2026-03-24T15:54:18.737Z</time></trkpt><trkpt lat="38.1347383" lon="14.8350417"><ele>464.0</ele><time>2026-03-24T15:54:20.737Z</time></trkpt><trkpt lat="38.1347583" lon="14.8349117"><ele>463.99999999999994</ele><time>2026-03-24T15:54:22.736Z</time></trkpt><trkpt lat="38.1347533" lon="14.8348283"><ele>464.0</ele><time>2026-03-24T15:54:23.736Z</time></trkpt><trkpt lat="38.1347433" lon="14.8347467"><ele>464.0</ele><time>2026-03-24T15:54:24.737Z</time></trkpt><trkpt lat="38.134715" lon="14.8346067"><ele>464.0</ele><time>2026-03-24T15:54:26.737Z</time></trkpt><trkpt lat="38.1347183" lon="14.834475"><ele>463.99999999999994</ele><time>2026-03-24T15:54:28.736Z</time></trkpt><trkpt lat="38.1347483" lon="14.8343567"><ele>464.0</ele><time>2026-03-24T15:54:30.736Z</time></trkpt><trkpt lat="38.1347517" lon="14.8342533"><ele>460.16666666666663</ele><time>2026-03-24T15:54:32.737Z</time></trkpt><trkpt lat="38.1347017" lon="14.8341117"><ele>456.3333333333333</ele><time>2026-03-24T15:54:34.737Z</time></trkpt><trkpt lat="38.1346417" lon="14.834"><ele>452.5</ele><time>2026-03-24T15:54:36.737Z</time></trkpt><trkpt lat="38.134615" lon="14.833925"><ele>448.66666666666663</ele><time>2026-03-24T15:54:56.736Z</time></trkpt><trkpt lat="38.134675" lon="14.8340017"><ele>444.8333333333333</ele><time>2026-03-24T15:55:00.736Z</time></trkpt><trkpt lat="38.1346717" lon="14.834085"><ele>441.0</ele><time>2026-03-24T15:55:02.737Z</time></trkpt><trkpt lat="38.1347083" lon="14.8341633"><ele>441.0</ele><time>2026-03-24T15:55:04.737Z</time></trkpt><trkpt lat="38.1347367" lon="14.8342917"><ele>441.0</ele><time>2026-03-24T15:55:06.737Z</time></trkpt><trkpt lat="38.134735" lon="14.83439"><ele>441.0</ele><time>2026-03-24T15:55:07.737Z</time></trkpt><trkpt lat="38.1347233" lon="14.8345033"><ele>441.0</ele><time>2026-03-24T15:55:08.737Z</time></trkpt><trkpt lat="38.134725" lon="14.8346117"><ele>441.0</ele><time>2026-03-24T15:55:09.736Z</time></trkpt><trkpt lat="38.1347417" lon="14.8347233"><ele>441.0</ele><time>2026-03-24T15:55:10.737Z</time></trkpt><trkpt lat="38.1347433" lon="14.834835"><ele>444.8333333333333</ele><time>2026-03-24T15:55:11.737Z</time></trkpt><trkpt lat="38.134745" lon="14.834945"><ele>448.66666666666663</ele><time>2026-03-24T15:55:12.737Z</time></trkpt><trkpt lat="38.1347333" lon="14.8350367"><ele>452.5</ele><time>2026-03-24T15:55:13.737Z</time></trkpt><trkpt lat="38.1346867" lon="14.8350933"><ele>456.3333333333333</ele><time>2026-03-24T15:55:14.737Z</time></trkpt><trkpt lat="38.1346067" lon="14.83512"><ele>460.16666666666663</ele><time>2026-03-24T15:55:15.737Z</time></trkpt><trkpt lat="38.134515" lon="14.8351317"><ele>464.0</ele><time>2026-03-24T15:55:16.737Z</time></trkpt><trkpt lat="38.1344183" lon="14.8351517"><ele>462.8333333333333</ele><time>2026-03-24T15:55:17.737Z</time></trkpt><trkpt lat="38.1343233" lon="14.835165"><ele>461.66666666666663</ele><time>2026-03-24T15:55:18.737Z</time></trkpt><trkpt lat="38.13424" lon="14.83518"><ele>460.5</ele><time>2026-03-24T15:55:19.736Z</time></trkpt><trkpt lat="38.134165" lon="14.8352183"><ele>459.33333333333337</ele><time>2026-03-24T15:55:20.737Z</time></trkpt><trkpt lat="38.1341033" lon="14.8352733"><ele>458.1666666666667</ele><time>2026-03-24T15:55:21.737Z</time></trkpt><trkpt lat="38.134055" lon="14.83535"><ele>457.0</ele><time>2026-03-24T15:55:22.737Z</time></trkpt><trkpt lat="38.1340083" lon="14.8354117"><ele>457.0</ele><time>2026-03-24T15:55:23.737Z</time></trkpt><trkpt lat="38.133895" lon="14.8354833"><ele>457.00000000000006</ele><time>2026-03-24T15:55:25.737Z</time></trkpt><trkpt lat="38.1338283" lon="14.835505"><ele>457.00000000000006</ele><time>2026-03-24T15:55:26.736Z</time></trkpt><trkpt lat="38.13377" lon="14.8355567"><ele>457.0</ele><time>2026-03-24T15:55:28.737Z</time></trkpt><trkpt lat="38.1338333" lon="14.8355983"><ele>457.0</ele><time>2026-03-24T15:55:31.737Z</time></trkpt><trkpt lat="38.1339717" lon="14.8356383"><ele>457.00000000000006</ele><time>2026-03-24T15:55:33.737Z</time></trkpt><trkpt lat="38.1340433" lon="14.8356567"><ele>457.0</ele><time>2026-03-24T15:55:34.737Z</time></trkpt><trkpt lat="38.134135" lon="14.835695"><ele>457.0</ele><time>2026-03-24T15:55:36.736Z</time></trkpt><trkpt lat="38.1340733" lon="14.8356633"><ele>457.0</ele><time>2026-03-24T15:55:45.736Z</time></trkpt><trkpt lat="38.13417" lon="14.8355733"><ele>457.00000000000006</ele><time>2026-03-24T15:55:49.737Z</time></trkpt><trkpt lat="38.1342333" lon="14.83555"><ele>457.0</ele><time>2026-03-24T15:55:50.737Z</time></trkpt><trkpt lat="38.1342967" lon="14.835545"><ele>461.6666666666667</ele><time>2026-03-24T15:55:51.737Z</time></trkpt><trkpt lat="38.1343483" lon="14.835605"><ele>466.33333333333337</ele><time>2026-03-24T15:55:53.736Z</time></trkpt><trkpt lat="38.1343867" lon="14.835715"><ele>471.0</ele><time>2026-03-24T15:55:55.737Z</time></trkpt><trkpt lat="38.1344517" lon="14.8357733"><ele>475.66666666666663</ele><time>2026-03-24T15:55:57.736Z</time></trkpt><trkpt lat="38.1345233" lon="14.835815"><ele>480.3333333333333</ele><time>2026-03-24T15:55:59.737Z</time></trkpt><trkpt lat="38.134575" lon="14.83589"><ele>485.0</ele><time>2026-03-24T15:56:01.736Z</time></trkpt><trkpt lat="38.13464" lon="14.8359233"><ele>484.99999999999994</ele><time>2026-03-24T15:56:04.736Z</time></trkpt><trkpt lat="38.1346633" lon="14.835815"><ele>485.0</ele><time>2026-03-24T15:56:07.737Z</time></trkpt><trkpt lat="38.1346617" lon="14.83571"><ele>485.0</ele><time>2026-03-24T15:56:11.737Z</time></trkpt><trkpt lat="38.1346617" lon="14.8356033"><ele>485.0</ele><time>2026-03-24T15:56:14.736Z</time></trkpt><trkpt lat="38.1346533" lon="14.8355217"><ele>484.99999999999994</ele><time>2026-03-24T15:56:17.737Z</time></trkpt><trkpt lat="38.13465" lon="14.835425"><ele>485.0</ele><time>2026-03-24T15:56:20.736Z</time></trkpt><trkpt lat="38.1346467" lon="14.835335"><ele>484.99999999999994</ele><time>2026-03-24T15:56:22.736Z</time></trkpt><trkpt lat="38.1346533" lon="14.83521"><ele>485.0</ele><time>2026-03-24T15:56:24.736Z</time></trkpt><trkpt lat="38.13468" lon="14.8351017"><ele>485.0</ele><time>2026-03-24T15:56:26.737Z</time></trkpt><trkpt lat="38.1346167" lon="14.8350583"><ele>485.0</ele><time>2026-03-24T15:56:29.736Z</time></trkpt><trkpt lat="38.1345517" lon="14.8350883"><ele>484.99999999999994</ele><time>2026-03-24T15:56:30.737Z</time></trkpt><trkpt lat="38.1344833" lon="14.835125"><ele>485.0</ele><time>2026-03-24T15:56:31.737Z</time></trkpt><trkpt lat="38.1344033" lon="14.8351567"><ele>484.99999999999994</ele><time>2026-03-24T15:56:32.737Z</time></trkpt><trkpt lat="38.1343267" lon="14.8351733"><ele>485.0</ele><time>2026-03-24T15:56:33.737Z</time></trkpt><trkpt lat="38.1342433" lon="14.8351983"><ele>485.0</ele><time>2026-03-24T15:56:34.737Z</time></trkpt><trkpt lat="38.1341617" lon="14.83523"><ele>485.0</ele><time>2026-03-24T15:56:35.737Z</time></trkpt><trkpt lat="38.134105" lon="14.8352767"><ele>484.99999999999994</ele><time>2026-03-24T15:56:36.737Z</time></trkpt><trkpt lat="38.1340617" lon="14.835345"><ele>485.0</ele><time>2026-03-24T15:56:37.736Z</time></trkpt><trkpt lat="38.1339983" lon="14.835415"><ele>480.3333333333333</ele><time>2026-03-24T15:56:38.736Z</time></trkpt><trkpt lat="38.133925" lon="14.835475"><ele>475.66666666666663</ele><time>2026-03-24T15:56:39.737Z</time></trkpt><trkpt lat="38.1338467" lon="14.8355033"><ele>471.0</ele><time>2026-03-24T15:56:40.737Z</time></trkpt><trkpt lat="38.1337817" lon="14.8355583"><ele>466.33333333333337</ele><time>2026-03-24T15:56:42.737Z</time></trkpt><trkpt lat="38.1338467" lon="14.8356283"><ele>461.6666666666667</ele><time>2026-03-24T15:56:44.737Z</time></trkpt><trkpt lat="38.1339233" lon="14.8356533"><ele>457.0</ele><time>2026-03-24T15:56:45.737Z</time></trkpt><trkpt lat="38.134025" lon="14.8356767"><ele>461.6666666666667</ele><time>2026-03-24T15:56:46.737Z</time></trkpt><trkpt lat="38.13413" lon="14.83568"><ele>466.33333333333337</ele><time>2026-03-24T15:56:47.737Z</time></trkpt><trkpt lat="38.1342083" lon="14.8356967"><ele>471.0</ele><time>2026-03-24T15:56:48.738Z</time></trkpt><trkpt lat="38.1342683" lon="14.8357383"><ele>475.66666666666663</ele><time>2026-03-24T15:56:49.737Z</time></trkpt><trkpt lat="38.1342883" lon="14.835825"><ele>480.3333333333333</ele><time>2026-03-24T15:56:51.738Z</time></trkpt><trkpt lat="38.1342" lon="14.8358283"><ele>485.0</ele><time>2026-03-24T15:56:53.738Z</time></trkpt><trkpt lat="38.1341133" lon="14.83583"><ele>479.4</ele><time>2026-03-24T15:56:54.738Z</time></trkpt><trkpt lat="38.13402" lon="14.83586"><ele>473.8</ele><time>2026-03-24T15:56:55.738Z</time></trkpt><trkpt lat="38.13394" lon="14.83591"><ele>468.20000000000005</ele><time>2026-03-24T15:56:56.738Z</time></trkpt><trkpt lat="38.133865" lon="14.83598"><ele>462.6</ele><time>2026-03-24T15:56:57.738Z</time></trkpt><trkpt lat="38.133815" lon="14.8360667"><ele>457.0</ele><time>2026-03-24T15:56:58.737Z</time></trkpt><trkpt lat="38.13379" lon="14.8361867"><ele>456.20000000000005</ele><time>2026-03-24T15:57:00.738Z</time></trkpt><trkpt lat="38.133875" lon="14.83628"><ele>455.40000000000003</ele><time>2026-03-24T15:57:02.737Z</time></trkpt><trkpt lat="38.133955" lon="14.8363517"><ele>454.59999999999997</ele><time>2026-03-24T15:57:03.738Z</time></trkpt><trkpt lat="38.1340383" lon="14.8364283"><ele>453.79999999999995</ele><time>2026-03-24T15:57:04.738Z</time></trkpt><trkpt lat="38.1341" lon="14.8364983"><ele>453.0</ele><time>2026-03-24T15:57:05.737Z</time></trkpt><trkpt lat="38.13414" lon="14.8365717"><ele>460.0</ele><time>2026-03-24T15:57:06.738Z</time></trkpt><trkpt lat="38.13416" lon="14.8366533"><ele>467.0</ele><time>2026-03-24T15:57:07.737Z</time></trkpt><trkpt lat="38.134165" lon="14.83675"><ele>474.0</ele><time>2026-03-24T15:57:08.738Z</time></trkpt><trkpt lat="38.1341633" lon="14.83688"><ele>481.0</ele><time>2026-03-24T15:57:09.738Z</time></trkpt><trkpt lat="38.13416" lon="14.837005"><ele>488.0</ele><time>2026-03-24T15:57:10.738Z</time></trkpt><trkpt lat="38.13416" lon="14.8371167"><ele>495.0</ele><time>2026-03-24T15:57:11.737Z</time></trkpt><trkpt lat="38.134165" lon="14.837215"><ele>495.6666666666667</ele><time>2026-03-24T15:57:12.737Z</time></trkpt><trkpt lat="38.13418" lon="14.8373083"><ele>496.33333333333337</ele><time>2026-03-24T15:57:13.738Z</time></trkpt><trkpt lat="38.1342017" lon="14.837405"><ele>497.0</ele><time>2026-03-24T15:57:14.738Z</time></trkpt><trkpt lat="38.13422" lon="14.8374917"><ele>497.6666666666667</ele><time>2026-03-24T15:57:15.738Z</time></trkpt><trkpt lat="38.1342367" lon="14.83757"><ele>498.33333333333337</ele><time>2026-03-24T15:57:16.738Z</time></trkpt><trkpt lat="38.13422" lon="14.8377183"><ele>499.0</ele><time>2026-03-24T15:57:18.737Z</time></trkpt><trkpt lat="38.1341817" lon="14.8378733"><ele>500.1666666666667</ele><time>2026-03-24T15:57:20.738Z</time></trkpt><trkpt lat="38.134155" lon="14.8379517"><ele>501.33333333333337</ele><time>2026-03-24T15:57:21.738Z</time></trkpt><trkpt lat="38.134075" lon="14.8380483"><ele>502.5</ele><time>2026-03-24T15:57:23.737Z</time></trkpt><trkpt lat="38.1339817" lon="14.838115"><ele>503.66666666666663</ele><time>2026-03-24T15:57:25.737Z</time></trkpt><trkpt lat="38.1339117" lon="14.83816"><ele>504.8333333333333</ele><time>2026-03-24T15:57:26.737Z</time></trkpt><trkpt lat="38.1338383" lon="14.8382"><ele>506.0</ele><time>2026-03-24T15:57:27.737Z</time></trkpt><trkpt lat="38.1337533" lon="14.8382267"><ele>498.8</ele><time>2026-03-24T15:57:28.738Z</time></trkpt><trkpt lat="38.1336783" lon="14.8382467"><ele>491.6</ele><time>2026-03-24T15:57:29.738Z</time></trkpt><trkpt lat="38.1335783" lon="14.838295"><ele>484.4</ele><time>2026-03-24T15:57:31.738Z</time></trkpt><trkpt lat="38.1334967" lon="14.8384033"><ele>477.2</ele><time>2026-03-24T15:57:33.738Z</time></trkpt><trkpt lat="38.1334433" lon="14.83853"><ele>470.0</ele><time>2026-03-24T15:57:35.737Z</time></trkpt><trkpt lat="38.1334617" lon="14.8386483"><ele>468.6</ele><time>2026-03-24T15:57:37.737Z</time></trkpt><trkpt lat="38.1335233" lon="14.8387533"><ele>467.2</ele><time>2026-03-24T15:57:39.738Z</time></trkpt><trkpt lat="38.1336067" lon="14.8388417"><ele>465.79999999999995</ele><time>2026-03-24T15:57:41.737Z</time></trkpt><trkpt lat="38.1336867" lon="14.8389233"><ele>464.4</ele><time>2026-03-24T15:57:43.738Z</time></trkpt><trkpt lat="38.13375" lon="14.839035"><ele>463.0</ele><time>2026-03-24T15:57:45.738Z</time></trkpt><trkpt lat="38.1337617" lon="14.839165"><ele>463.00000000000006</ele><time>2026-03-24T15:57:47.737Z</time></trkpt><trkpt lat="38.1337383" lon="14.83925"><ele>463.0</ele><time>2026-03-24T15:57:48.738Z</time></trkpt><trkpt lat="38.1337" lon="14.8393433"><ele>463.0</ele><time>2026-03-24T15:57:49.737Z</time></trkpt><trkpt lat="38.13366" lon="14.83943"><ele>463.0</ele><time>2026-03-24T15:57:50.738Z</time></trkpt><trkpt lat="38.133625" lon="14.8395033"><ele>463.00000000000006</ele><time>2026-03-24T15:57:51.737Z</time></trkpt><trkpt lat="38.1335767" lon="14.8396233"><ele>463.0</ele><time>2026-03-24T15:57:53.738Z</time></trkpt><trkpt lat="38.13351" lon="14.8397233"><ele>464.2</ele><time>2026-03-24T15:57:55.738Z</time></trkpt><trkpt lat="38.1334433" lon="14.839815"><ele>465.4</ele><time>2026-03-24T15:57:57.738Z</time></trkpt><trkpt lat="38.1334083" lon="14.8399117"><ele>466.59999999999997</ele><time>2026-03-24T15:57:59.738Z</time></trkpt><trkpt lat="38.1334083" lon="14.8400167"><ele>467.79999999999995</ele><time>2026-03-24T15:58:01.737Z</time></trkpt><trkpt lat="38.1334317" lon="14.8401317"><ele>469.0</ele><time>2026-03-24T15:58:03.738Z</time></trkpt><trkpt lat="38.1334233" lon="14.84025"><ele>470.4</ele><time>2026-03-24T15:58:05.738Z</time></trkpt><trkpt lat="38.1333733" lon="14.8403417"><ele>471.79999999999995</ele><time>2026-03-24T15:58:07.737Z</time></trkpt><trkpt lat="38.1333033" lon="14.84045"><ele>473.20000000000005</ele><time>2026-03-24T15:58:09.738Z</time></trkpt><trkpt lat="38.1332633" lon="14.840545"><ele>474.6</ele><time>2026-03-24T15:58:11.737Z</time></trkpt><trkpt lat="38.1332367" lon="14.84064"><ele>476.0</ele><time>2026-03-24T15:58:13.737Z</time></trkpt><trkpt lat="38.1331733" lon="14.840725"><ele>476.0</ele><time>2026-03-24T15:58:15.737Z</time></trkpt><trkpt lat="38.1330683" lon="14.8407717"><ele>476.0</ele><time>2026-03-24T15:58:17.738Z</time></trkpt><trkpt lat="38.13295" lon="14.8407533"><ele>476.0</ele><time>2026-03-24T15:58:19.738Z</time></trkpt><trkpt lat="38.1328783" lon="14.8407517"><ele>476.0</ele><time>2026-03-24T15:58:20.738Z</time></trkpt><trkpt lat="38.13276" lon="14.8407583"><ele>476.0</ele><time>2026-03-24T15:58:22.738Z</time></trkpt><trkpt lat="38.1326717" lon="14.840795"><ele>475.99999999999994</ele><time>2026-03-24T15:58:24.738Z</time></trkpt><trkpt lat="38.13257" lon="14.840855"><ele>476.0</ele><time>2026-03-24T15:58:26.738Z</time></trkpt><trkpt lat="38.1324867" lon="14.8409383"><ele>476.0</ele><time>2026-03-24T15:58:28.737Z</time></trkpt><trkpt lat="38.132405" lon="14.8409617"><ele>476.0</ele><time>2026-03-24T15:58:30.738Z</time></trkpt><trkpt lat="38.13234" lon="14.8410133"><ele>475.99999999999994</ele><time>2026-03-24T15:58:32.738Z</time></trkpt><trkpt lat="38.1322833" lon="14.84106"><ele>476.0</ele><time>2026-03-24T15:58:34.738Z</time></trkpt><trkpt lat="38.13219" lon="14.841045"><ele>475.3333333333333</ele><time>2026-03-24T15:58:37.738Z</time></trkpt><trkpt lat="38.1321267" lon="14.84087"><ele>474.66666666666663</ele><time>2026-03-24T15:58:50.738Z</time></trkpt><trkpt lat="38.1320983" lon="14.8407933"><ele>474.0</ele><time>2026-03-24T15:58:52.738Z</time></trkpt><trkpt lat="38.1320767" lon="14.84071"><ele>473.33333333333337</ele><time>2026-03-24T15:58:54.737Z</time></trkpt><trkpt lat="38.1320433" lon="14.8406133"><ele>472.6666666666667</ele><time>2026-03-24T15:58:57.738Z</time></trkpt><trkpt lat="38.1320233" lon="14.84052"><ele>472.0</ele><time>2026-03-24T15:58:59.737Z</time></trkpt><trkpt lat="38.1319917" lon="14.8404317"><ele>472.00000000000006</ele><time>2026-03-24T15:59:02.738Z</time></trkpt><trkpt lat="38.1319283" lon="14.8403733"><ele>472.0</ele><time>2026-03-24T15:59:05.738Z</time></trkpt><trkpt lat="38.1318683" lon="14.8403483"><ele>472.0</ele><time>2026-03-24T15:59:07.738Z</time></trkpt><trkpt lat="38.1317867" lon="14.8403283"><ele>472.0</ele><time>2026-03-24T15:59:10.737Z</time></trkpt><trkpt lat="38.131715" lon="14.840305"><ele>472.00000000000006</ele><time>2026-03-24T15:59:13.738Z</time></trkpt><trkpt lat="38.131645" lon="14.8402617"><ele>472.0</ele><time>2026-03-24T15:59:16.737Z</time></trkpt><trkpt lat="38.1315517" lon="14.84025"><ele>469.0</ele><time>2026-03-24T15:59:19.738Z</time></trkpt><trkpt lat="38.1314783" lon="14.8402217"><ele>466.0</ele><time>2026-03-24T15:59:21.737Z</time></trkpt><trkpt lat="38.131415" lon="14.8402467"><ele>463.0</ele><time>2026-03-24T15:59:23.737Z</time></trkpt><trkpt lat="38.1313583" lon="14.840285"><ele>460.0</ele><time>2026-03-24T15:59:25.738Z</time></trkpt><trkpt lat="38.1313017" lon="14.8403383"><ele>457.0</ele><time>2026-03-24T15:59:28.738Z</time></trkpt><trkpt lat="38.1312617" lon="14.8404383"><ele>454.0</ele><time>2026-03-24T15:59:31.738Z</time></trkpt><trkpt lat="38.131235" lon="14.84053"><ele>451.0</ele><time>2026-03-24T15:59:34.737Z</time></trkpt><trkpt lat="38.1312217" lon="14.8406167"><ele>451.0</ele><time>2026-03-24T15:59:37.738Z</time></trkpt><trkpt lat="38.1311883" lon="14.840705"><ele>451.0</ele><time>2026-03-24T15:59:40.738Z</time></trkpt><trkpt lat="38.13121" lon="14.8406167"><ele>451.0</ele><time>2026-03-24T16:00:27.738Z</time></trkpt><trkpt lat="38.131245" lon="14.8405383"><ele>451.0</ele><time>2026-03-24T16:00:29.737Z</time></trkpt><trkpt lat="38.131265" lon="14.84045"><ele>451.0</ele><time>2026-03-24T16:00:31.737Z</time></trkpt><trkpt lat="38.1312083" lon="14.840415"><ele>451.0</ele><time>2026-03-24T16:00:37.738Z</time></trkpt><trkpt lat="38.1312437" lon="14.8403438"><ele>451.0</ele><time>2026-03-24T16:02:58.739Z</time></trkpt><trkpt lat="38.1313019" lon="14.8402952"><ele>451.00000000000006</ele><time>2026-03-24T16:03:07.739Z</time></trkpt><trkpt lat="38.1313583" lon="14.8402346"><ele>451.0</ele><time>2026-03-24T16:03:10.738Z</time></trkpt><trkpt lat="38.1314386" lon="14.8401757"><ele>451.0</ele><time>2026-03-24T16:03:12.738Z</time></trkpt><trkpt lat="38.1315186" lon="14.8401606"><ele>451.0</ele><time>2026-03-24T16:03:14.739Z</time></trkpt><trkpt lat="38.1315955" lon="14.8401906"><ele>451.00000000000006</ele><time>2026-03-24T16:03:17.738Z</time></trkpt><trkpt lat="38.1316827" lon="14.8402168"><ele>451.0</ele><time>2026-03-24T16:03:20.739Z</time></trkpt><trkpt lat="38.131744" lon="14.8402486"><ele>454.0</ele><time>2026-03-24T16:03:22.739Z</time></trkpt><trkpt lat="38.1318024" lon="14.840289"><ele>457.0</ele><time>2026-03-24T16:03:24.739Z</time></trkpt><trkpt lat="38.1318722" lon="14.8403123"><ele>460.0</ele><time>2026-03-24T16:03:26.739Z</time></trkpt><trkpt lat="38.1319346" lon="14.8403522"><ele>463.0</ele><time>2026-03-24T16:03:28.739Z</time></trkpt><trkpt lat="38.1319831" lon="14.8404134"><ele>466.0</ele><time>2026-03-24T16:03:30.738Z</time></trkpt><trkpt lat="38.1320107" lon="14.840503"><ele>469.0</ele><time>2026-03-24T16:03:32.739Z</time></trkpt><trkpt lat="38.1320317" lon="14.8406083"><ele>472.0</ele><time>2026-03-24T16:03:34.738Z</time></trkpt><trkpt lat="38.1320367" lon="14.8407067"><ele>472.0</ele><time>2026-03-24T16:03:37.738Z</time></trkpt><trkpt lat="38.132045" lon="14.840815"><ele>472.00000000000006</ele><time>2026-03-24T16:03:40.738Z</time></trkpt><trkpt lat="38.13213" lon="14.8409517"><ele>472.00000000000006</ele><time>2026-03-24T16:04:19.738Z</time></trkpt><trkpt lat="38.132215" lon="14.8409967"><ele>472.0</ele><time>2026-03-24T16:04:22.739Z</time></trkpt><trkpt lat="38.1323283" lon="14.8409767"><ele>472.0</ele><time>2026-03-24T16:04:24.739Z</time></trkpt><trkpt lat="38.1323933" lon="14.8409617"><ele>472.8</ele><time>2026-03-24T16:04:25.739Z</time></trkpt><trkpt lat="38.1324867" lon="14.8409417"><ele>473.6</ele><time>2026-03-24T16:04:27.739Z</time></trkpt><trkpt lat="38.13255" lon="14.8408683"><ele>474.40000000000003</ele><time>2026-03-24T16:04:29.738Z</time></trkpt><trkpt lat="38.1326533" lon="14.8408083"><ele>475.20000000000005</ele><time>2026-03-24T16:04:31.738Z</time></trkpt><trkpt lat="38.1327167" lon="14.8407817"><ele>476.0</ele><time>2026-03-24T16:04:32.739Z</time></trkpt><trkpt lat="38.132825" lon="14.84075"><ele>476.0</ele><time>2026-03-24T16:04:34.739Z</time></trkpt><trkpt lat="38.1329333" lon="14.84074"><ele>476.0</ele><time>2026-03-24T16:04:36.739Z</time></trkpt><trkpt lat="38.1330483" lon="14.8407367"><ele>476.0</ele><time>2026-03-24T16:04:38.739Z</time></trkpt><trkpt lat="38.13316" lon="14.8407217"><ele>476.0</ele><time>2026-03-24T16:04:40.739Z</time></trkpt><trkpt lat="38.1332317" lon="14.840685"><ele>476.0</ele><time>2026-03-24T16:04:42.738Z</time></trkpt><trkpt lat="38.1332983" lon="14.8405817"><ele>474.8333333333333</ele><time>2026-03-24T16:04:44.738Z</time></trkpt><trkpt lat="38.1333367" lon="14.8404983"><ele>473.66666666666663</ele><time>2026-03-24T16:04:45.739Z</time></trkpt><trkpt lat="38.1333867" lon="14.8404117"><ele>472.5</ele><time>2026-03-24T16:04:46.739Z</time></trkpt><trkpt lat="38.1334417" lon="14.840315"><ele>471.33333333333337</ele><time>2026-03-24T16:04:47.738Z</time></trkpt><trkpt lat="38.1334733" lon="14.84022"><ele>470.1666666666667</ele><time>2026-03-24T16:04:48.739Z</time></trkpt><trkpt lat="38.133485" lon="14.840135"><ele>469.0</ele><time>2026-03-24T16:04:49.739Z</time></trkpt><trkpt lat="38.1334667" lon="14.8399883"><ele>469.00000000000006</ele><time>2026-03-24T16:04:51.738Z</time></trkpt><trkpt lat="38.13347" lon="14.8398467"><ele>469.0</ele><time>2026-03-24T16:04:53.739Z</time></trkpt><trkpt lat="38.1334933" lon="14.8397717"><ele>469.0</ele><time>2026-03-24T16:04:54.739Z</time></trkpt><trkpt lat="38.1335317" lon="14.8397"><ele>469.0</ele><time>2026-03-24T16:04:55.739Z</time></trkpt><trkpt lat="38.133585" lon="14.8396217"><ele>469.00000000000006</ele><time>2026-03-24T16:04:56.739Z</time></trkpt><trkpt lat="38.133635" lon="14.839535"><ele>469.0</ele><time>2026-03-24T16:04:57.739Z</time></trkpt><trkpt lat="38.133675" lon="14.83943"><ele>469.00000000000006</ele><time>2026-03-24T16:04:58.739Z</time></trkpt><trkpt lat="38.1337167" lon="14.8393217"><ele>469.0</ele><time>2026-03-24T16:04:59.739Z</time></trkpt><trkpt lat="38.1337517" lon="14.8392333"><ele>469.0</ele><time>2026-03-24T16:05:00.738Z</time></trkpt><trkpt lat="38.133775" lon="14.8391517"><ele>469.0</ele><time>2026-03-24T16:05:01.739Z</time></trkpt><trkpt lat="38.1337683" lon="14.839005"><ele>469.00000000000006</ele><time>2026-03-24T16:05:03.739Z</time></trkpt><trkpt lat="38.133735" lon="14.8389267"><ele>469.0</ele><time>2026-03-24T16:05:04.739Z</time></trkpt><trkpt lat="38.1336833" lon="14.8388567"><ele>469.1666666666667</ele><time>2026-03-24T16:05:05.739Z</time></trkpt><trkpt lat="38.133625" lon="14.83879"><ele>469.33333333333337</ele><time>2026-03-24T16:05:06.739Z</time></trkpt><trkpt lat="38.1335683" lon="14.838735"><ele>469.5</ele><time>2026-03-24T16:05:07.739Z</time></trkpt><trkpt lat="38.1335133" lon="14.8386767"><ele>469.66666666666663</ele><time>2026-03-24T16:05:08.739Z</time></trkpt><trkpt lat="38.1334733" lon="14.8386133"><ele>469.8333333333333</ele><time>2026-03-24T16:05:09.739Z</time></trkpt><trkpt lat="38.1334583" lon="14.838485"><ele>470.0</ele><time>2026-03-24T16:05:11.739Z</time></trkpt><trkpt lat="38.1334817" lon="14.83841"><ele>469.99999999999994</ele><time>2026-03-24T16:05:12.739Z</time></trkpt><trkpt lat="38.133525" lon="14.83834"><ele>470.0</ele><time>2026-03-24T16:05:13.739Z</time></trkpt><trkpt lat="38.133625" lon="14.8382617"><ele>470.0</ele><time>2026-03-24T16:05:15.738Z</time></trkpt><trkpt lat="38.1336917" lon="14.83824"><ele>470.0</ele><time>2026-03-24T16:05:16.738Z</time></trkpt><trkpt lat="38.1337717" lon="14.8382167"><ele>469.99999999999994</ele><time>2026-03-24T16:05:17.738Z</time></trkpt><trkpt lat="38.1338617" lon="14.8381883"><ele>470.0</ele><time>2026-03-24T16:05:18.739Z</time></trkpt><trkpt lat="38.13394" lon="14.8381517"><ele>470.0</ele><time>2026-03-24T16:05:19.739Z</time></trkpt><trkpt lat="38.1340067" lon="14.8381017"><ele>470.0</ele><time>2026-03-24T16:05:20.739Z</time></trkpt><trkpt lat="38.1341067" lon="14.8380383"><ele>470.0</ele><time>2026-03-24T16:05:22.739Z</time></trkpt><trkpt lat="38.13409" lon="14.838125"><ele>470.0</ele><time>2026-03-24T16:05:25.739Z</time></trkpt><trkpt lat="38.13403" lon="14.8382067"><ele>470.0</ele><time>2026-03-24T16:05:26.738Z</time></trkpt><trkpt lat="38.133955" lon="14.83831"><ele>470.0</ele><time>2026-03-24T16:05:27.739Z</time></trkpt><trkpt lat="38.13388" lon="14.8384017"><ele>470.0</ele><time>2026-03-24T16:05:28.739Z</time></trkpt><trkpt lat="38.1338233" lon="14.8384867"><ele>470.0</ele><time>2026-03-24T16:05:29.739Z</time></trkpt><trkpt lat="38.1338067" lon="14.8386183"><ele>470.0</ele><time>2026-03-24T16:05:31.74Z</time></trkpt><trkpt lat="38.13387" lon="14.8386683"><ele>470.0</ele><time>2026-03-24T16:05:32.739Z</time></trkpt><trkpt lat="38.1339717" lon="14.8387383"><ele>476.4</ele><time>2026-03-24T16:05:33.74Z</time></trkpt><trkpt lat="38.1340583" lon="14.83883"><ele>482.8</ele><time>2026-03-24T16:05:34.74Z</time></trkpt><trkpt lat="38.13414" lon="14.8389117"><ele>489.20000000000005</ele><time>2026-03-24T16:05:35.74Z</time></trkpt><trkpt lat="38.1342167" lon="14.8389867"><ele>495.6</ele><time>2026-03-24T16:05:36.74Z</time></trkpt><trkpt lat="38.1342883" lon="14.8390533"><ele>502.0</ele><time>2026-03-24T16:05:37.74Z</time></trkpt><trkpt lat="38.1343567" lon="14.8391233"><ele>502.00000000000006</ele><time>2026-03-24T16:05:38.739Z</time></trkpt><trkpt lat="38.1344067" lon="14.839195"><ele>502.0</ele><time>2026-03-24T16:05:39.739Z</time></trkpt><trkpt lat="38.1344317" lon="14.8393333"><ele>502.0</ele><time>2026-03-24T16:05:41.74Z</time></trkpt><trkpt lat="38.1344067" lon="14.8394083"><ele>502.0</ele><time>2026-03-24T16:05:42.74Z</time></trkpt><trkpt lat="38.1343583" lon="14.8395033"><ele>502.00000000000006</ele><time>2026-03-24T16:05:43.739Z</time></trkpt><trkpt lat="38.134295" lon="14.8396"><ele>502.0</ele><time>2026-03-24T16:05:44.74Z</time></trkpt><trkpt lat="38.134245" lon="14.8396967"><ele>503.50000000000006</ele><time>2026-03-24T16:05:45.74Z</time></trkpt><trkpt lat="38.13421" lon="14.8397833"><ele>505.0</ele><time>2026-03-24T16:05:46.74Z</time></trkpt><trkpt lat="38.13419" lon="14.8398617"><ele>506.5</ele><time>2026-03-24T16:05:47.74Z</time></trkpt><trkpt lat="38.1341817" lon="14.8399483"><ele>508.0</ele><time>2026-03-24T16:05:48.74Z</time></trkpt><trkpt lat="38.134175" lon="14.84006"><ele>509.50000000000006</ele><time>2026-03-24T16:05:49.739Z</time></trkpt><trkpt lat="38.134165" lon="14.8401867"><ele>511.0</ele><time>2026-03-24T16:05:50.739Z</time></trkpt><trkpt lat="38.13415" lon="14.8403067"><ele>512.6</ele><time>2026-03-24T16:05:51.739Z</time></trkpt><trkpt lat="38.134135" lon="14.8404317"><ele>514.2</ele><time>2026-03-24T16:05:52.74Z</time></trkpt><trkpt lat="38.1341183" lon="14.84054"><ele>515.8</ele><time>2026-03-24T16:05:53.739Z</time></trkpt><trkpt lat="38.1341" lon="14.8406383"><ele>517.4</ele><time>2026-03-24T16:05:54.74Z</time></trkpt><trkpt lat="38.1340983" lon="14.84078"><ele>519.0</ele><time>2026-03-24T16:05:56.74Z</time></trkpt><trkpt lat="38.1341467" lon="14.8408667"><ele>519.5</ele><time>2026-03-24T16:05:58.739Z</time></trkpt><trkpt lat="38.1341483" lon="14.8409733"><ele>520.0</ele><time>2026-03-24T16:06:01.74Z</time></trkpt><trkpt lat="38.13409" lon="14.84102"><ele>520.5</ele><time>2026-03-24T16:06:04.739Z</time></trkpt><trkpt lat="38.134025" lon="14.84107"><ele>521.0</ele><time>2026-03-24T16:06:12.739Z</time></trkpt><trkpt lat="38.13398" lon="14.8411467"><ele>521.5</ele><time>2026-03-24T16:06:16.74Z</time></trkpt><trkpt lat="38.1339417" lon="14.8412367"><ele>522.0</ele><time>2026-03-24T16:06:21.739Z</time></trkpt><trkpt lat="38.133905" lon="14.841365"><ele>522.0</ele><time>2026-03-24T16:06:23.739Z</time></trkpt><trkpt lat="38.1338783" lon="14.8414733"><ele>522.0</ele><time>2026-03-24T16:06:24.739Z</time></trkpt><trkpt lat="38.13384" lon="14.8415983"><ele>522.0</ele><time>2026-03-24T16:06:25.74Z</time></trkpt><trkpt lat="38.13379" lon="14.8417267"><ele>522.0</ele><time>2026-03-24T16:06:26.74Z</time></trkpt><trkpt lat="38.1337433" lon="14.8418283"><ele>522.0</ele><time>2026-03-24T16:06:27.739Z</time></trkpt><trkpt lat="38.133705" lon="14.8419217"><ele>525.3333333333334</ele><time>2026-03-24T16:06:28.74Z</time></trkpt><trkpt lat="38.1336683" lon="14.8420083"><ele>528.6666666666666</ele><time>2026-03-24T16:06:29.74Z</time></trkpt><trkpt lat="38.133635" lon="14.8420867"><ele>532.0</ele><time>2026-03-24T16:06:30.739Z</time></trkpt><trkpt lat="38.1335583" lon="14.842175"><ele>535.3333333333333</ele><time>2026-03-24T16:06:32.74Z</time></trkpt><trkpt lat="38.1334933" lon="14.84217"><ele>538.6666666666666</ele><time>2026-03-24T16:06:33.739Z</time></trkpt><trkpt lat="38.13342" lon="14.842125"><ele>542.0</ele><time>2026-03-24T16:06:35.739Z</time></trkpt><trkpt lat="38.13335" lon="14.84205"><ele>542.0</ele><time>2026-03-24T16:06:37.74Z</time></trkpt><trkpt lat="38.133305" lon="14.84196"><ele>542.0</ele><time>2026-03-24T16:06:39.739Z</time></trkpt><trkpt lat="38.13324" lon="14.84191"><ele>542.0</ele><time>2026-03-24T16:06:41.739Z</time></trkpt><trkpt lat="38.1333083" lon="14.8419183"><ele>542.0</ele><time>2026-03-24T16:06:44.74Z</time></trkpt><trkpt lat="38.1333783" lon="14.84197"><ele>542.0</ele><time>2026-03-24T16:06:46.74Z</time></trkpt><trkpt lat="38.1334483" lon="14.8420083"><ele>542.0</ele><time>2026-03-24T16:06:49.74Z</time></trkpt><trkpt lat="38.1335217" lon="14.84202"><ele>542.0</ele><time>2026-03-24T16:06:52.74Z</time></trkpt><trkpt lat="38.1335883" lon="14.841955"><ele>542.0</ele><time>2026-03-24T16:06:57.739Z</time></trkpt><trkpt lat="38.1336283" lon="14.8418917"><ele>542.0</ele><time>2026-03-24T16:06:59.74Z</time></trkpt><trkpt lat="38.133705" lon="14.8418233"><ele>542.0</ele><time>2026-03-24T16:07:03.74Z</time></trkpt><trkpt lat="38.1337633" lon="14.8417233"><ele>542.0</ele><time>2026-03-24T16:07:05.739Z</time></trkpt><trkpt lat="38.1338083" lon="14.8416267"><ele>542.0</ele><time>2026-03-24T16:07:06.74Z</time></trkpt><trkpt lat="38.133855" lon="14.8414883"><ele>538.0</ele><time>2026-03-24T16:07:07.739Z</time></trkpt><trkpt lat="38.133905" lon="14.841335"><ele>534.0</ele><time>2026-03-24T16:07:08.739Z</time></trkpt><trkpt lat="38.133955" lon="14.841195"><ele>530.0</ele><time>2026-03-24T16:07:09.739Z</time></trkpt><trkpt lat="38.134" lon="14.84109"><ele>526.0</ele><time>2026-03-24T16:07:10.739Z</time></trkpt><trkpt lat="38.1340483" lon="14.8410117"><ele>522.0</ele><time>2026-03-24T16:07:11.74Z</time></trkpt><trkpt lat="38.1341133" lon="14.8409183"><ele>521.5</ele><time>2026-03-24T16:07:13.739Z</time></trkpt><trkpt lat="38.1341317" lon="14.8408283"><ele>521.0</ele><time>2026-03-24T16:07:15.739Z</time></trkpt><trkpt lat="38.1341633" lon="14.84074"><ele>520.5</ele><time>2026-03-24T16:07:17.74Z</time></trkpt><trkpt lat="38.134195" lon="14.84066"><ele>520.0</ele><time>2026-03-24T16:07:19.74Z</time></trkpt><trkpt lat="38.1342467" lon="14.8405983"><ele>519.5</ele><time>2026-03-24T16:07:21.74Z</time></trkpt><trkpt lat="38.1343083" lon="14.840545"><ele>519.0</ele><time>2026-03-24T16:07:24.739Z</time></trkpt><trkpt lat="38.134395" lon="14.8404833"><ele>519.0</ele><time>2026-03-24T16:07:26.74Z</time></trkpt><trkpt lat="38.1344517" lon="14.8404367"><ele>519.0</ele><time>2026-03-24T16:07:27.74Z</time></trkpt><trkpt lat="38.1345033" lon="14.8403583"><ele>519.0</ele><time>2026-03-24T16:07:28.739Z</time></trkpt><trkpt lat="38.134555" lon="14.8402517"><ele>519.0</ele><time>2026-03-24T16:07:29.739Z</time></trkpt><trkpt lat="38.1346133" lon="14.8401433"><ele>519.0</ele><time>2026-03-24T16:07:30.74Z</time></trkpt><trkpt lat="38.1346617" lon="14.8400283"><ele>517.4</ele><time>2026-03-24T16:07:31.74Z</time></trkpt><trkpt lat="38.134715" lon="14.8399083"><ele>515.8</ele><time>2026-03-24T16:07:32.74Z</time></trkpt><trkpt lat="38.1347583" lon="14.8398117"><ele>514.2</ele><time>2026-03-24T16:07:33.74Z</time></trkpt><trkpt lat="38.1348017" lon="14.8397283"><ele>512.6</ele><time>2026-03-24T16:07:34.74Z</time></trkpt><trkpt lat="38.1348317" lon="14.839655"><ele>511.0</ele><time>2026-03-24T16:07:35.74Z</time></trkpt><trkpt lat="38.1348583" lon="14.8395083"><ele>511.20000000000005</ele><time>2026-03-24T16:07:37.74Z</time></trkpt><trkpt lat="38.1348883" lon="14.8393633"><ele>511.40000000000003</ele><time>2026-03-24T16:07:39.739Z</time></trkpt><trkpt lat="38.134965" lon="14.83925"><ele>511.6</ele><time>2026-03-24T16:07:41.74Z</time></trkpt><trkpt lat="38.1350117" lon="14.8391867"><ele>511.8</ele><time>2026-03-24T16:07:42.739Z</time></trkpt><trkpt lat="38.1350533" lon="14.8391067"><ele>512.0</ele><time>2026-03-24T16:07:43.74Z</time></trkpt><trkpt lat="38.1351" lon="14.8390317"><ele>514.3333333333333</ele><time>2026-03-24T16:07:44.739Z</time></trkpt><trkpt lat="38.1351567" lon="14.8389567"><ele>516.6666666666666</ele><time>2026-03-24T16:07:45.739Z</time></trkpt><trkpt lat="38.1352233" lon="14.8388917"><ele>519.0</ele><time>2026-03-24T16:07:46.739Z</time></trkpt><trkpt lat="38.1353067" lon="14.838835"><ele>521.3333333333334</ele><time>2026-03-24T16:07:47.739Z</time></trkpt><trkpt lat="38.1353717" lon="14.8388"><ele>523.6666666666667</ele><time>2026-03-24T16:07:48.739Z</time></trkpt><trkpt lat="38.1354483" lon="14.8387733"><ele>526.0</ele><time>2026-03-24T16:07:49.74Z</time></trkpt><trkpt lat="38.1355283" lon="14.83873"><ele>526.0</ele><time>2026-03-24T16:07:50.74Z</time></trkpt><trkpt lat="38.1356083" lon="14.8386617"><ele>526.0</ele><time>2026-03-24T16:07:51.739Z</time></trkpt><trkpt lat="38.1356783" lon="14.8385733"><ele>526.0</ele><time>2026-03-24T16:07:52.739Z</time></trkpt><trkpt lat="38.1357383" lon="14.8384867"><ele>526.0</ele><time>2026-03-24T16:07:53.74Z</time></trkpt><trkpt lat="38.1357667" lon="14.8384083"><ele>526.0</ele><time>2026-03-24T16:07:54.74Z</time></trkpt><trkpt lat="38.1357867" lon="14.8382667"><ele>526.6</ele><time>2026-03-24T16:07:56.739Z</time></trkpt><trkpt lat="38.1357917" lon="14.8381167"><ele>527.2</ele><time>2026-03-24T16:07:58.74Z</time></trkpt><trkpt lat="38.1358417" lon="14.8380033"><ele>527.8</ele><time>2026-03-24T16:08:00.739Z</time></trkpt><trkpt lat="38.1359467" lon="14.837945"><ele>528.4</ele><time>2026-03-24T16:08:02.74Z</time></trkpt><trkpt lat="38.1360333" lon="14.8379467"><ele>529.0</ele><time>2026-03-24T16:08:03.74Z</time></trkpt><trkpt lat="38.1361267" lon="14.8379517"><ele>529.0</ele><time>2026-03-24T16:08:04.739Z</time></trkpt><trkpt lat="38.1362217" lon="14.83797"><ele>529.0</ele><time>2026-03-24T16:08:05.74Z</time></trkpt><trkpt lat="38.1363233" lon="14.8379783"><ele>529.0</ele><time>2026-03-24T16:08:06.74Z</time></trkpt><trkpt lat="38.1364033" lon="14.8379867"><ele>529.0</ele><time>2026-03-24T16:08:07.739Z</time></trkpt><trkpt lat="38.1364817" lon="14.8379833"><ele>529.0</ele><time>2026-03-24T16:08:08.739Z</time></trkpt><trkpt lat="38.1365467" lon="14.83795"><ele>529.0</ele><time>2026-03-24T16:08:09.74Z</time></trkpt><trkpt lat="38.1366" lon="14.8379"><ele>529.8</ele><time>2026-03-24T16:08:10.74Z</time></trkpt><trkpt lat="38.1366483" lon="14.8378167"><ele>530.5999999999999</ele><time>2026-03-24T16:08:11.74Z</time></trkpt><trkpt lat="38.13669" lon="14.8377017"><ele>531.4</ele><time>2026-03-24T16:08:12.74Z</time></trkpt><trkpt lat="38.1367233" lon="14.8375867"><ele>532.1999999999999</ele><time>2026-03-24T16:08:13.739Z</time></trkpt><trkpt lat="38.1367583" lon="14.8374783"><ele>533.0</ele><time>2026-03-24T16:08:14.74Z</time></trkpt><trkpt lat="38.1368" lon="14.837385"><ele>530.0</ele><time>2026-03-24T16:08:15.739Z</time></trkpt><trkpt lat="38.1368533" lon="14.83731"><ele>527.0</ele><time>2026-03-24T16:08:16.74Z</time></trkpt><trkpt lat="38.1369133" lon="14.837255"><ele>524.0</ele><time>2026-03-24T16:08:17.74Z</time></trkpt><trkpt lat="38.1369817" lon="14.837225"><ele>521.0</ele><time>2026-03-24T16:08:18.74Z</time></trkpt><trkpt lat="38.13705" lon="14.8372233"><ele>518.0</ele><time>2026-03-24T16:08:19.74Z</time></trkpt><trkpt lat="38.1371167" lon="14.8372567"><ele>515.0</ele><time>2026-03-24T16:08:20.74Z</time></trkpt><trkpt lat="38.1371817" lon="14.8372817"><ele>512.0</ele><time>2026-03-24T16:08:21.739Z</time></trkpt><trkpt lat="38.1372483" lon="14.8372883"><ele>511.99999999999994</ele><time>2026-03-24T16:08:22.74Z</time></trkpt><trkpt lat="38.1373133" lon="14.83728"><ele>512.0</ele><time>2026-03-24T16:08:23.739Z</time></trkpt><trkpt lat="38.1373767" lon="14.83726"><ele>512.0</ele><time>2026-03-24T16:08:24.739Z</time></trkpt><trkpt lat="38.1374233" lon="14.8372"><ele>512.0</ele><time>2026-03-24T16:08:25.74Z</time></trkpt><trkpt lat="38.137465" lon="14.83714"><ele>511.99999999999994</ele><time>2026-03-24T16:08:26.74Z</time></trkpt><trkpt lat="38.1375317" lon="14.8370033"><ele>512.0</ele><time>2026-03-24T16:08:28.74Z</time></trkpt><trkpt lat="38.1375733" lon="14.8369383"><ele>513.3333333333333</ele><time>2026-03-24T16:08:29.74Z</time></trkpt><trkpt lat="38.1376733" lon="14.8368567"><ele>514.6666666666666</ele><time>2026-03-24T16:08:31.74Z</time></trkpt><trkpt lat="38.1377333" lon="14.83683"><ele>516.0</ele><time>2026-03-24T16:08:32.739Z</time></trkpt><trkpt lat="38.1378" lon="14.836805"><ele>517.3333333333334</ele><time>2026-03-24T16:08:33.74Z</time></trkpt><trkpt lat="38.1378617" lon="14.8367833"><ele>518.6666666666667</ele><time>2026-03-24T16:08:34.74Z</time></trkpt><trkpt lat="38.1379367" lon="14.8367583"><ele>520.0</ele><time>2026-03-24T16:08:36.74Z</time></trkpt><trkpt lat="38.1378633" lon="14.836835"><ele>520.0000000000001</ele><time>2026-03-24T16:08:41.739Z</time></trkpt><trkpt lat="38.1377967" lon="14.83686"><ele>520.0</ele><time>2026-03-24T16:08:42.74Z</time></trkpt><trkpt lat="38.13773" lon="14.8368883"><ele>520.0</ele><time>2026-03-24T16:08:43.74Z</time></trkpt><trkpt lat="38.1376633" lon="14.8369133"><ele>520.0</ele><time>2026-03-24T16:08:44.74Z</time></trkpt><trkpt lat="38.1376" lon="14.83696"><ele>520.0</ele><time>2026-03-24T16:08:45.74Z</time></trkpt><trkpt lat="38.13754" lon="14.837025"><ele>520.0000000000001</ele><time>2026-03-24T16:08:46.74Z</time></trkpt><trkpt lat="38.1374867" lon="14.8370933"><ele>520.0</ele><time>2026-03-24T16:08:47.739Z</time></trkpt><trkpt lat="38.1374433" lon="14.8371567"><ele>520.0</ele><time>2026-03-24T16:08:48.74Z</time></trkpt><trkpt lat="38.1373983" lon="14.83722"><ele>520.0</ele><time>2026-03-24T16:08:49.74Z</time></trkpt><trkpt lat="38.1373017" lon="14.8373167"><ele>520.0</ele><time>2026-03-24T16:08:51.74Z</time></trkpt><trkpt lat="38.13723" lon="14.837305"><ele>520.0</ele><time>2026-03-24T16:08:52.74Z</time></trkpt><trkpt lat="38.1371433" lon="14.8372583"><ele>520.0</ele><time>2026-03-24T16:08:53.74Z</time></trkpt><trkpt lat="38.1370533" lon="14.837185"><ele>518.4</ele><time>2026-03-24T16:08:54.74Z</time></trkpt><trkpt lat="38.13696" lon="14.8371283"><ele>516.8</ele><time>2026-03-24T16:08:55.739Z</time></trkpt><trkpt lat="38.1368717" lon="14.83711"><ele>515.2</ele><time>2026-03-24T16:08:56.74Z</time></trkpt><trkpt lat="38.1367817" lon="14.8371117"><ele>513.6</ele><time>2026-03-24T16:08:57.739Z</time></trkpt><trkpt lat="38.1366983" lon="14.83714"><ele>512.0</ele><time>2026-03-24T16:08:58.74Z</time></trkpt><trkpt lat="38.1366167" lon="14.8371967"><ele>511.16666666666663</ele><time>2026-03-24T16:08:59.74Z</time></trkpt><trkpt lat="38.1365483" lon="14.83727"><ele>510.3333333333333</ele><time>2026-03-24T16:09:00.739Z</time></trkpt><trkpt lat="38.1364867" lon="14.8373383"><ele>509.5</ele><time>2026-03-24T16:09:01.739Z</time></trkpt><trkpt lat="38.1364283" lon="14.8373883"><ele>508.66666666666663</ele><time>2026-03-24T16:09:02.74Z</time></trkpt><trkpt lat="38.1363067" lon="14.8374167"><ele>507.8333333333333</ele><time>2026-03-24T16:09:04.74Z</time></trkpt><trkpt lat="38.1362317" lon="14.837375"><ele>507.0</ele><time>2026-03-24T16:09:05.74Z</time></trkpt><trkpt lat="38.13614" lon="14.83731"><ele>507.0</ele><time>2026-03-24T16:09:06.739Z</time></trkpt><trkpt lat="38.136025" lon="14.837215"><ele>507.0</ele><time>2026-03-24T16:09:07.74Z</time></trkpt><trkpt lat="38.1359067" lon="14.8371467"><ele>507.0</ele><time>2026-03-24T16:09:08.74Z</time></trkpt><trkpt lat="38.1358017" lon="14.837105"><ele>507.0</ele><time>2026-03-24T16:09:09.74Z</time></trkpt><trkpt lat="38.1357083" lon="14.8370767"><ele>506.8333333333333</ele><time>2026-03-24T16:09:10.74Z</time></trkpt><trkpt lat="38.13563" lon="14.8370533"><ele>506.66666666666663</ele><time>2026-03-24T16:09:11.74Z</time></trkpt><trkpt lat="38.13556" lon="14.836995"><ele>506.5</ele><time>2026-03-24T16:09:13.74Z</time></trkpt><trkpt lat="38.135525" lon="14.83692"><ele>506.3333333333333</ele><time>2026-03-24T16:09:14.74Z</time></trkpt><trkpt lat="38.1354917" lon="14.8368117"><ele>506.16666666666663</ele><time>2026-03-24T16:09:15.74Z</time></trkpt><trkpt lat="38.1354683" lon="14.8366617"><ele>506.0</ele><time>2026-03-24T16:09:16.74Z</time></trkpt><trkpt lat="38.135455" lon="14.8364883"><ele>506.0</ele><time>2026-03-24T16:09:17.739Z</time></trkpt><trkpt lat="38.135465" lon="14.83627"><ele>506.0</ele><time>2026-03-24T16:09:18.74Z</time></trkpt><trkpt lat="38.1354917" lon="14.8360267"><ele>506.0</ele><time>2026-03-24T16:09:19.74Z</time></trkpt><trkpt lat="38.1355067" lon="14.8358733"><ele>501.4</ele><time>2026-03-24T16:09:20.74Z</time></trkpt><trkpt lat="38.1355433" lon="14.835745"><ele>496.8</ele><time>2026-03-24T16:09:21.74Z</time></trkpt><trkpt lat="38.135545" lon="14.83562"><ele>492.19999999999993</ele><time>2026-03-24T16:09:22.74Z</time></trkpt><trkpt lat="38.1355367" lon="14.8355167"><ele>487.59999999999997</ele><time>2026-03-24T16:09:23.74Z</time></trkpt><trkpt lat="38.1355033" lon="14.8354367"><ele>483.0</ele><time>2026-03-24T16:09:24.739Z</time></trkpt><trkpt lat="38.135365" lon="14.8353933"><ele>483.0</ele><time>2026-03-24T16:09:26.74Z</time></trkpt><trkpt lat="38.1352583" lon="14.8353883"><ele>482.99999999999994</ele><time>2026-03-24T16:09:27.74Z</time></trkpt><trkpt lat="38.1351583" lon="14.83537"><ele>482.99999999999994</ele><time>2026-03-24T16:09:28.74Z</time></trkpt><trkpt lat="38.1350767" lon="14.835345"><ele>483.0</ele><time>2026-03-24T16:09:29.74Z</time></trkpt><trkpt lat="38.1350167" lon="14.8353083"><ele>483.0</ele><time>2026-03-24T16:09:30.739Z</time></trkpt><trkpt lat="38.1349267" lon="14.835195"><ele>479.2</ele><time>2026-03-24T16:09:32.739Z</time></trkpt><trkpt lat="38.1348583" lon="14.8350783"><ele>475.4</ele><time>2026-03-24T16:09:34.74Z</time></trkpt><trkpt lat="38.1347967" lon="14.83497"><ele>471.59999999999997</ele><time>2026-03-24T16:09:36.739Z</time></trkpt><trkpt lat="38.1347767" lon="14.8348583"><ele>467.79999999999995</ele><time>2026-03-24T16:09:38.739Z</time></trkpt><trkpt lat="38.1348067" lon="14.834725"><ele>464.0</ele><time>2026-03-24T16:09:40.739Z</time></trkpt><trkpt lat="38.1348333" lon="14.8346167"><ele>463.99999999999994</ele><time>2026-03-24T16:09:42.74Z</time></trkpt><trkpt lat="38.1348767" lon="14.83453"><ele>464.0</ele><time>2026-03-24T16:09:47.74Z</time></trkpt><trkpt lat="38.1348417" lon="14.834435"><ele>464.0</ele><time>2026-03-24T16:09:50.739Z</time></trkpt><trkpt lat="38.1348783" lon="14.8343633"><ele>464.0</ele><time>2026-03-24T16:09:53.74Z</time></trkpt><trkpt lat="38.13495" lon="14.8344"><ele>463.99999999999994</ele><time>2026-03-24T16:09:56.741Z</time></trkpt><trkpt lat="38.134865" lon="14.8343833"><ele>464.0</ele><time>2026-03-24T16:10:05.741Z</time></trkpt><trkpt lat="38.13483" lon="14.834465"><ele>463.99999999999994</ele><time>2026-03-24T16:10:07.741Z</time></trkpt><trkpt lat="38.1348583" lon="14.8346033"><ele>464.0</ele><time>2026-03-24T16:10:09.74Z</time></trkpt><trkpt lat="38.1348933" lon="14.8346817"><ele>464.0</ele><time>2026-03-24T16:10:10.741Z</time></trkpt><trkpt lat="38.1349333" lon="14.8347683"><ele>464.0</ele><time>2026-03-24T16:10:11.741Z</time></trkpt><trkpt lat="38.1349683" lon="14.8348733"><ele>463.99999999999994</ele><time>2026-03-24T16:10:12.741Z</time></trkpt><trkpt lat="38.1350033" lon="14.8349683"><ele>464.0</ele><time>2026-03-24T16:10:13.741Z</time></trkpt><trkpt lat="38.1350517" lon="14.835025"><ele>463.79999999999995</ele><time>2026-03-24T16:10:14.741Z</time></trkpt><trkpt lat="38.135135" lon="14.835065"><ele>463.59999999999997</ele><time>2026-03-24T16:10:15.74Z</time></trkpt><trkpt lat="38.1352383" lon="14.8350833"><ele>463.4</ele><time>2026-03-24T16:10:16.741Z</time></trkpt><trkpt lat="38.1353383" lon="14.835085"><ele>463.2</ele><time>2026-03-24T16:10:17.74Z</time></trkpt><trkpt lat="38.1354267" lon="14.8350667"><ele>463.0</ele><time>2026-03-24T16:10:18.74Z</time></trkpt><trkpt lat="38.1355" lon="14.83502"><ele>463.0</ele><time>2026-03-24T16:10:19.74Z</time></trkpt><trkpt lat="38.1355717" lon="14.8349933"><ele>462.99999999999994</ele><time>2026-03-24T16:10:20.741Z</time></trkpt><trkpt lat="38.1356617" lon="14.8349467"><ele>462.99999999999994</ele><time>2026-03-24T16:10:22.741Z</time></trkpt><trkpt lat="38.13566" lon="14.8348583"><ele>463.0</ele><time>2026-03-24T16:10:24.741Z</time></trkpt><trkpt lat="38.1355433" lon="14.8348367"><ele>463.0</ele><time>2026-03-24T16:10:26.74Z</time></trkpt><trkpt lat="38.1354383" lon="14.8348567"><ele>463.0</ele><time>2026-03-24T16:10:27.74Z</time></trkpt><trkpt lat="38.1353383" lon="14.8348483"><ele>462.99999999999994</ele><time>2026-03-24T16:10:28.74Z</time></trkpt><trkpt lat="38.1352567" lon="14.8348183"><ele>462.99999999999994</ele><time>2026-03-24T16:10:29.74Z</time></trkpt><trkpt lat="38.1351983" lon="14.8347733"><ele>463.0</ele><time>2026-03-24T16:10:30.741Z</time></trkpt><trkpt lat="38.13513" lon="14.83466"><ele>463.0</ele><time>2026-03-24T16:10:32.741Z</time></trkpt><trkpt lat="38.1351317" lon="14.8345067"><ele>463.00000000000006</ele><time>2026-03-24T16:10:34.741Z</time></trkpt><trkpt lat="38.1351367" lon="14.83435"><ele>463.0</ele><time>2026-03-24T16:10:36.74Z</time></trkpt><trkpt lat="38.1351317" lon="14.8342667"><ele>463.0</ele><time>2026-03-24T16:10:37.74Z</time></trkpt><trkpt lat="38.1351183" lon="14.834185"><ele>463.0</ele><time>2026-03-24T16:10:38.741Z</time></trkpt><trkpt lat="38.1351083" lon="14.83406"><ele>463.00000000000006</ele><time>2026-03-24T16:10:40.741Z</time></trkpt><trkpt lat="38.135135" lon="14.83397"><ele>463.0</ele><time>2026-03-24T16:10:42.741Z</time></trkpt><trkpt lat="38.1352" lon="14.833865"><ele>460.4</ele><time>2026-03-24T16:10:44.74Z</time></trkpt><trkpt lat="38.13525" lon="14.83379"><ele>457.79999999999995</ele><time>2026-03-24T16:10:45.741Z</time></trkpt><trkpt lat="38.1353183" lon="14.8336883"><ele>455.2</ele><time>2026-03-24T16:10:46.74Z</time></trkpt><trkpt lat="38.1353833" lon="14.83358"><ele>452.6</ele><time>2026-03-24T16:10:47.741Z</time></trkpt><trkpt lat="38.1354467" lon="14.8334767"><ele>450.0</ele><time>2026-03-24T16:10:48.74Z</time></trkpt><trkpt lat="38.1355083" lon="14.8333717"><ele>449.8333333333333</ele><time>2026-03-24T16:10:49.741Z</time></trkpt><trkpt lat="38.1355733" lon="14.83327"><ele>449.66666666666663</ele><time>2026-03-24T16:10:50.741Z</time></trkpt><trkpt lat="38.1356183" lon="14.8331733"><ele>449.5</ele><time>2026-03-24T16:10:51.74Z</time></trkpt><trkpt lat="38.1356633" lon="14.8330767"><ele>449.3333333333333</ele><time>2026-03-24T16:10:52.74Z</time></trkpt><trkpt lat="38.1356967" lon="14.8329833"><ele>449.16666666666663</ele><time>2026-03-24T16:10:53.741Z</time></trkpt><trkpt lat="38.1357233" lon="14.8328833"><ele>449.0</ele><time>2026-03-24T16:10:54.741Z</time></trkpt><trkpt lat="38.1357633" lon="14.8327817"><ele>444.8333333333333</ele><time>2026-03-24T16:10:55.741Z</time></trkpt><trkpt lat="38.1358083" lon="14.8326933"><ele>440.66666666666663</ele><time>2026-03-24T16:10:56.741Z</time></trkpt><trkpt lat="38.1358567" lon="14.8326117"><ele>436.5</ele><time>2026-03-24T16:10:57.741Z</time></trkpt><trkpt lat="38.135915" lon="14.832525"><ele>432.33333333333337</ele><time>2026-03-24T16:10:58.741Z</time></trkpt><trkpt lat="38.1359733" lon="14.8324333"><ele>428.1666666666667</ele><time>2026-03-24T16:10:59.741Z</time></trkpt><trkpt lat="38.1360167" lon="14.8323283"><ele>424.0</ele><time>2026-03-24T16:11:00.741Z</time></trkpt><trkpt lat="38.1360517" lon="14.8322267"><ele>424.00000000000006</ele><time>2026-03-24T16:11:01.741Z</time></trkpt><trkpt lat="38.136075" lon="14.8321217"><ele>424.0</ele><time>2026-03-24T16:11:02.741Z</time></trkpt><trkpt lat="38.1361" lon="14.83203"><ele>424.0</ele><time>2026-03-24T16:11:03.74Z</time></trkpt><trkpt lat="38.13611" lon="14.83193"><ele>424.0</ele><time>2026-03-24T16:11:04.74Z</time></trkpt><trkpt lat="38.1361033" lon="14.83183"><ele>424.00000000000006</ele><time>2026-03-24T16:11:05.74Z</time></trkpt><trkpt lat="38.1360833" lon="14.8317183"><ele>424.0</ele><time>2026-03-24T16:11:06.741Z</time></trkpt><trkpt lat="38.1360383" lon="14.8316033"><ele>422.4</ele><time>2026-03-24T16:11:07.74Z</time></trkpt><trkpt lat="38.1359683" lon="14.8314767"><ele>420.79999999999995</ele><time>2026-03-24T16:11:08.741Z</time></trkpt><trkpt lat="38.1358917" lon="14.8313883"><ele>419.20000000000005</ele><time>2026-03-24T16:11:09.74Z</time></trkpt><trkpt lat="38.1358083" lon="14.8313283"><ele>417.6</ele><time>2026-03-24T16:11:10.74Z</time></trkpt><trkpt lat="38.1357283" lon="14.8312967"><ele>416.0</ele><time>2026-03-24T16:11:11.74Z</time></trkpt><trkpt lat="38.135665" lon="14.8312783"><ele>416.0</ele><time>2026-03-24T16:11:12.741Z</time></trkpt><trkpt lat="38.1357767" lon="14.8312433"><ele>416.0</ele><time>2026-03-24T16:11:16.741Z</time></trkpt><trkpt lat="38.1359067" lon="14.83131"><ele>416.0</ele><time>2026-03-24T16:11:17.74Z</time></trkpt><trkpt lat="38.1360317" lon="14.8313967"><ele>416.0</ele><time>2026-03-24T16:11:18.741Z</time></trkpt><trkpt lat="38.1361317" lon="14.8314833"><ele>415.99999999999994</ele><time>2026-03-24T16:11:19.74Z</time></trkpt><trkpt lat="38.1362133" lon="14.8315633"><ele>416.0</ele><time>2026-03-24T16:11:20.741Z</time></trkpt><trkpt lat="38.1362883" lon="14.8316383"><ele>416.0</ele><time>2026-03-24T16:11:21.741Z</time></trkpt><trkpt lat="38.136355" lon="14.831715"><ele>416.0</ele><time>2026-03-24T16:11:22.741Z</time></trkpt><trkpt lat="38.136415" lon="14.8317833"><ele>415.99999999999994</ele><time>2026-03-24T16:11:23.741Z</time></trkpt><trkpt lat="38.1364667" lon="14.83186"><ele>416.0</ele><time>2026-03-24T16:11:24.74Z</time></trkpt><trkpt lat="38.1364933" lon="14.83194"><ele>416.0</ele><time>2026-03-24T16:11:25.741Z</time></trkpt><trkpt lat="38.1365283" lon="14.8320367"><ele>416.0</ele><time>2026-03-24T16:11:27.741Z</time></trkpt><trkpt lat="38.13656" lon="14.8318833"><ele>416.0</ele><time>2026-03-24T16:11:30.741Z</time></trkpt><trkpt lat="38.1365417" lon="14.8317717"><ele>416.0</ele><time>2026-03-24T16:11:31.74Z</time></trkpt><trkpt lat="38.1364983" lon="14.831665"><ele>416.0</ele><time>2026-03-24T16:11:32.74Z</time></trkpt><trkpt lat="38.1364383" lon="14.8315567"><ele>416.0</ele><time>2026-03-24T16:11:33.741Z</time></trkpt><trkpt lat="38.1363767" lon="14.8314417"><ele>416.0</ele><time>2026-03-24T16:11:34.741Z</time></trkpt><trkpt lat="38.1363283" lon="14.8313233"><ele>416.0</ele><time>2026-03-24T16:11:35.74Z</time></trkpt><trkpt lat="38.1362867" lon="14.8312067"><ele>416.0</ele><time>2026-03-24T16:11:36.74Z</time></trkpt><trkpt lat="38.1362517" lon="14.831095"><ele>416.0</ele><time>2026-03-24T16:11:37.74Z</time></trkpt><trkpt lat="38.13621" lon="14.831"><ele>409.0</ele><time>2026-03-24T16:11:38.741Z</time></trkpt><trkpt lat="38.1361633" lon="14.8309083"><ele>402.0</ele><time>2026-03-24T16:11:39.74Z</time></trkpt><trkpt lat="38.1361" lon="14.8308333"><ele>395.0</ele><time>2026-03-24T16:11:40.741Z</time></trkpt><trkpt lat="38.1360083" lon="14.830765"><ele>388.0</ele><time>2026-03-24T16:11:41.74Z</time></trkpt><trkpt lat="38.1359117" lon="14.8307017"><ele>381.0</ele><time>2026-03-24T16:11:42.74Z</time></trkpt><trkpt lat="38.1358217" lon="14.8306517"><ele>381.0</ele><time>2026-03-24T16:11:43.74Z</time></trkpt><trkpt lat="38.1357417" lon="14.8306117"><ele>381.0</ele><time>2026-03-24T16:11:44.74Z</time></trkpt><trkpt lat="38.1356683" lon="14.830585"><ele>381.0</ele><time>2026-03-24T16:11:45.741Z</time></trkpt><trkpt lat="38.1355883" lon="14.8305283"><ele>381.0</ele><time>2026-03-24T16:11:47.741Z</time></trkpt><trkpt lat="38.1357017" lon="14.8304933"><ele>381.0</ele><time>2026-03-24T16:11:50.74Z</time></trkpt><trkpt lat="38.1357883" lon="14.8305267"><ele>381.0</ele><time>2026-03-24T16:11:51.74Z</time></trkpt><trkpt lat="38.13591" lon="14.8305767"><ele>381.0</ele><time>2026-03-24T16:11:52.74Z</time></trkpt><trkpt lat="38.1360417" lon="14.8306167"><ele>381.0</ele><time>2026-03-24T16:11:53.74Z</time></trkpt><trkpt lat="38.1361633" lon="14.8306517"><ele>381.0</ele><time>2026-03-24T16:11:54.741Z</time></trkpt><trkpt lat="38.136265" lon="14.8307"><ele>381.0</ele><time>2026-03-24T16:11:55.741Z</time></trkpt><trkpt lat="38.1363517" lon="14.8307633"><ele>381.0</ele><time>2026-03-24T16:11:56.741Z</time></trkpt><trkpt lat="38.1364117" lon="14.8308383"><ele>381.0</ele><time>2026-03-24T16:11:57.741Z</time></trkpt><trkpt lat="38.13646" lon="14.8309283"><ele>381.0</ele><time>2026-03-24T16:11:58.741Z</time></trkpt><trkpt lat="38.1365083" lon="14.8310283"><ele>381.0</ele><time>2026-03-24T16:11:59.741Z</time></trkpt><trkpt lat="38.1365583" lon="14.8311183"><ele>381.0</ele><time>2026-03-24T16:12:00.741Z</time></trkpt><trkpt lat="38.1366083" lon="14.8312067"><ele>377.8</ele><time>2026-03-24T16:12:01.741Z</time></trkpt><trkpt lat="38.13667" lon="14.8312867"><ele>374.6</ele><time>2026-03-24T16:12:02.741Z</time></trkpt><trkpt lat="38.1367333" lon="14.8313833"><ele>371.4</ele><time>2026-03-24T16:12:03.741Z</time></trkpt><trkpt lat="38.1368117" lon="14.83147"><ele>368.2</ele><time>2026-03-24T16:12:04.74Z</time></trkpt><trkpt lat="38.1368917" lon="14.8315517"><ele>365.0</ele><time>2026-03-24T16:12:05.741Z</time></trkpt><trkpt lat="38.1369617" lon="14.8316267"><ele>365.0</ele><time>2026-03-24T16:12:06.741Z</time></trkpt><trkpt lat="38.137035" lon="14.83169"><ele>365.0</ele><time>2026-03-24T16:12:07.74Z</time></trkpt><trkpt lat="38.1370933" lon="14.8317583"><ele>365.0</ele><time>2026-03-24T16:12:08.74Z</time></trkpt><trkpt lat="38.1371467" lon="14.8318317"><ele>365.0</ele><time>2026-03-24T16:12:09.741Z</time></trkpt><trkpt lat="38.13718" lon="14.831915"><ele>365.0</ele><time>2026-03-24T16:12:10.741Z</time></trkpt><trkpt lat="38.1372" lon="14.83202"><ele>365.0</ele><time>2026-03-24T16:12:11.741Z</time></trkpt><trkpt lat="38.137205" lon="14.8321517"><ele>367.4</ele><time>2026-03-24T16:12:12.74Z</time></trkpt><trkpt lat="38.1371917" lon="14.832285"><ele>369.8</ele><time>2026-03-24T16:12:13.741Z</time></trkpt><trkpt lat="38.13718" lon="14.832395"><ele>372.20000000000005</ele><time>2026-03-24T16:12:14.741Z</time></trkpt><trkpt lat="38.1371833" lon="14.8324933"><ele>374.6</ele><time>2026-03-24T16:12:15.741Z</time></trkpt><trkpt lat="38.1372117" lon="14.832625"><ele>377.0</ele><time>2026-03-24T16:12:17.74Z</time></trkpt><trkpt lat="38.1372517" lon="14.832535"><ele>377.0</ele><time>2026-03-24T16:12:21.741Z</time></trkpt><trkpt lat="38.1372483" lon="14.8323983"><ele>377.0</ele><time>2026-03-24T16:12:22.741Z</time></trkpt><trkpt lat="38.13726" lon="14.83222"><ele>377.0</ele><time>2026-03-24T16:12:23.741Z</time></trkpt><trkpt lat="38.1372917" lon="14.8320383"><ele>377.0</ele><time>2026-03-24T16:12:24.741Z</time></trkpt><trkpt lat="38.137305" lon="14.8318767"><ele>374.0</ele><time>2026-03-24T16:12:25.741Z</time></trkpt><trkpt lat="38.1373017" lon="14.83174"><ele>371.0</ele><time>2026-03-24T16:12:26.741Z</time></trkpt><trkpt lat="38.1372667" lon="14.8316"><ele>368.0</ele><time>2026-03-24T16:12:27.741Z</time></trkpt><trkpt lat="38.1372083" lon="14.8314633"><ele>365.0</ele><time>2026-03-24T16:12:28.741Z</time></trkpt><trkpt lat="38.1371583" lon="14.83132"><ele>365.0</ele><time>2026-03-24T16:12:29.741Z</time></trkpt><trkpt lat="38.1371117" lon="14.831205"><ele>365.0</ele><time>2026-03-24T16:12:30.741Z</time></trkpt><trkpt lat="38.1370817" lon="14.8310917"><ele>365.0</ele><time>2026-03-24T16:12:31.741Z</time></trkpt><trkpt lat="38.1370483" lon="14.8309783"><ele>365.0</ele><time>2026-03-24T16:12:32.741Z</time></trkpt><trkpt lat="38.1370083" lon="14.8308733"><ele>365.0</ele><time>2026-03-24T16:12:33.741Z</time></trkpt><trkpt lat="38.1369767" lon="14.83076"><ele>359.6666666666667</ele><time>2026-03-24T16:12:34.741Z</time></trkpt><trkpt lat="38.1369383" lon="14.83066"><ele>354.33333333333337</ele><time>2026-03-24T16:12:35.741Z</time></trkpt><trkpt lat="38.1369033" lon="14.8305683"><ele>349.0</ele><time>2026-03-24T16:12:36.741Z</time></trkpt><trkpt lat="38.1368767" lon="14.8304783"><ele>343.6666666666667</ele><time>2026-03-24T16:12:37.741Z</time></trkpt><trkpt lat="38.1368583" lon="14.8303733"><ele>338.3333333333333</ele><time>2026-03-24T16:12:38.74Z</time></trkpt><trkpt lat="38.1368333" lon="14.830275"><ele>333.0</ele><time>2026-03-24T16:12:39.741Z</time></trkpt><trkpt lat="38.136805" lon="14.8301733"><ele>333.75</ele><time>2026-03-24T16:12:40.74Z</time></trkpt><trkpt lat="38.1367633" lon="14.830075"><ele>334.5</ele><time>2026-03-24T16:12:41.741Z</time></trkpt><trkpt lat="38.1367067" lon="14.82997"><ele>335.25</ele><time>2026-03-24T16:12:42.74Z</time></trkpt><trkpt lat="38.1366083" lon="14.82984"><ele>336.0</ele><time>2026-03-24T16:12:43.741Z</time></trkpt><trkpt lat="38.1365" lon="14.8297017"><ele>336.0</ele><time>2026-03-24T16:12:44.741Z</time></trkpt><trkpt lat="38.1364" lon="14.82957"><ele>336.0</ele><time>2026-03-24T16:12:45.74Z</time></trkpt><trkpt lat="38.1363167" lon="14.829445"><ele>336.0</ele><time>2026-03-24T16:12:46.741Z</time></trkpt><trkpt lat="38.1362417" lon="14.829315"><ele>336.0</ele><time>2026-03-24T16:12:47.74Z</time></trkpt><trkpt lat="38.1361817" lon="14.8292017"><ele>330.0</ele><time>2026-03-24T16:12:48.74Z</time></trkpt><trkpt lat="38.136125" lon="14.8291183"><ele>324.0</ele><time>2026-03-24T16:12:49.741Z</time></trkpt><trkpt lat="38.1360617" lon="14.82906"><ele>318.0</ele><time>2026-03-24T16:12:50.741Z</time></trkpt><trkpt lat="38.135975" lon="14.8289933"><ele>312.0</ele><time>2026-03-24T16:12:52.74Z</time></trkpt><trkpt lat="38.1360017" lon="14.82892"><ele>306.0</ele><time>2026-03-24T16:12:54.741Z</time></trkpt><trkpt lat="38.136075" lon="14.8288883"><ele>300.0</ele><time>2026-03-24T16:12:55.741Z</time></trkpt><trkpt lat="38.1361667" lon="14.828885"><ele>300.0</ele><time>2026-03-24T16:12:56.741Z</time></trkpt><trkpt lat="38.136245" lon="14.8289233"><ele>300.0</ele><time>2026-03-24T16:12:57.741Z</time></trkpt><trkpt lat="38.1363183" lon="14.829005"><ele>300.0</ele><time>2026-03-24T16:12:58.741Z</time></trkpt><trkpt lat="38.13638" lon="14.8291067"><ele>300.0</ele><time>2026-03-24T16:12:59.741Z</time></trkpt><trkpt lat="38.1364383" lon="14.829205"><ele>300.0</ele><time>2026-03-24T16:13:00.74Z</time></trkpt><trkpt lat="38.1365133" lon="14.829295"><ele>303.0</ele><time>2026-03-24T16:13:01.74Z</time></trkpt><trkpt lat="38.13662" lon="14.8293817"><ele>306.0</ele><time>2026-03-24T16:13:02.74Z</time></trkpt><trkpt lat="38.1367467" lon="14.8294617"><ele>309.0</ele><time>2026-03-24T16:13:03.741Z</time></trkpt><trkpt lat="38.1368683" lon="14.829495"><ele>312.0</ele><time>2026-03-24T16:13:04.741Z</time></trkpt><trkpt lat="38.136985" lon="14.82951"><ele>312.0</ele><time>2026-03-24T16:13:05.74Z</time></trkpt><trkpt lat="38.137085" lon="14.829505"><ele>312.0</ele><time>2026-03-24T16:13:06.741Z</time></trkpt><trkpt lat="38.137175" lon="14.8294983"><ele>312.0</ele><time>2026-03-24T16:13:07.74Z</time></trkpt><trkpt lat="38.1372467" lon="14.8295133"><ele>312.0</ele><time>2026-03-24T16:13:08.741Z</time></trkpt><trkpt lat="38.13734" lon="14.8296383"><ele>312.0</ele><time>2026-03-24T16:13:10.741Z</time></trkpt><trkpt lat="38.1373883" lon="14.8297717"><ele>307.25</ele><time>2026-03-24T16:13:11.741Z</time></trkpt><trkpt lat="38.1374667" lon="14.82992"><ele>302.5</ele><time>2026-03-24T16:13:12.741Z</time></trkpt><trkpt lat="38.1375617" lon="14.83007"><ele>297.75</ele><time>2026-03-24T16:13:13.74Z</time></trkpt><trkpt lat="38.13766" lon="14.8301967"><ele>293.0</ele><time>2026-03-24T16:13:14.741Z</time></trkpt><trkpt lat="38.1377433" lon="14.8302917"><ele>293.0</ele><time>2026-03-24T16:13:15.74Z</time></trkpt><trkpt lat="38.1378167" lon="14.8303967"><ele>293.0</ele><time>2026-03-24T16:13:16.74Z</time></trkpt><trkpt lat="38.1378767" lon="14.8305167"><ele>293.0</ele><time>2026-03-24T16:13:17.741Z</time></trkpt><trkpt lat="38.1379333" lon="14.8306567"><ele>293.0</ele><time>2026-03-24T16:13:18.74Z</time></trkpt><trkpt lat="38.1379717" lon="14.8307817"><ele>293.0</ele><time>2026-03-24T16:13:19.74Z</time></trkpt><trkpt lat="38.1379883" lon="14.8309"><ele>293.0</ele><time>2026-03-24T16:13:20.741Z</time></trkpt><trkpt lat="38.137995" lon="14.8310117"><ele>293.0</ele><time>2026-03-24T16:13:21.741Z</time></trkpt><trkpt lat="38.1380017" lon="14.831115"><ele>293.0</ele><time>2026-03-24T16:13:22.74Z</time></trkpt><trkpt lat="38.1380133" lon="14.8312083"><ele>293.0</ele><time>2026-03-24T16:13:23.741Z</time></trkpt><trkpt lat="38.13804" lon="14.8312933"><ele>293.0</ele><time>2026-03-24T16:13:24.741Z</time></trkpt><trkpt lat="38.1380933" lon="14.83137"><ele>290.2</ele><time>2026-03-24T16:13:25.741Z</time></trkpt><trkpt lat="38.13817" lon="14.83143"><ele>287.4</ele><time>2026-03-24T16:13:26.741Z</time></trkpt><trkpt lat="38.138255" lon="14.8314733"><ele>284.59999999999997</ele><time>2026-03-24T16:13:27.741Z</time></trkpt><trkpt lat="38.1383583" lon="14.831485"><ele>281.8</ele><time>2026-03-24T16:13:28.741Z</time></trkpt><trkpt lat="38.13849" lon="14.8315"><ele>279.0</ele><time>2026-03-24T16:13:29.741Z</time></trkpt><trkpt lat="38.1386117" lon="14.8315017"><ele>279.0</ele><time>2026-03-24T16:13:30.741Z</time></trkpt><trkpt lat="38.13873" lon="14.8314983"><ele>279.0</ele><time>2026-03-24T16:13:31.741Z</time></trkpt><trkpt lat="38.13884" lon="14.83149"><ele>279.0</ele><time>2026-03-24T16:13:32.74Z</time></trkpt><trkpt lat="38.1389317" lon="14.8314817"><ele>279.0</ele><time>2026-03-24T16:13:33.741Z</time></trkpt><trkpt lat="38.139015" lon="14.8314567"><ele>279.0</ele><time>2026-03-24T16:13:34.741Z</time></trkpt><trkpt lat="38.1390933" lon="14.8314083"><ele>274.2</ele><time>2026-03-24T16:13:35.741Z</time></trkpt><trkpt lat="38.1391617" lon="14.8313383"><ele>269.4</ele><time>2026-03-24T16:13:36.741Z</time></trkpt><trkpt lat="38.139215" lon="14.8312433"><ele>264.6</ele><time>2026-03-24T16:13:37.741Z</time></trkpt><trkpt lat="38.139265" lon="14.83114"><ele>259.8</ele><time>2026-03-24T16:13:38.74Z</time></trkpt><trkpt lat="38.1393133" lon="14.8310317"><ele>255.0</ele><time>2026-03-24T16:13:39.741Z</time></trkpt><trkpt lat="38.1393633" lon="14.8309283"><ele>253.2</ele><time>2026-03-24T16:13:40.741Z</time></trkpt><trkpt lat="38.1394233" lon="14.8308367"><ele>251.4</ele><time>2026-03-24T16:13:41.74Z</time></trkpt><trkpt lat="38.1394917" lon="14.830745"><ele>249.60000000000002</ele><time>2026-03-24T16:13:42.74Z</time></trkpt><trkpt lat="38.1395667" lon="14.830675"><ele>247.8</ele><time>2026-03-24T16:13:43.74Z</time></trkpt><trkpt lat="38.13965" lon="14.83061"><ele>246.0</ele><time>2026-03-24T16:13:44.741Z</time></trkpt><trkpt lat="38.1397267" lon="14.8305667"><ele>246.0</ele><time>2026-03-24T16:13:45.741Z</time></trkpt><trkpt lat="38.1397933" lon="14.8305467"><ele>246.00000000000003</ele><time>2026-03-24T16:13:46.74Z</time></trkpt><trkpt lat="38.1398583" lon="14.830565"><ele>246.00000000000003</ele><time>2026-03-24T16:13:47.74Z</time></trkpt><trkpt lat="38.1399633" lon="14.83059"><ele>246.0</ele><time>2026-03-24T16:13:49.741Z</time></trkpt><trkpt lat="38.1399883" lon="14.8304967"><ele>246.0</ele><time>2026-03-24T16:13:51.741Z</time></trkpt><trkpt lat="38.1398833" lon="14.8303883"><ele>246.0</ele><time>2026-03-24T16:13:53.741Z</time></trkpt><trkpt lat="38.1397733" lon="14.830345"><ele>246.00000000000003</ele><time>2026-03-24T16:13:54.741Z</time></trkpt><trkpt lat="38.139655" lon="14.83033"><ele>246.00000000000003</ele><time>2026-03-24T16:13:55.741Z</time></trkpt><trkpt lat="38.1395517" lon="14.8303467"><ele>246.0</ele><time>2026-03-24T16:13:56.741Z</time></trkpt><trkpt lat="38.1394833" lon="14.8303833"><ele>246.0</ele><time>2026-03-24T16:13:57.74Z</time></trkpt><trkpt lat="38.1394267" lon="14.830425"><ele>246.0</ele><time>2026-03-24T16:13:58.74Z</time></trkpt><trkpt lat="38.1393217" lon="14.8304617"><ele>246.0</ele><time>2026-03-24T16:14:00.741Z</time></trkpt><trkpt lat="38.13922" lon="14.83036"><ele>246.0</ele><time>2026-03-24T16:14:02.741Z</time></trkpt><trkpt lat="38.13915" lon="14.8302533"><ele>246.0</ele><time>2026-03-24T16:14:03.741Z</time></trkpt><trkpt lat="38.1390867" lon="14.8301467"><ele>245.66666666666666</ele><time>2026-03-24T16:14:04.74Z</time></trkpt><trkpt lat="38.1390433" lon="14.8300583"><ele>245.33333333333331</ele><time>2026-03-24T16:14:05.742Z</time></trkpt><trkpt lat="38.1390367" lon="14.8299683"><ele>245.0</ele><time>2026-03-24T16:14:06.742Z</time></trkpt><trkpt lat="38.1390583" lon="14.8298817"><ele>244.66666666666666</ele><time>2026-03-24T16:14:07.741Z</time></trkpt><trkpt lat="38.1391267" lon="14.8297933"><ele>244.33333333333331</ele><time>2026-03-24T16:14:08.741Z</time></trkpt><trkpt lat="38.1392267" lon="14.8297067"><ele>244.0</ele><time>2026-03-24T16:14:09.742Z</time></trkpt><trkpt lat="38.1393333" lon="14.8296183"><ele>242.0</ele><time>2026-03-24T16:14:10.741Z</time></trkpt><trkpt lat="38.13943" lon="14.82955"><ele>239.99999999999997</ele><time>2026-03-24T16:14:11.742Z</time></trkpt><trkpt lat="38.139525" lon="14.8295183"><ele>237.99999999999997</ele><time>2026-03-24T16:14:12.742Z</time></trkpt><trkpt lat="38.1396183" lon="14.8295167"><ele>236.0</ele><time>2026-03-24T16:14:13.741Z</time></trkpt><trkpt lat="38.1397167" lon="14.82955"><ele>234.0</ele><time>2026-03-24T16:14:14.742Z</time></trkpt><trkpt lat="38.1397983" lon="14.8296017"><ele>234.0</ele><time>2026-03-24T16:14:15.742Z</time></trkpt><trkpt lat="38.1398767" lon="14.82963"><ele>234.0</ele><time>2026-03-24T16:14:16.741Z</time></trkpt><trkpt lat="38.139945" lon="14.8296133"><ele>234.0</ele><time>2026-03-24T16:14:17.742Z</time></trkpt><trkpt lat="38.1399933" lon="14.8295567"><ele>234.0</ele><time>2026-03-24T16:14:18.742Z</time></trkpt><trkpt lat="38.1400383" lon="14.829465"><ele>234.0</ele><time>2026-03-24T16:14:19.742Z</time></trkpt><trkpt lat="38.1400667" lon="14.8293533"><ele>234.0</ele><time>2026-03-24T16:14:20.741Z</time></trkpt><trkpt lat="38.140065" lon="14.82925"><ele>232.83333333333334</ele><time>2026-03-24T16:14:21.741Z</time></trkpt><trkpt lat="38.1400433" lon="14.8291733"><ele>231.66666666666669</ele><time>2026-03-24T16:14:22.742Z</time></trkpt><trkpt lat="38.1400233" lon="14.8290617"><ele>230.5</ele><time>2026-03-24T16:14:24.741Z</time></trkpt><trkpt lat="38.1401117" lon="14.8291217"><ele>229.33333333333334</ele><time>2026-03-24T16:14:27.742Z</time></trkpt><trkpt lat="38.1401383" lon="14.8291967"><ele>228.16666666666669</ele><time>2026-03-24T16:14:28.742Z</time></trkpt><trkpt lat="38.1401833" lon="14.8293183"><ele>227.0</ele><time>2026-03-24T16:14:30.742Z</time></trkpt><trkpt lat="38.1402617" lon="14.8292933"><ele>224.83333333333334</ele><time>2026-03-24T16:14:32.742Z</time></trkpt><trkpt lat="38.1402983" lon="14.8292067"><ele>222.66666666666669</ele><time>2026-03-24T16:14:33.742Z</time></trkpt><trkpt lat="38.140295" lon="14.8290983"><ele>220.5</ele><time>2026-03-24T16:14:34.742Z</time></trkpt><trkpt lat="38.140265" lon="14.8289783"><ele>218.33333333333331</ele><time>2026-03-24T16:14:35.742Z</time></trkpt><trkpt lat="38.140225" lon="14.8288767"><ele>216.16666666666666</ele><time>2026-03-24T16:14:36.742Z</time></trkpt><trkpt lat="38.14019" lon="14.8288017"><ele>214.0</ele><time>2026-03-24T16:14:37.741Z</time></trkpt><trkpt lat="38.14018" lon="14.828665"><ele>214.0</ele><time>2026-03-24T16:14:39.742Z</time></trkpt><trkpt lat="38.1402267" lon="14.82853"><ele>214.0</ele><time>2026-03-24T16:14:41.742Z</time></trkpt><trkpt lat="38.1403133" lon="14.82844"><ele>214.0</ele><time>2026-03-24T16:14:43.742Z</time></trkpt><trkpt lat="38.1404483" lon="14.8283617"><ele>214.0</ele><time>2026-03-24T16:14:45.741Z</time></trkpt><trkpt lat="38.1405467" lon="14.82828"><ele>210.0</ele><time>2026-03-24T16:14:46.742Z</time></trkpt><trkpt lat="38.140665" lon="14.8281867"><ele>205.99999999999997</ele><time>2026-03-24T16:14:47.742Z</time></trkpt><trkpt lat="38.1407633" lon="14.8281033"><ele>202.0</ele><time>2026-03-24T16:14:48.742Z</time></trkpt><trkpt lat="38.1408333" lon="14.828025"><ele>198.0</ele><time>2026-03-24T16:14:49.742Z</time></trkpt><trkpt lat="38.1408783" lon="14.8279433"><ele>194.0</ele><time>2026-03-24T16:14:50.742Z</time></trkpt><trkpt lat="38.1409033" lon="14.8278583"><ele>193.83333333333334</ele><time>2026-03-24T16:14:51.741Z</time></trkpt><trkpt lat="38.140925" lon="14.82776"><ele>193.66666666666669</ele><time>2026-03-24T16:14:52.742Z</time></trkpt><trkpt lat="38.14095" lon="14.82765"><ele>193.5</ele><time>2026-03-24T16:14:53.742Z</time></trkpt><trkpt lat="38.1409817" lon="14.827535"><ele>193.33333333333331</ele><time>2026-03-24T16:14:54.741Z</time></trkpt><trkpt lat="38.1410167" lon="14.8274267"><ele>193.16666666666666</ele><time>2026-03-24T16:14:55.741Z</time></trkpt><trkpt lat="38.1410467" lon="14.82733"><ele>193.0</ele><time>2026-03-24T16:14:56.742Z</time></trkpt><trkpt lat="38.14108" lon="14.8272617"><ele>193.8</ele><time>2026-03-24T16:14:57.742Z</time></trkpt><trkpt lat="38.1411467" lon="14.8272117"><ele>194.60000000000002</ele><time>2026-03-24T16:14:59.742Z</time></trkpt><trkpt lat="38.14126" lon="14.8272733"><ele>195.39999999999998</ele><time>2026-03-24T16:15:01.741Z</time></trkpt><trkpt lat="38.1413267" lon="14.8272917"><ele>196.2</ele><time>2026-03-24T16:15:02.742Z</time></trkpt><trkpt lat="38.1413967" lon="14.8272967"><ele>197.0</ele><time>2026-03-24T16:15:03.742Z</time></trkpt><trkpt lat="38.1414983" lon="14.8272233"><ele>197.0</ele><time>2026-03-24T16:15:05.741Z</time></trkpt><trkpt lat="38.1415267" lon="14.827065"><ele>197.0</ele><time>2026-03-24T16:15:07.742Z</time></trkpt><trkpt lat="38.1415283" lon="14.8269767"><ele>197.0</ele><time>2026-03-24T16:15:08.742Z</time></trkpt><trkpt lat="38.141535" lon="14.8268933"><ele>197.0</ele><time>2026-03-24T16:15:09.741Z</time></trkpt><trkpt lat="38.1415317" lon="14.8267467"><ele>197.0</ele><time>2026-03-24T16:15:11.741Z</time></trkpt><trkpt lat="38.1415617" lon="14.8266433"><ele>199.16666666666669</ele><time>2026-03-24T16:15:13.741Z</time></trkpt><trkpt lat="38.1415833" lon="14.826555"><ele>201.33333333333334</ele><time>2026-03-24T16:15:15.742Z</time></trkpt><trkpt lat="38.141595" lon="14.8264467"><ele>203.5</ele><time>2026-03-24T16:15:17.741Z</time></trkpt><trkpt lat="38.14162" lon="14.8263583"><ele>205.66666666666669</ele><time>2026-03-24T16:15:19.742Z</time></trkpt><trkpt lat="38.1416683" lon="14.8262283"><ele>207.83333333333334</ele><time>2026-03-24T16:15:23.741Z</time></trkpt><trkpt lat="38.1417383" lon="14.8261883"><ele>210.0</ele><time>2026-03-24T16:15:27.742Z</time></trkpt><trkpt lat="38.1417833" lon="14.8261117"><ele>210.0</ele><time>2026-03-24T16:15:46.741Z</time></trkpt><trkpt lat="38.1418083" lon="14.8260283"><ele>210.0</ele><time>2026-03-24T16:15:49.742Z</time></trkpt><trkpt lat="38.1417817" lon="14.8261333"><ele>210.0</ele><time>2026-03-24T16:16:09.741Z</time></trkpt><trkpt lat="38.1417283" lon="14.8262083"><ele>210.0</ele><time>2026-03-24T16:16:11.742Z</time></trkpt><trkpt lat="38.14164" lon="14.8262567"><ele>210.0</ele><time>2026-03-24T16:16:13.741Z</time></trkpt><trkpt lat="38.1415983" lon="14.826385"><ele>210.0</ele><time>2026-03-24T16:16:15.741Z</time></trkpt><trkpt lat="38.1415817" lon="14.8264683"><ele>210.0</ele><time>2026-03-24T16:16:16.742Z</time></trkpt><trkpt lat="38.141575" lon="14.8265583"><ele>210.0</ele><time>2026-03-24T16:16:17.742Z</time></trkpt><trkpt lat="38.14156" lon="14.8266383"><ele>210.0</ele><time>2026-03-24T16:16:18.741Z</time></trkpt><trkpt lat="38.1415267" lon="14.8267733"><ele>210.0</ele><time>2026-03-24T16:16:20.742Z</time></trkpt><trkpt lat="38.14151" lon="14.826855"><ele>210.0</ele><time>2026-03-24T16:16:21.742Z</time></trkpt><trkpt lat="38.1414967" lon="14.8269333"><ele>210.0</ele><time>2026-03-24T16:16:22.742Z</time></trkpt><trkpt lat="38.1414867" lon="14.8270883"><ele>207.83333333333334</ele><time>2026-03-24T16:16:24.742Z</time></trkpt><trkpt lat="38.1414783" lon="14.82717"><ele>205.66666666666669</ele><time>2026-03-24T16:16:25.742Z</time></trkpt><trkpt lat="38.141415" lon="14.8272767"><ele>203.5</ele><time>2026-03-24T16:16:27.742Z</time></trkpt><trkpt lat="38.1413317" lon="14.8273017"><ele>201.33333333333334</ele><time>2026-03-24T16:16:29.742Z</time></trkpt><trkpt lat="38.141215" lon="14.8272867"><ele>199.16666666666669</ele><time>2026-03-24T16:16:31.741Z</time></trkpt><trkpt lat="38.1411467" lon="14.8272733"><ele>197.0</ele><time>2026-03-24T16:16:32.741Z</time></trkpt><trkpt lat="38.1410517" lon="14.827315"><ele>197.0</ele><time>2026-03-24T16:16:34.741Z</time></trkpt><trkpt lat="38.1409767" lon="14.82745"><ele>197.0</ele><time>2026-03-24T16:16:36.741Z</time></trkpt><trkpt lat="38.14093" lon="14.8275733"><ele>197.0</ele><time>2026-03-24T16:16:37.742Z</time></trkpt><trkpt lat="38.140895" lon="14.8277117"><ele>197.0</ele><time>2026-03-24T16:16:38.742Z</time></trkpt><trkpt lat="38.140875" lon="14.8278417"><ele>196.39999999999998</ele><time>2026-03-24T16:16:39.742Z</time></trkpt><trkpt lat="38.14084" lon="14.827945"><ele>195.79999999999998</ele><time>2026-03-24T16:16:40.742Z</time></trkpt><trkpt lat="38.1408" lon="14.8280333"><ele>195.2</ele><time>2026-03-24T16:16:41.741Z</time></trkpt><trkpt lat="38.14074" lon="14.8281133"><ele>194.6</ele><time>2026-03-24T16:16:42.742Z</time></trkpt><trkpt lat="38.14066" lon="14.8281883"><ele>194.0</ele><time>2026-03-24T16:16:43.741Z</time></trkpt><trkpt lat="38.1405483" lon="14.8282733"><ele>194.0</ele><time>2026-03-24T16:16:44.741Z</time></trkpt><trkpt lat="38.140425" lon="14.8283583"><ele>194.0</ele><time>2026-03-24T16:16:45.742Z</time></trkpt><trkpt lat="38.1403233" lon="14.8284183"><ele>194.0</ele><time>2026-03-24T16:16:46.742Z</time></trkpt><trkpt lat="38.1402483" lon="14.8284867"><ele>194.0</ele><time>2026-03-24T16:16:47.741Z</time></trkpt><trkpt lat="38.1401867" lon="14.8285583"><ele>194.0</ele><time>2026-03-24T16:16:48.742Z</time></trkpt><trkpt lat="38.1401533" lon="14.8286583"><ele>198.0</ele><time>2026-03-24T16:16:49.742Z</time></trkpt><trkpt lat="38.1401433" lon="14.8287683"><ele>202.0</ele><time>2026-03-24T16:16:50.742Z</time></trkpt><trkpt lat="38.14018" lon="14.8288833"><ele>205.99999999999997</ele><time>2026-03-24T16:16:51.741Z</time></trkpt><trkpt lat="38.14024" lon="14.829005"><ele>210.0</ele><time>2026-03-24T16:16:52.742Z</time></trkpt><trkpt lat="38.14029" lon="14.829105"><ele>214.0</ele><time>2026-03-24T16:16:53.742Z</time></trkpt><trkpt lat="38.1403133" lon="14.82919"><ele>214.0</ele><time>2026-03-24T16:16:54.742Z</time></trkpt><trkpt lat="38.140265" lon="14.8290517"><ele>213.99999999999997</ele><time>2026-03-24T16:16:58.741Z</time></trkpt><trkpt lat="38.1402233" lon="14.8289167"><ele>213.99999999999997</ele><time>2026-03-24T16:16:59.742Z</time></trkpt><trkpt lat="38.14019" lon="14.828805"><ele>214.0</ele><time>2026-03-24T16:17:00.742Z</time></trkpt><trkpt lat="38.1401683" lon="14.8287017"><ele>214.0</ele><time>2026-03-24T16:17:01.741Z</time></trkpt><trkpt lat="38.1401717" lon="14.828615"><ele>213.99999999999997</ele><time>2026-03-24T16:17:02.742Z</time></trkpt><trkpt lat="38.14021" lon="14.828535"><ele>214.0</ele><time>2026-03-24T16:17:03.741Z</time></trkpt><trkpt lat="38.1402733" lon="14.8284717"><ele>214.0</ele><time>2026-03-24T16:17:04.742Z</time></trkpt><trkpt lat="38.14034" lon="14.8284233"><ele>214.0</ele><time>2026-03-24T16:17:05.742Z</time></trkpt><trkpt lat="38.1404433" lon="14.82836"><ele>213.99999999999997</ele><time>2026-03-24T16:17:07.742Z</time></trkpt><trkpt lat="38.1404917" lon="14.8284367"><ele>214.0</ele><time>2026-03-24T16:17:10.741Z</time></trkpt><trkpt lat="38.140495" lon="14.8285333"><ele>214.00000000000003</ele><time>2026-03-24T16:17:12.742Z</time></trkpt><trkpt lat="38.1404967" lon="14.828645"><ele>214.0</ele><time>2026-03-24T16:17:15.742Z</time></trkpt><trkpt lat="38.1404883" lon="14.8287317"><ele>214.0</ele><time>2026-03-24T16:17:17.742Z</time></trkpt><trkpt lat="38.140535" lon="14.8287867"><ele>214.0</ele><time>2026-03-24T16:17:19.741Z</time></trkpt><trkpt lat="38.140485" lon="14.8287233"><ele>214.0</ele><time>2026-03-24T16:17:26.742Z</time></trkpt><trkpt lat="38.1404617" lon="14.8286467"><ele>214.00000000000003</ele><time>2026-03-24T16:17:28.742Z</time></trkpt><trkpt lat="38.140485" lon="14.828535"><ele>214.0</ele><time>2026-03-24T16:17:31.741Z</time></trkpt><trkpt lat="38.1404833" lon="14.8284183"><ele>210.0</ele><time>2026-03-24T16:17:33.742Z</time></trkpt><trkpt lat="38.1404667" lon="14.828315"><ele>205.99999999999997</ele><time>2026-03-24T16:17:35.742Z</time></trkpt><trkpt lat="38.140395" lon="14.8282683"><ele>202.0</ele><time>2026-03-24T16:17:37.742Z</time></trkpt><trkpt lat="38.1402617" lon="14.8282667"><ele>198.0</ele><time>2026-03-24T16:17:39.742Z</time></trkpt><trkpt lat="38.140195" lon="14.828305"><ele>194.0</ele><time>2026-03-24T16:17:40.741Z</time></trkpt><trkpt lat="38.1401117" lon="14.82835"><ele>194.00000000000003</ele><time>2026-03-24T16:17:42.742Z</time></trkpt><trkpt lat="38.140125" lon="14.828255"><ele>194.0</ele><time>2026-03-24T16:17:45.742Z</time></trkpt><trkpt lat="38.1401883" lon="14.82821"><ele>194.0</ele><time>2026-03-24T16:17:46.741Z</time></trkpt><trkpt lat="38.14026" lon="14.8281617"><ele>194.0</ele><time>2026-03-24T16:17:47.742Z</time></trkpt><trkpt lat="38.1403517" lon="14.8281033"><ele>194.00000000000003</ele><time>2026-03-24T16:17:49.742Z</time></trkpt><trkpt lat="38.1403333" lon="14.8280217"><ele>194.0</ele><time>2026-03-24T16:17:52.742Z</time></trkpt><trkpt lat="38.1402633" lon="14.8280167"><ele>194.0</ele><time>2026-03-24T16:17:56.742Z</time></trkpt><trkpt lat="38.1401817" lon="14.8280417"><ele>194.0</ele><time>2026-03-24T16:18:03.741Z</time></trkpt><trkpt lat="38.1401183" lon="14.8280633"><ele>194.0</ele><time>2026-03-24T16:18:44.742Z</time></trkpt><trkpt lat="38.1400633" lon="14.828105"><ele>194.0</ele><time>2026-03-24T16:18:47.743Z</time></trkpt><trkpt lat="38.1399917" lon="14.828135"><ele>194.0</ele><time>2026-03-24T16:18:51.742Z</time></trkpt><trkpt lat="38.13992" lon="14.8281583"><ele>194.0</ele><time>2026-03-24T16:18:55.742Z</time></trkpt><trkpt lat="38.139855" lon="14.82819"><ele>194.0</ele><time>2026-03-24T16:18:59.743Z</time></trkpt><trkpt lat="38.1397667" lon="14.8281833"><ele>195.16666666666669</ele><time>2026-03-24T16:19:02.742Z</time></trkpt><trkpt lat="38.1396983" lon="14.8281533"><ele>196.33333333333334</ele><time>2026-03-24T16:19:03.742Z</time></trkpt><trkpt lat="38.1396233" lon="14.82813"><ele>197.5</ele><time>2026-03-24T16:19:04.743Z</time></trkpt><trkpt lat="38.1395383" lon="14.8281183"><ele>198.66666666666669</ele><time>2026-03-24T16:19:05.742Z</time></trkpt><trkpt lat="38.1394583" lon="14.8281167"><ele>199.83333333333334</ele><time>2026-03-24T16:19:06.743Z</time></trkpt><trkpt lat="38.139395" lon="14.828115"><ele>201.0</ele><time>2026-03-24T16:19:07.742Z</time></trkpt><trkpt lat="38.1393083" lon="14.8280583"><ele>201.0</ele><time>2026-03-24T16:19:09.743Z</time></trkpt><trkpt lat="38.13928" lon="14.8279067"><ele>201.0</ele><time>2026-03-24T16:19:11.742Z</time></trkpt><trkpt lat="38.13929" lon="14.82781"><ele>201.0</ele><time>2026-03-24T16:19:12.743Z</time></trkpt><trkpt lat="38.1392917" lon="14.8276817"><ele>201.0</ele><time>2026-03-24T16:19:13.743Z</time></trkpt><trkpt lat="38.1392767" lon="14.8275233"><ele>201.0</ele><time>2026-03-24T16:19:14.742Z</time></trkpt><trkpt lat="38.1392633" lon="14.82735"><ele>199.20000000000002</ele><time>2026-03-24T16:19:15.742Z</time></trkpt><trkpt lat="38.1392533" lon="14.8271833"><ele>197.4</ele><time>2026-03-24T16:19:16.743Z</time></trkpt><trkpt lat="38.139265" lon="14.8270367"><ele>195.6</ele><time>2026-03-24T16:19:17.742Z</time></trkpt><trkpt lat="38.1392733" lon="14.826925"><ele>193.8</ele><time>2026-03-24T16:19:18.743Z</time></trkpt><trkpt lat="38.1392517" lon="14.8268267"><ele>192.0</ele><time>2026-03-24T16:19:19.743Z</time></trkpt><trkpt lat="38.139195" lon="14.826745"><ele>193.75</ele><time>2026-03-24T16:19:20.742Z</time></trkpt><trkpt lat="38.139105" lon="14.8266667"><ele>195.5</ele><time>2026-03-24T16:19:21.743Z</time></trkpt><trkpt lat="38.13898" lon="14.8266"><ele>197.25</ele><time>2026-03-24T16:19:22.743Z</time></trkpt><trkpt lat="38.138875" lon="14.82652"><ele>199.0</ele><time>2026-03-24T16:19:23.743Z</time></trkpt><trkpt lat="38.1387783" lon="14.82643"><ele>199.0</ele><time>2026-03-24T16:19:24.743Z</time></trkpt><trkpt lat="38.1386733" lon="14.826335"><ele>199.0</ele><time>2026-03-24T16:19:25.743Z</time></trkpt><trkpt lat="38.1385667" lon="14.826255"><ele>199.0</ele><time>2026-03-24T16:19:26.743Z</time></trkpt><trkpt lat="38.13847" lon="14.8261817"><ele>199.0</ele><time>2026-03-24T16:19:27.742Z</time></trkpt><trkpt lat="38.13837" lon="14.8261383"><ele>199.0</ele><time>2026-03-24T16:19:28.742Z</time></trkpt><trkpt lat="38.13828" lon="14.826115"><ele>199.0</ele><time>2026-03-24T16:19:29.743Z</time></trkpt><trkpt lat="38.1382033" lon="14.8261067"><ele>199.0</ele><time>2026-03-24T16:19:30.742Z</time></trkpt><trkpt lat="38.1381433" lon="14.8260733"><ele>199.0</ele><time>2026-03-24T16:19:31.743Z</time></trkpt><trkpt lat="38.1381" lon="14.8259333"><ele>199.0</ele><time>2026-03-24T16:19:33.742Z</time></trkpt><trkpt lat="38.1381317" lon="14.8258083"><ele>198.75</ele><time>2026-03-24T16:19:34.742Z</time></trkpt><trkpt lat="38.13818" lon="14.8256483"><ele>198.5</ele><time>2026-03-24T16:19:35.742Z</time></trkpt><trkpt lat="38.138225" lon="14.82551"><ele>198.25</ele><time>2026-03-24T16:19:36.742Z</time></trkpt><trkpt lat="38.1382483" lon="14.8253883"><ele>198.0</ele><time>2026-03-24T16:19:37.743Z</time></trkpt><trkpt lat="38.13824" lon="14.82525"><ele>190.0</ele><time>2026-03-24T16:19:38.742Z</time></trkpt><trkpt lat="38.1382283" lon="14.8251167"><ele>182.0</ele><time>2026-03-24T16:19:39.743Z</time></trkpt><trkpt lat="38.1382367" lon="14.8249917"><ele>174.0</ele><time>2026-03-24T16:19:40.742Z</time></trkpt><trkpt lat="38.1382583" lon="14.824845"><ele>166.0</ele><time>2026-03-24T16:19:41.742Z</time></trkpt><trkpt lat="38.1382833" lon="14.8246717"><ele>166.0</ele><time>2026-03-24T16:19:42.743Z</time></trkpt><trkpt lat="38.13831" lon="14.8245017"><ele>166.0</ele><time>2026-03-24T16:19:43.743Z</time></trkpt><trkpt lat="38.1383467" lon="14.8243383"><ele>166.0</ele><time>2026-03-24T16:19:44.743Z</time></trkpt><trkpt lat="38.1383833" lon="14.8241883"><ele>166.0</ele><time>2026-03-24T16:19:45.743Z</time></trkpt><trkpt lat="38.1384233" lon="14.8240533"><ele>165.20000000000002</ele><time>2026-03-24T16:19:46.743Z</time></trkpt><trkpt lat="38.13844" lon="14.8239267"><ele>164.4</ele><time>2026-03-24T16:19:47.742Z</time></trkpt><trkpt lat="38.138445" lon="14.8238117"><ele>163.6</ele><time>2026-03-24T16:19:48.742Z</time></trkpt><trkpt lat="38.1384117" lon="14.8237017"><ele>162.8</ele><time>2026-03-24T16:19:49.742Z</time></trkpt><trkpt lat="38.1383467" lon="14.8235817"><ele>162.0</ele><time>2026-03-24T16:19:50.743Z</time></trkpt><trkpt lat="38.138265" lon="14.823455"><ele>164.25</ele><time>2026-03-24T16:19:51.743Z</time></trkpt><trkpt lat="38.1381967" lon="14.8233017"><ele>166.5</ele><time>2026-03-24T16:19:52.742Z</time></trkpt><trkpt lat="38.138135" lon="14.8231667"><ele>168.75</ele><time>2026-03-24T16:19:53.742Z</time></trkpt><trkpt lat="38.1380517" lon="14.8230433"><ele>171.0</ele><time>2026-03-24T16:19:54.742Z</time></trkpt><trkpt lat="38.137965" lon="14.8229383"><ele>171.0</ele><time>2026-03-24T16:19:55.743Z</time></trkpt><trkpt lat="38.13789" lon="14.822845"><ele>171.0</ele><time>2026-03-24T16:19:56.743Z</time></trkpt><trkpt lat="38.137815" lon="14.82273"><ele>171.0</ele><time>2026-03-24T16:19:57.742Z</time></trkpt><trkpt lat="38.13774" lon="14.8226117"><ele>171.0</ele><time>2026-03-24T16:19:58.742Z</time></trkpt><trkpt lat="38.1376667" lon="14.8225233"><ele>171.0</ele><time>2026-03-24T16:19:59.743Z</time></trkpt><trkpt lat="38.13761" lon="14.8224533"><ele>166.8</ele><time>2026-03-24T16:20:00.743Z</time></trkpt><trkpt lat="38.1375533" lon="14.8223483"><ele>162.60000000000002</ele><time>2026-03-24T16:20:02.743Z</time></trkpt><trkpt lat="38.137625" lon="14.8223117"><ele>158.4</ele><time>2026-03-24T16:20:04.742Z</time></trkpt><trkpt lat="38.137705" lon="14.8223617"><ele>154.2</ele><time>2026-03-24T16:20:05.742Z</time></trkpt><trkpt lat="38.1378167" lon="14.8224617"><ele>150.0</ele><time>2026-03-24T16:20:06.743Z</time></trkpt><trkpt lat="38.137965" lon="14.82258"><ele>150.0</ele><time>2026-03-24T16:20:07.742Z</time></trkpt><trkpt lat="38.1381017" lon="14.8226683"><ele>150.0</ele><time>2026-03-24T16:20:08.742Z</time></trkpt><trkpt lat="38.1382283" lon="14.8227417"><ele>150.0</ele><time>2026-03-24T16:20:09.743Z</time></trkpt><trkpt lat="38.138345" lon="14.8228183"><ele>150.0</ele><time>2026-03-24T16:20:10.743Z</time></trkpt><trkpt lat="38.1384467" lon="14.8229167"><ele>150.0</ele><time>2026-03-24T16:20:11.743Z</time></trkpt><trkpt lat="38.1385417" lon="14.8230633"><ele>150.0</ele><time>2026-03-24T16:20:12.743Z</time></trkpt><trkpt lat="38.1386367" lon="14.82323"><ele>150.0</ele><time>2026-03-24T16:20:13.743Z</time></trkpt><trkpt lat="38.13874" lon="14.8233817"><ele>152.4</ele><time>2026-03-24T16:20:14.743Z</time></trkpt><trkpt lat="38.138835" lon="14.8234983"><ele>154.8</ele><time>2026-03-24T16:20:15.742Z</time></trkpt><trkpt lat="38.138915" lon="14.823595"><ele>157.2</ele><time>2026-03-24T16:20:16.743Z</time></trkpt><trkpt lat="38.1389683" lon="14.823715"><ele>159.6</ele><time>2026-03-24T16:20:17.743Z</time></trkpt><trkpt lat="38.138995" lon="14.823835"><ele>162.0</ele><time>2026-03-24T16:20:18.742Z</time></trkpt><trkpt lat="38.139005" lon="14.82397"><ele>162.0</ele><time>2026-03-24T16:20:19.742Z</time></trkpt><trkpt lat="38.139035" lon="14.8240767"><ele>162.0</ele><time>2026-03-24T16:20:20.743Z</time></trkpt><trkpt lat="38.139105" lon="14.824175"><ele>162.0</ele><time>2026-03-24T16:20:22.743Z</time></trkpt><trkpt lat="38.139145" lon="14.8240567"><ele>162.0</ele><time>2026-03-24T16:20:24.742Z</time></trkpt><trkpt lat="38.1391383" lon="14.8239533"><ele>162.0</ele><time>2026-03-24T16:20:25.742Z</time></trkpt><trkpt lat="38.1391283" lon="14.8238117"><ele>159.0</ele><time>2026-03-24T16:20:26.743Z</time></trkpt><trkpt lat="38.13913" lon="14.823665"><ele>156.0</ele><time>2026-03-24T16:20:27.743Z</time></trkpt><trkpt lat="38.1391217" lon="14.8235217"><ele>153.0</ele><time>2026-03-24T16:20:28.743Z</time></trkpt><trkpt lat="38.139085" lon="14.82337"><ele>150.0</ele><time>2026-03-24T16:20:29.742Z</time></trkpt><trkpt lat="38.13905" lon="14.8232317"><ele>150.0</ele><time>2026-03-24T16:20:30.743Z</time></trkpt><trkpt lat="38.1390267" lon="14.823125"><ele>150.0</ele><time>2026-03-24T16:20:31.742Z</time></trkpt><trkpt lat="38.138985" lon="14.8230233"><ele>150.0</ele><time>2026-03-24T16:20:33.743Z</time></trkpt><trkpt lat="38.1388833" lon="14.82295"><ele>150.0</ele><time>2026-03-24T16:20:35.742Z</time></trkpt><trkpt lat="38.1388267" lon="14.822865"><ele>150.0</ele><time>2026-03-24T16:20:36.743Z</time></trkpt><trkpt lat="38.13877" lon="14.8227533"><ele>146.8</ele><time>2026-03-24T16:20:37.742Z</time></trkpt><trkpt lat="38.138725" lon="14.82262"><ele>143.6</ele><time>2026-03-24T16:20:38.743Z</time></trkpt><trkpt lat="38.1386933" lon="14.8224767"><ele>140.4</ele><time>2026-03-24T16:20:39.743Z</time></trkpt><trkpt lat="38.13866" lon="14.8223433"><ele>137.2</ele><time>2026-03-24T16:20:40.742Z</time></trkpt><trkpt lat="38.13862" lon="14.822225"><ele>134.0</ele><time>2026-03-24T16:20:41.742Z</time></trkpt><trkpt lat="38.13858" lon="14.82213"><ele>134.0</ele><time>2026-03-24T16:20:42.743Z</time></trkpt><trkpt lat="38.1385267" lon="14.8220233"><ele>134.0</ele><time>2026-03-24T16:20:43.742Z</time></trkpt><trkpt lat="38.138475" lon="14.8219267"><ele>134.0</ele><time>2026-03-24T16:20:44.743Z</time></trkpt><trkpt lat="38.1384267" lon="14.8218367"><ele>134.0</ele><time>2026-03-24T16:20:45.743Z</time></trkpt><trkpt lat="38.138395" lon="14.8217633"><ele>134.0</ele><time>2026-03-24T16:20:46.743Z</time></trkpt><trkpt lat="38.1383967" lon="14.821595"><ele>134.66666666666666</ele><time>2026-03-24T16:20:48.743Z</time></trkpt><trkpt lat="38.13841" lon="14.8215017"><ele>135.33333333333331</ele><time>2026-03-24T16:20:49.743Z</time></trkpt><trkpt lat="38.1384083" lon="14.82141"><ele>136.0</ele><time>2026-03-24T16:20:50.742Z</time></trkpt><trkpt lat="38.138385" lon="14.8213333"><ele>136.66666666666666</ele><time>2026-03-24T16:20:51.743Z</time></trkpt><trkpt lat="38.1383317" lon="14.8212583"><ele>137.33333333333334</ele><time>2026-03-24T16:20:52.743Z</time></trkpt><trkpt lat="38.13826" lon="14.8211817"><ele>138.0</ele><time>2026-03-24T16:20:53.743Z</time></trkpt><trkpt lat="38.138195" lon="14.821115"><ele>138.0</ele><time>2026-03-24T16:20:54.743Z</time></trkpt><trkpt lat="38.1381367" lon="14.821035"><ele>138.0</ele><time>2026-03-24T16:20:55.743Z</time></trkpt><trkpt lat="38.138085" lon="14.8209267"><ele>138.0</ele><time>2026-03-24T16:20:56.742Z</time></trkpt><trkpt lat="38.13805" lon="14.8208183"><ele>138.0</ele><time>2026-03-24T16:20:57.743Z</time></trkpt><trkpt lat="38.138015" lon="14.820735"><ele>138.0</ele><time>2026-03-24T16:20:58.742Z</time></trkpt><trkpt lat="38.137965" lon="14.8206167"><ele>135.66666666666666</ele><time>2026-03-24T16:21:00.742Z</time></trkpt><trkpt lat="38.1380333" lon="14.8206117"><ele>133.33333333333334</ele><time>2026-03-24T16:21:03.743Z</time></trkpt><trkpt lat="38.138125" lon="14.82071"><ele>131.0</ele><time>2026-03-24T16:21:04.742Z</time></trkpt><trkpt lat="38.138205" lon="14.8207933"><ele>128.66666666666669</ele><time>2026-03-24T16:21:05.743Z</time></trkpt><trkpt lat="38.1382683" lon="14.8208467"><ele>126.33333333333334</ele><time>2026-03-24T16:21:06.742Z</time></trkpt><trkpt lat="38.1383417" lon="14.8208333"><ele>124.0</ele><time>2026-03-24T16:21:08.742Z</time></trkpt><trkpt lat="38.1383267" lon="14.8206767"><ele>124.0</ele><time>2026-03-24T16:21:10.742Z</time></trkpt><trkpt lat="38.1382767" lon="14.8205583"><ele>124.0</ele><time>2026-03-24T16:21:11.742Z</time></trkpt><trkpt lat="38.1382083" lon="14.8204317"><ele>124.0</ele><time>2026-03-24T16:21:12.743Z</time></trkpt><trkpt lat="38.1381433" lon="14.8203267"><ele>124.0</ele><time>2026-03-24T16:21:13.743Z</time></trkpt><trkpt lat="38.1380983" lon="14.8202433"><ele>124.0</ele><time>2026-03-24T16:21:14.743Z</time></trkpt><trkpt lat="38.138065" lon="14.8201717"><ele>121.83333333333334</ele><time>2026-03-24T16:21:15.743Z</time></trkpt><trkpt lat="38.1380417" lon="14.820055"><ele>119.66666666666667</ele><time>2026-03-24T16:21:17.743Z</time></trkpt><trkpt lat="38.1380467" lon="14.8199667"><ele>117.5</ele><time>2026-03-24T16:21:19.743Z</time></trkpt><trkpt lat="38.1380617" lon="14.8198617"><ele>115.33333333333334</ele><time>2026-03-24T16:21:22.742Z</time></trkpt><trkpt lat="38.138045" lon="14.8197383"><ele>113.16666666666667</ele><time>2026-03-24T16:21:25.743Z</time></trkpt><trkpt lat="38.1379917" lon="14.8196583"><ele>111.0</ele><time>2026-03-24T16:21:27.743Z</time></trkpt><trkpt lat="38.13805" lon="14.819625"><ele>111.0</ele><time>2026-03-24T16:23:47.744Z</time></trkpt><trkpt lat="38.1381033" lon="14.81973"><ele>111.0</ele><time>2026-03-24T16:23:49.744Z</time></trkpt><trkpt lat="38.1381467" lon="14.8198067"><ele>111.0</ele><time>2026-03-24T16:23:50.743Z</time></trkpt><trkpt lat="38.13821" lon="14.8199083"><ele>111.0</ele><time>2026-03-24T16:23:51.744Z</time></trkpt><trkpt lat="38.1382733" lon="14.8200067"><ele>111.0</ele><time>2026-03-24T16:23:52.744Z</time></trkpt><trkpt lat="38.138345" lon="14.820105"><ele>109.0</ele><time>2026-03-24T16:23:53.743Z</time></trkpt><trkpt lat="38.138425" lon="14.82021"><ele>107.0</ele><time>2026-03-24T16:23:54.744Z</time></trkpt><trkpt lat="38.1385033" lon="14.8203267"><ele>105.0</ele><time>2026-03-24T16:23:55.744Z</time></trkpt><trkpt lat="38.1385817" lon="14.8204383"><ele>103.0</ele><time>2026-03-24T16:23:56.743Z</time></trkpt><trkpt lat="38.1386533" lon="14.82055"><ele>103.0</ele><time>2026-03-24T16:23:57.743Z</time></trkpt><trkpt lat="38.1387317" lon="14.8206633"><ele>103.0</ele><time>2026-03-24T16:23:58.743Z</time></trkpt><trkpt lat="38.1388133" lon="14.8207767"><ele>103.0</ele><time>2026-03-24T16:23:59.744Z</time></trkpt><trkpt lat="38.1389" lon="14.8208933"><ele>103.0</ele><time>2026-03-24T16:24:00.744Z</time></trkpt><trkpt lat="38.1389767" lon="14.8210083"><ele>101.5</ele><time>2026-03-24T16:24:01.744Z</time></trkpt><trkpt lat="38.1390517" lon="14.8211267"><ele>100.0</ele><time>2026-03-24T16:24:02.743Z</time></trkpt><trkpt lat="38.1391233" lon="14.82124"><ele>98.5</ele><time>2026-03-24T16:24:03.743Z</time></trkpt><trkpt lat="38.1392117" lon="14.8213633"><ele>97.0</ele><time>2026-03-24T16:24:04.743Z</time></trkpt><trkpt lat="38.1392933" lon="14.8214767"><ele>97.0</ele><time>2026-03-24T16:24:05.744Z</time></trkpt><trkpt lat="38.1393683" lon="14.82159"><ele>97.0</ele><time>2026-03-24T16:24:06.744Z</time></trkpt><trkpt lat="38.1394367" lon="14.8216933"><ele>97.0</ele><time>2026-03-24T16:24:07.744Z</time></trkpt><trkpt lat="38.1395133" lon="14.8217867"><ele>97.0</ele><time>2026-03-24T16:24:08.744Z</time></trkpt><trkpt lat="38.13961" lon="14.821875"><ele>97.0</ele><time>2026-03-24T16:24:09.743Z</time></trkpt><trkpt lat="38.139695" lon="14.8219383"><ele>95.75</ele><time>2026-03-24T16:24:10.744Z</time></trkpt><trkpt lat="38.1397867" lon="14.821995"><ele>94.5</ele><time>2026-03-24T16:24:11.744Z</time></trkpt><trkpt lat="38.1398883" lon="14.8220483"><ele>93.25</ele><time>2026-03-24T16:24:12.743Z</time></trkpt><trkpt lat="38.1400083" lon="14.822115"><ele>92.0</ele><time>2026-03-24T16:24:13.744Z</time></trkpt><trkpt lat="38.1401267" lon="14.8221767"><ele>92.0</ele><time>2026-03-24T16:24:14.743Z</time></trkpt><trkpt lat="38.1402417" lon="14.82225"><ele>92.0</ele><time>2026-03-24T16:24:15.744Z</time></trkpt><trkpt lat="38.14036" lon="14.8223183"><ele>92.0</ele><time>2026-03-24T16:24:16.744Z</time></trkpt><trkpt lat="38.1404833" lon="14.8223783"><ele>92.0</ele><time>2026-03-24T16:24:17.744Z</time></trkpt><trkpt lat="38.1406017" lon="14.8224367"><ele>92.0</ele><time>2026-03-24T16:24:18.744Z</time></trkpt><trkpt lat="38.140715" lon="14.8225033"><ele>92.0</ele><time>2026-03-24T16:24:19.743Z</time></trkpt><trkpt lat="38.140825" lon="14.8225783"><ele>92.0</ele><time>2026-03-24T16:24:20.744Z</time></trkpt><trkpt lat="38.1409317" lon="14.82264"><ele>92.0</ele><time>2026-03-24T16:24:21.744Z</time></trkpt><trkpt lat="38.14104" lon="14.822695"><ele>93.8</ele><time>2026-03-24T16:24:22.744Z</time></trkpt><trkpt lat="38.1411417" lon="14.8227467"><ele>95.6</ele><time>2026-03-24T16:24:23.744Z</time></trkpt><trkpt lat="38.1412417" lon="14.822795"><ele>97.39999999999999</ele><time>2026-03-24T16:24:24.744Z</time></trkpt><trkpt lat="38.1413433" lon="14.822815"><ele>99.19999999999999</ele><time>2026-03-24T16:24:25.743Z</time></trkpt><trkpt lat="38.14145" lon="14.8228333"><ele>101.0</ele><time>2026-03-24T16:24:26.743Z</time></trkpt><trkpt lat="38.1415617" lon="14.82283"><ele>102.6</ele><time>2026-03-24T16:24:27.743Z</time></trkpt><trkpt lat="38.1416633" lon="14.8228133"><ele>104.19999999999999</ele><time>2026-03-24T16:24:28.743Z</time></trkpt><trkpt lat="38.1417683" lon="14.8227933"><ele>105.80000000000001</ele><time>2026-03-24T16:24:29.743Z</time></trkpt><trkpt lat="38.1418717" lon="14.822765"><ele>107.4</ele><time>2026-03-24T16:24:30.743Z</time></trkpt><trkpt lat="38.14197" lon="14.8227433"><ele>109.0</ele><time>2026-03-24T16:24:31.744Z</time></trkpt><trkpt lat="38.1420617" lon="14.822725"><ele>109.0</ele><time>2026-03-24T16:24:32.744Z</time></trkpt><trkpt lat="38.1421483" lon="14.8226983"><ele>109.0</ele><time>2026-03-24T16:24:33.744Z</time></trkpt><trkpt lat="38.14223" lon="14.822675"><ele>109.0</ele><time>2026-03-24T16:24:34.744Z</time></trkpt><trkpt lat="38.142325" lon="14.8226483"><ele>109.0</ele><time>2026-03-24T16:24:35.744Z</time></trkpt><trkpt lat="38.14243" lon="14.8226117"><ele>109.0</ele><time>2026-03-24T16:24:36.744Z</time></trkpt><trkpt lat="38.1425417" lon="14.8225883"><ele>102.5</ele><time>2026-03-24T16:24:37.744Z</time></trkpt><trkpt lat="38.1426633" lon="14.8225633"><ele>96.0</ele><time>2026-03-24T16:24:38.743Z</time></trkpt><trkpt lat="38.1427933" lon="14.8225367"><ele>89.5</ele><time>2026-03-24T16:24:39.743Z</time></trkpt><trkpt lat="38.1429117" lon="14.8225183"><ele>83.0</ele><time>2026-03-24T16:24:40.744Z</time></trkpt><trkpt lat="38.14303" lon="14.8225133"><ele>83.0</ele><time>2026-03-24T16:24:41.744Z</time></trkpt><trkpt lat="38.14314" lon="14.8225083"><ele>83.0</ele><time>2026-03-24T16:24:42.743Z</time></trkpt><trkpt lat="38.143245" lon="14.8225033"><ele>83.0</ele><time>2026-03-24T16:24:43.744Z</time></trkpt><trkpt lat="38.14335" lon="14.8224983"><ele>83.0</ele><time>2026-03-24T16:24:44.743Z</time></trkpt><trkpt lat="38.1434667" lon="14.8225233"><ele>83.0</ele><time>2026-03-24T16:24:45.744Z</time></trkpt><trkpt lat="38.1435867" lon="14.8225567"><ele>80.25</ele><time>2026-03-24T16:24:46.743Z</time></trkpt><trkpt lat="38.1437133" lon="14.8225983"><ele>77.5</ele><time>2026-03-24T16:24:47.744Z</time></trkpt><trkpt lat="38.1438467" lon="14.822645"><ele>74.75</ele><time>2026-03-24T16:24:48.744Z</time></trkpt><trkpt lat="38.1439833" lon="14.8226867"><ele>72.0</ele><time>2026-03-24T16:24:49.743Z</time></trkpt><trkpt lat="38.1441367" lon="14.8227367"><ele>71.66666666666667</ele><time>2026-03-24T16:24:50.744Z</time></trkpt><trkpt lat="38.1442967" lon="14.822795"><ele>71.33333333333334</ele><time>2026-03-24T16:24:51.744Z</time></trkpt><trkpt lat="38.1444517" lon="14.8228517"><ele>71.0</ele><time>2026-03-24T16:24:52.743Z</time></trkpt><trkpt lat="38.144605" lon="14.8228917"><ele>71.0</ele><time>2026-03-24T16:24:53.743Z</time></trkpt><trkpt lat="38.1447383" lon="14.82293"><ele>71.0</ele><time>2026-03-24T16:24:54.743Z</time></trkpt><trkpt lat="38.1448867" lon="14.822975"><ele>71.0</ele><time>2026-03-24T16:24:55.744Z</time></trkpt><trkpt lat="38.1450017" lon="14.8230167"><ele>71.0</ele><time>2026-03-24T16:24:56.744Z</time></trkpt><trkpt lat="38.1451667" lon="14.82307"><ele>68.5</ele><time>2026-03-24T16:24:57.744Z</time></trkpt><trkpt lat="38.14531" lon="14.8231283"><ele>66.0</ele><time>2026-03-24T16:24:58.744Z</time></trkpt><trkpt lat="38.1454233" lon="14.8232067"><ele>63.5</ele><time>2026-03-24T16:24:59.744Z</time></trkpt><trkpt lat="38.14552" lon="14.8233133"><ele>61.0</ele><time>2026-03-24T16:25:00.744Z</time></trkpt><trkpt lat="38.145615" lon="14.8234367"><ele>61.25</ele><time>2026-03-24T16:25:01.744Z</time></trkpt><trkpt lat="38.14568" lon="14.8235783"><ele>61.5</ele><time>2026-03-24T16:25:02.743Z</time></trkpt><trkpt lat="38.14575" lon="14.82371"><ele>61.75</ele><time>2026-03-24T16:25:03.743Z</time></trkpt><trkpt lat="38.1458233" lon="14.8238383"><ele>62.0</ele><time>2026-03-24T16:25:04.744Z</time></trkpt><trkpt lat="38.1459" lon="14.8239767"><ele>62.0</ele><time>2026-03-24T16:25:05.744Z</time></trkpt><trkpt lat="38.1459817" lon="14.824105"><ele>62.0</ele><time>2026-03-24T16:25:06.744Z</time></trkpt><trkpt lat="38.1460633" lon="14.82425"><ele>62.0</ele><time>2026-03-24T16:25:07.743Z</time></trkpt><trkpt lat="38.146145" lon="14.8243767"><ele>62.0</ele><time>2026-03-24T16:25:08.744Z</time></trkpt><trkpt lat="38.1462283" lon="14.8245017"><ele>62.25</ele><time>2026-03-24T16:25:09.744Z</time></trkpt><trkpt lat="38.1463117" lon="14.8246383"><ele>62.5</ele><time>2026-03-24T16:25:10.744Z</time></trkpt><trkpt lat="38.1463983" lon="14.82477"><ele>62.75</ele><time>2026-03-24T16:25:11.744Z</time></trkpt><trkpt lat="38.1464883" lon="14.824905"><ele>63.0</ele><time>2026-03-24T16:25:12.743Z</time></trkpt><trkpt lat="38.1465717" lon="14.8250467"><ele>63.0</ele><time>2026-03-24T16:25:13.743Z</time></trkpt></trkseg></trk></gpx>